<?xml version='1.0' encoding='UTF-8'?><gpx version="1.1" creator="JPX - https://github.com/jenetics/jpx" xmlns="http://www.topografix.com/GPX/1/1"><trk><trkseg><trkpt lat="43.883397222373965" lon="10.748893308155573"><ele>28.000000000000004</ele><time>2026-04-25T12:47:58Z</time></trkpt><trkpt lat="43.88344076899969" lon="10.748995704401427"><ele>28.0</ele><time>2026-04-25T12:48:11.001Z</time></trkpt><trkpt lat="43.88350740626035" lon="10.749074865350078"><ele>28.0</ele><time>2026-04-25T12:48:13.001Z</time></trkpt><trkpt lat="43.88348168541015" lon="10.748943707395174"><ele>28.0</ele><time>2026-04-25T12:48:23.001Z</time></trkpt><trkpt lat="43.88343357426118" lon="10.748866882798445"><ele>28.000000000000004</ele><time>2026-04-25T12:48:24.001Z</time></trkpt><trkpt lat="43.88337668485678" lon="10.748808792872483"><ele>28.0</ele><time>2026-04-25T12:48:25.001Z</time></trkpt><trkpt lat="43.88332666221742" lon="10.748748407025598"><ele>28.000000000000004</ele><time>2026-04-25T12:48:26.001Z</time></trkpt><trkpt lat="43.88327241158238" lon="10.748681202280554"><ele>28.0</ele><time>2026-04-25T12:48:27.001Z</time></trkpt><trkpt lat="43.88321606031695" lon="10.748606258700216"><ele>28.0</ele><time>2026-04-25T12:48:28.001Z</time></trkpt><trkpt lat="43.883157691677376" lon="10.748518555652673"><ele>28.0</ele><time>2026-04-25T12:48:29.001Z</time></trkpt><trkpt lat="43.88309881632424" lon="10.748429293241033"><ele>28.000000000000004</ele><time>2026-04-25T12:48:30.001Z</time></trkpt><trkpt lat="43.88302726559813" lon="10.748345736030473"><ele>28.0</ele><time>2026-04-25T12:48:31.001Z</time></trkpt><trkpt lat="43.8829607671446" lon="10.74827209714062"><ele>28.500000000000004</ele><time>2026-04-25T12:48:32.001Z</time></trkpt><trkpt lat="43.88290837490992" lon="10.748197197399177"><ele>29.0</ele><time>2026-04-25T12:48:33.001Z</time></trkpt><trkpt lat="43.882880924572795" lon="10.748108984699181"><ele>29.5</ele><time>2026-04-25T12:48:34.001Z</time></trkpt><trkpt lat="43.88288229227814" lon="10.74800601811249"><ele>30.0</ele><time>2026-04-25T12:48:35.001Z</time></trkpt><trkpt lat="43.88291786922461" lon="10.747925011523982"><ele>30.500000000000004</ele><time>2026-04-25T12:48:36.001Z</time></trkpt><trkpt lat="43.882976869925514" lon="10.747854023097942"><ele>31.0</ele><time>2026-04-25T12:48:37.001Z</time></trkpt><trkpt lat="43.88306165329008" lon="10.747804217799562"><ele>31.0</ele><time>2026-04-25T12:48:38.001Z</time></trkpt><trkpt lat="43.8831542227741" lon="10.74777445572966"><ele>31.0</ele><time>2026-04-25T12:48:39.001Z</time></trkpt><trkpt lat="43.88328303159876" lon="10.747762798513536"><ele>31.0</ele><time>2026-04-25T12:48:40.001Z</time></trkpt><trkpt lat="43.88337687542408" lon="10.747704721614289"><ele>31.0</ele><time>2026-04-25T12:48:41.001Z</time></trkpt><trkpt lat="43.88346497432786" lon="10.747631433851174"><ele>31.0</ele><time>2026-04-25T12:48:42.001Z</time></trkpt><trkpt lat="43.88356048124035" lon="10.747548622248102"><ele>30.25</ele><time>2026-04-25T12:48:43.001Z</time></trkpt><trkpt lat="43.88365958256513" lon="10.747471128266433"><ele>29.5</ele><time>2026-04-25T12:48:44.001Z</time></trkpt><trkpt lat="43.88376080779991" lon="10.747390267394936"><ele>28.75</ele><time>2026-04-25T12:48:45.001Z</time></trkpt><trkpt lat="43.88386655333581" lon="10.747319856223402"><ele>28.0</ele><time>2026-04-25T12:48:46.001Z</time></trkpt><trkpt lat="43.88397609996155" lon="10.747246070471293"><ele>28.0</ele><time>2026-04-25T12:48:47.001Z</time></trkpt><trkpt lat="43.88409723752351" lon="10.747185716067905"><ele>28.0</ele><time>2026-04-25T12:48:48.001Z</time></trkpt><trkpt lat="43.88421689690606" lon="10.747130377597363"><ele>28.0</ele><time>2026-04-25T12:48:49.001Z</time></trkpt><trkpt lat="43.88433841896732" lon="10.747080684335588"><ele>28.0</ele><time>2026-04-25T12:48:50.001Z</time></trkpt><trkpt lat="43.884465292380675" lon="10.747039756220495"><ele>28.0</ele><time>2026-04-25T12:48:51.001Z</time></trkpt><trkpt lat="43.884595366444145" lon="10.747009381837413"><ele>28.0</ele><time>2026-04-25T12:48:52.001Z</time></trkpt><trkpt lat="43.88472902178277" lon="10.746988481277125"><ele>28.0</ele><time>2026-04-25T12:48:53.001Z</time></trkpt><trkpt lat="43.88486401567087" lon="10.746957385214792"><ele>28.0</ele><time>2026-04-25T12:48:54.001Z</time></trkpt><trkpt lat="43.88499644823968" lon="10.746927612896421"><ele>28.25</ele><time>2026-04-25T12:48:55.001Z</time></trkpt><trkpt lat="43.885128412816464" lon="10.74689935704348"><ele>28.5</ele><time>2026-04-25T12:48:56.001Z</time></trkpt><trkpt lat="43.88526447186881" lon="10.746882884401908"><ele>28.75</ele><time>2026-04-25T12:48:57.001Z</time></trkpt><trkpt lat="43.88540037634127" lon="10.746868910697764"><ele>29.0</ele><time>2026-04-25T12:48:58.001Z</time></trkpt><trkpt lat="43.8855324554815" lon="10.746857810892825"><ele>29.25</ele><time>2026-04-25T12:48:59.001Z</time></trkpt><trkpt lat="43.88566688548661" lon="10.7468478367612"><ele>29.5</ele><time>2026-04-25T12:49:00.001Z</time></trkpt><trkpt lat="43.88579687942776" lon="10.746831721421017"><ele>29.75</ele><time>2026-04-25T12:49:01.001Z</time></trkpt><trkpt lat="43.885927881403184" lon="10.74680985994443"><ele>30.0</ele><time>2026-04-25T12:49:02.001Z</time></trkpt><trkpt lat="43.88605503253643" lon="10.746783684032557"><ele>30.5</ele><time>2026-04-25T12:49:03.001Z</time></trkpt><trkpt lat="43.88618900778006" lon="10.746750492183969"><ele>31.0</ele><time>2026-04-25T12:49:04.001Z</time></trkpt><trkpt lat="43.886315181541505" lon="10.746713015620884"><ele>31.5</ele><time>2026-04-25T12:49:05.001Z</time></trkpt><trkpt lat="43.88644035048586" lon="10.746674190141684"><ele>32.0</ele><time>2026-04-25T12:49:06.001Z</time></trkpt><trkpt lat="43.88657053498141" lon="10.746629889241841"><ele>32.0</ele><time>2026-04-25T12:49:07.001Z</time></trkpt><trkpt lat="43.88669495142352" lon="10.746588516062085"><ele>32.0</ele><time>2026-04-25T12:49:08.001Z</time></trkpt><trkpt lat="43.88681967551046" lon="10.746551798695927"><ele>32.0</ele><time>2026-04-25T12:49:09.001Z</time></trkpt><trkpt lat="43.8869410902303" lon="10.746511228342026"><ele>32.0</ele><time>2026-04-25T12:49:10.001Z</time></trkpt><trkpt lat="43.88704842719075" lon="10.746473035825328"><ele>32.800000000000004</ele><time>2026-04-25T12:49:11.001Z</time></trkpt><trkpt lat="43.88714735562405" lon="10.746458990690993"><ele>33.6</ele><time>2026-04-25T12:49:12.001Z</time></trkpt><trkpt lat="43.88722995206762" lon="10.746465682081213"><ele>34.400000000000006</ele><time>2026-04-25T12:49:13.001Z</time></trkpt><trkpt lat="43.887301056727864" lon="10.746518270041623"><ele>35.2</ele><time>2026-04-25T12:49:14.001Z</time></trkpt><trkpt lat="43.88736059582223" lon="10.746614591528965"><ele>36.0</ele><time>2026-04-25T12:49:15.001Z</time></trkpt><trkpt lat="43.88743776042659" lon="10.746703922420766"><ele>36.0</ele><time>2026-04-25T12:49:16.001Z</time></trkpt><trkpt lat="43.887529061172216" lon="10.746770440850018"><ele>36.0</ele><time>2026-04-25T12:49:17.001Z</time></trkpt><trkpt lat="43.88761274040856" lon="10.746791504917201"><ele>36.0</ele><time>2026-04-25T12:49:18.001Z</time></trkpt><trkpt lat="43.88770527279273" lon="10.746766883730553"><ele>36.0</ele><time>2026-04-25T12:49:19.001Z</time></trkpt><trkpt lat="43.88778975242732" lon="10.746699553172016"><ele>36.0</ele><time>2026-04-25T12:49:20.001Z</time></trkpt><trkpt lat="43.88786791532038" lon="10.746609390647345"><ele>34.75</ele><time>2026-04-25T12:49:21.001Z</time></trkpt><trkpt lat="43.88795060180621" lon="10.746507201324066"><ele>33.5</ele><time>2026-04-25T12:49:22.001Z</time></trkpt><trkpt lat="43.88803847354999" lon="10.746406468388068"><ele>32.25</ele><time>2026-04-25T12:49:23.001Z</time></trkpt><trkpt lat="43.88813352221016" lon="10.746310719636305"><ele>31.0</ele><time>2026-04-25T12:49:24.001Z</time></trkpt><trkpt lat="43.888234606012276" lon="10.746212662977412"><ele>31.0</ele><time>2026-04-25T12:49:25.001Z</time></trkpt><trkpt lat="43.888349445560834" lon="10.746114616578103"><ele>31.0</ele><time>2026-04-25T12:49:26.001Z</time></trkpt><trkpt lat="43.888449739620924" lon="10.74601006152186"><ele>31.0</ele><time>2026-04-25T12:49:27.001Z</time></trkpt><trkpt lat="43.88855544022976" lon="10.74591552612951"><ele>31.0</ele><time>2026-04-25T12:49:28.001Z</time></trkpt><trkpt lat="43.888676761565925" lon="10.745850275286887"><ele>32.5</ele><time>2026-04-25T12:49:29.001Z</time></trkpt><trkpt lat="43.88879934551564" lon="10.745814620255587"><ele>34.0</ele><time>2026-04-25T12:49:30.001Z</time></trkpt><trkpt lat="43.88892774837431" lon="10.745822083860114"><ele>35.5</ele><time>2026-04-25T12:49:31.001Z</time></trkpt><trkpt lat="43.889050843455344" lon="10.745850843628777"><ele>37.0</ele><time>2026-04-25T12:49:32.001Z</time></trkpt><trkpt lat="43.88916702096416" lon="10.745907360794877"><ele>36.75</ele><time>2026-04-25T12:49:33.001Z</time></trkpt><trkpt lat="43.88928381518197" lon="10.745959975650877"><ele>36.5</ele><time>2026-04-25T12:49:34.001Z</time></trkpt><trkpt lat="43.88939934300838" lon="10.746002659290756"><ele>36.25</ele><time>2026-04-25T12:49:35.001Z</time></trkpt><trkpt lat="43.88951775322635" lon="10.746024302840567"><ele>36.0</ele><time>2026-04-25T12:49:36.001Z</time></trkpt><trkpt lat="43.889638140752275" lon="10.746013689922183"><ele>36.0</ele><time>2026-04-25T12:49:37.001Z</time></trkpt><trkpt lat="43.8897637554908" lon="10.745979823700338"><ele>36.0</ele><time>2026-04-25T12:49:38.001Z</time></trkpt><trkpt lat="43.889878725832546" lon="10.745921865407269"><ele>36.0</ele><time>2026-04-25T12:49:39.001Z</time></trkpt><trkpt lat="43.88999463809876" lon="10.745841350984389"><ele>36.0</ele><time>2026-04-25T12:49:40.001Z</time></trkpt><trkpt lat="43.89011321291226" lon="10.745753392387883"><ele>35.75</ele><time>2026-04-25T12:49:41.001Z</time></trkpt><trkpt lat="43.890226176224566" lon="10.745655638717535"><ele>35.5</ele><time>2026-04-25T12:49:42.001Z</time></trkpt><trkpt lat="43.89033421055221" lon="10.745546808375815"><ele>35.25</ele><time>2026-04-25T12:49:43.001Z</time></trkpt><trkpt lat="43.890429493224666" lon="10.745408092672932"><ele>35.0</ele><time>2026-04-25T12:49:44.001Z</time></trkpt><trkpt lat="43.8905176586602" lon="10.74525492904672"><ele>35.75</ele><time>2026-04-25T12:49:45.001Z</time></trkpt><trkpt lat="43.890604806332135" lon="10.745098434097546"><ele>36.5</ele><time>2026-04-25T12:49:46.001Z</time></trkpt><trkpt lat="43.890703733470346" lon="10.744957661608593"><ele>37.25</ele><time>2026-04-25T12:49:47.001Z</time></trkpt><trkpt lat="43.89081590990458" lon="10.744834460925592"><ele>38.0</ele><time>2026-04-25T12:49:48.001Z</time></trkpt><trkpt lat="43.890934468768215" lon="10.744723331520635"><ele>39.0</ele><time>2026-04-25T12:49:49.001Z</time></trkpt><trkpt lat="43.891052862510755" lon="10.744611813052714"><ele>40.0</ele><time>2026-04-25T12:49:50.001Z</time></trkpt><trkpt lat="43.891169194722586" lon="10.744496592031597"><ele>41.0</ele><time>2026-04-25T12:49:51.001Z</time></trkpt><trkpt lat="43.89128322768676" lon="10.744383106640845"><ele>42.0</ele><time>2026-04-25T12:49:52.001Z</time></trkpt><trkpt lat="43.89139800574919" lon="10.744267249703448"><ele>42.0</ele><time>2026-04-25T12:49:53Z</time></trkpt><trkpt lat="43.89151145897325" lon="10.744152397301903"><ele>42.0</ele><time>2026-04-25T12:49:54Z</time></trkpt><trkpt lat="43.891621184335534" lon="10.744046087947229"><ele>42.0</ele><time>2026-04-25T12:49:55Z</time></trkpt><trkpt lat="43.89172624837013" lon="10.743930110847518"><ele>42.0</ele><time>2026-04-25T12:49:56Z</time></trkpt><trkpt lat="43.89183598708369" lon="10.74382735079478"><ele>42.25</ele><time>2026-04-25T12:49:57Z</time></trkpt><trkpt lat="43.89194222901986" lon="10.743725694859208"><ele>42.5</ele><time>2026-04-25T12:49:58Z</time></trkpt><trkpt lat="43.892048114768095" lon="10.74362987629979"><ele>42.75</ele><time>2026-04-25T12:49:59Z</time></trkpt><trkpt lat="43.89215342522054" lon="10.743542768938518"><ele>43.0</ele><time>2026-04-25T12:50:00Z</time></trkpt><trkpt lat="43.8922641318556" lon="10.743460106503354"><ele>42.5</ele><time>2026-04-25T12:50:01Z</time></trkpt><trkpt lat="43.89238059398414" lon="10.743385242506497"><ele>42.0</ele><time>2026-04-25T12:50:02Z</time></trkpt><trkpt lat="43.892496732013754" lon="10.743320647422921"><ele>41.5</ele><time>2026-04-25T12:50:03Z</time></trkpt><trkpt lat="43.892619718021095" lon="10.74324959139768"><ele>41.0</ele><time>2026-04-25T12:50:04Z</time></trkpt><trkpt lat="43.89274055206147" lon="10.743177621750439"><ele>41.0</ele><time>2026-04-25T12:50:05Z</time></trkpt><trkpt lat="43.892864756602535" lon="10.74310337360115"><ele>41.0</ele><time>2026-04-25T12:50:06Z</time></trkpt><trkpt lat="43.89298842060172" lon="10.74303373981804"><ele>41.0</ele><time>2026-04-25T12:50:07Z</time></trkpt><trkpt lat="43.89311916134018" lon="10.742975169871587"><ele>41.0</ele><time>2026-04-25T12:50:08Z</time></trkpt><trkpt lat="43.893255636884675" lon="10.742940723839398"><ele>41.0</ele><time>2026-04-25T12:50:09Z</time></trkpt><trkpt lat="43.89339196017373" lon="10.742934399739196"><ele>41.0</ele><time>2026-04-25T12:50:10Z</time></trkpt><trkpt lat="43.89353230499162" lon="10.742941719710581"><ele>41.0</ele><time>2026-04-25T12:50:11Z</time></trkpt><trkpt lat="43.89366843353962" lon="10.742943171332728"><ele>41.0</ele><time>2026-04-25T12:50:12Z</time></trkpt><trkpt lat="43.89380822595242" lon="10.742936922039451"><ele>41.5</ele><time>2026-04-25T12:50:13Z</time></trkpt><trkpt lat="43.89395698457123" lon="10.742935480610177"><ele>42.0</ele><time>2026-04-25T12:50:14Z</time></trkpt><trkpt lat="43.89410896612921" lon="10.742930220549"><ele>42.5</ele><time>2026-04-25T12:50:15Z</time></trkpt><trkpt lat="43.89424955646953" lon="10.742917689777956"><ele>43.0</ele><time>2026-04-25T12:50:16Z</time></trkpt><trkpt lat="43.89439089389209" lon="10.742900322791634"><ele>43.0</ele><time>2026-04-25T12:50:17Z</time></trkpt><trkpt lat="43.894532273072286" lon="10.74288034775805"><ele>43.0</ele><time>2026-04-25T12:50:18Z</time></trkpt><trkpt lat="43.89467511460712" lon="10.742852937131964"><ele>43.0</ele><time>2026-04-25T12:50:19Z</time></trkpt><trkpt lat="43.894815946843636" lon="10.74282692656037"><ele>43.0</ele><time>2026-04-25T12:50:20Z</time></trkpt><trkpt lat="43.894955608951534" lon="10.742800318816538"><ele>43.5</ele><time>2026-04-25T12:50:21Z</time></trkpt><trkpt lat="43.89509281664497" lon="10.74277090214114"><ele>44.0</ele><time>2026-04-25T12:50:22Z</time></trkpt><trkpt lat="43.8952375523544" lon="10.742752802069907"><ele>44.5</ele><time>2026-04-25T12:50:23Z</time></trkpt><trkpt lat="43.895382109854786" lon="10.74272792419627"><ele>45.0</ele><time>2026-04-25T12:50:24Z</time></trkpt><trkpt lat="43.89552112429709" lon="10.742709994032339"><ele>45.25</ele><time>2026-04-25T12:50:25Z</time></trkpt><trkpt lat="43.89566029840885" lon="10.742722200194834"><ele>45.5</ele><time>2026-04-25T12:50:26Z</time></trkpt><trkpt lat="43.895798887544075" lon="10.74276448810859"><ele>45.75</ele><time>2026-04-25T12:50:27Z</time></trkpt><trkpt lat="43.89593613222878" lon="10.742813837937975"><ele>46.0</ele><time>2026-04-25T12:50:28Z</time></trkpt><trkpt lat="43.89606917615255" lon="10.742869894005691"><ele>47.5</ele><time>2026-04-25T12:50:29Z</time></trkpt><trkpt lat="43.89619413873128" lon="10.742920744552727"><ele>49.0</ele><time>2026-04-25T12:50:30Z</time></trkpt><trkpt lat="43.89631124289184" lon="10.742965854418268"><ele>50.5</ele><time>2026-04-25T12:50:31Z</time></trkpt><trkpt lat="43.8964282064263" lon="10.743005045363088"><ele>52.0</ele><time>2026-04-25T12:50:32Z</time></trkpt><trkpt lat="43.89654698718876" lon="10.743036968451298"><ele>52.0</ele><time>2026-04-25T12:50:33Z</time></trkpt><trkpt lat="43.896665076268775" lon="10.743074496716355"><ele>52.0</ele><time>2026-04-25T12:50:34Z</time></trkpt><trkpt lat="43.89678385302596" lon="10.74312634821686"><ele>52.0</ele><time>2026-04-25T12:50:35Z</time></trkpt><trkpt lat="43.89688529354463" lon="10.743206455077361"><ele>52.0</ele><time>2026-04-25T12:50:36Z</time></trkpt><trkpt lat="43.89699602501447" lon="10.743261575192289"><ele>53.25</ele><time>2026-04-25T12:50:37Z</time></trkpt><trkpt lat="43.897095005547634" lon="10.74334464403633"><ele>54.5</ele><time>2026-04-25T12:50:38Z</time></trkpt><trkpt lat="43.89719411870855" lon="10.743422683249532"><ele>55.75</ele><time>2026-04-25T12:50:39Z</time></trkpt><trkpt lat="43.89729791465459" lon="10.743481895486772"><ele>57.0</ele><time>2026-04-25T12:50:40Z</time></trkpt><trkpt lat="43.89741080506537" lon="10.743525616549354"><ele>56.6</ele><time>2026-04-25T12:50:41Z</time></trkpt><trkpt lat="43.8975230654762" lon="10.743551812051255"><ele>56.2</ele><time>2026-04-25T12:50:42Z</time></trkpt><trkpt lat="43.89763883736775" lon="10.743561332275563"><ele>55.8</ele><time>2026-04-25T12:50:43Z</time></trkpt><trkpt lat="43.897751172589246" lon="10.743567858792266"><ele>55.4</ele><time>2026-04-25T12:50:44Z</time></trkpt><trkpt lat="43.89784628229985" lon="10.74357994091664"><ele>55.0</ele><time>2026-04-25T12:50:45Z</time></trkpt><trkpt lat="43.89792451796967" lon="10.743593300639214"><ele>56.6</ele><time>2026-04-25T12:50:46Z</time></trkpt><trkpt lat="43.89801536226528" lon="10.74366967597746"><ele>58.2</ele><time>2026-04-25T12:50:48Z</time></trkpt><trkpt lat="43.898015145974114" lon="10.743870674611829"><ele>59.8</ele><time>2026-04-25T12:50:50Z</time></trkpt><trkpt lat="43.898016489393804" lon="10.743976507579381"><ele>61.4</ele><time>2026-04-25T12:50:51Z</time></trkpt><trkpt lat="43.89802022120405" lon="10.744075577007191"><ele>63.0</ele><time>2026-04-25T12:50:52Z</time></trkpt><trkpt lat="43.89806227622675" lon="10.744221854773544"><ele>63.0</ele><time>2026-04-25T12:50:54Z</time></trkpt><trkpt lat="43.898130105077435" lon="10.74425894287799"><ele>63.0</ele><time>2026-04-25T12:50:55Z</time></trkpt><trkpt lat="43.89820808027385" lon="10.744267257753567"><ele>63.0</ele><time>2026-04-25T12:50:56Z</time></trkpt><trkpt lat="43.898292425624994" lon="10.744285362637976"><ele>63.0</ele><time>2026-04-25T12:50:57Z</time></trkpt><trkpt lat="43.89836844584228" lon="10.744322137505131"><ele>63.0</ele><time>2026-04-25T12:50:58Z</time></trkpt><trkpt lat="43.89845000603579" lon="10.744351000465372"><ele>63.0</ele><time>2026-04-25T12:50:59Z</time></trkpt><trkpt lat="43.89852137726524" lon="10.744379183650523"><ele>63.5</ele><time>2026-04-25T12:51:00Z</time></trkpt><trkpt lat="43.89859007341152" lon="10.744393818918802"><ele>64.0</ele><time>2026-04-25T12:51:01Z</time></trkpt><trkpt lat="43.89866661325885" lon="10.7444077881853"><ele>64.5</ele><time>2026-04-25T12:51:02Z</time></trkpt><trkpt lat="43.89875148698588" lon="10.744381822368535"><ele>65.0</ele><time>2026-04-25T12:51:03Z</time></trkpt><trkpt lat="43.89882650752854" lon="10.744335739023464"><ele>65.5</ele><time>2026-04-25T12:51:04.001Z</time></trkpt><trkpt lat="43.89890159503512" lon="10.744277008412757"><ele>66.0</ele><time>2026-04-25T12:51:05.001Z</time></trkpt><trkpt lat="43.89899429426716" lon="10.744212725088378"><ele>66.75</ele><time>2026-04-25T12:51:06.001Z</time></trkpt><trkpt lat="43.89908652081768" lon="10.74413868000703"><ele>67.5</ele><time>2026-04-25T12:51:07.001Z</time></trkpt><trkpt lat="43.899177366662315" lon="10.744054555958554"><ele>68.25</ele><time>2026-04-25T12:51:08.001Z</time></trkpt><trkpt lat="43.89929217390797" lon="10.743978024543784"><ele>69.0</ele><time>2026-04-25T12:51:09.001Z</time></trkpt><trkpt lat="43.899420407033354" lon="10.74390410323403"><ele>70.75</ele><time>2026-04-25T12:51:10.001Z</time></trkpt><trkpt lat="43.89954694723572" lon="10.743839661712494"><ele>72.5</ele><time>2026-04-25T12:51:11.001Z</time></trkpt><trkpt lat="43.899664845732815" lon="10.743774175198624"><ele>74.25</ele><time>2026-04-25T12:51:12.001Z</time></trkpt><trkpt lat="43.899774617165235" lon="10.743682097747616"><ele>76.0</ele><time>2026-04-25T12:51:13.001Z</time></trkpt><trkpt lat="43.89987183891098" lon="10.743570088580935"><ele>77.25</ele><time>2026-04-25T12:51:14.001Z</time></trkpt><trkpt lat="43.89996471074189" lon="10.743448914990411"><ele>78.5</ele><time>2026-04-25T12:51:15.001Z</time></trkpt><trkpt lat="43.90005966251654" lon="10.743337998088887"><ele>79.75</ele><time>2026-04-25T12:51:16.001Z</time></trkpt><trkpt lat="43.90016033213855" lon="10.743238112210124"><ele>81.0</ele><time>2026-04-25T12:51:17.001Z</time></trkpt><trkpt lat="43.900271665319565" lon="10.74315264666364"><ele>82.0</ele><time>2026-04-25T12:51:18.001Z</time></trkpt><trkpt lat="43.90037022267047" lon="10.743063545416293"><ele>83.0</ele><time>2026-04-25T12:51:19.001Z</time></trkpt><trkpt lat="43.90044083849918" lon="10.742957688701066"><ele>84.0</ele><time>2026-04-25T12:51:20.001Z</time></trkpt><trkpt lat="43.90050517979192" lon="10.74284214849632"><ele>85.0</ele><time>2026-04-25T12:51:21.001Z</time></trkpt><trkpt lat="43.90057033995384" lon="10.742756611035626"><ele>86.0</ele><time>2026-04-25T12:51:22.001Z</time></trkpt><trkpt lat="43.90064382830179" lon="10.742667407322074"><ele>87.66666666666667</ele><time>2026-04-25T12:51:23.001Z</time></trkpt><trkpt lat="43.90071653052672" lon="10.742590534472003"><ele>89.33333333333334</ele><time>2026-04-25T12:51:24.001Z</time></trkpt><trkpt lat="43.90076944488718" lon="10.742524662468263"><ele>91.0</ele><time>2026-04-25T12:51:25.001Z</time></trkpt><trkpt lat="43.90078837681962" lon="10.74242613772535"><ele>92.66666666666667</ele><time>2026-04-25T12:51:27.001Z</time></trkpt><trkpt lat="43.90068659683257" lon="10.742415503243732"><ele>94.33333333333333</ele><time>2026-04-25T12:51:29.001Z</time></trkpt><trkpt lat="43.900603322726745" lon="10.742433412309913"><ele>96.0</ele><time>2026-04-25T12:51:31.001Z</time></trkpt><trkpt lat="43.90044306290686" lon="10.742421305214505"><ele>96.0</ele><time>2026-04-25T12:51:33.001Z</time></trkpt><trkpt lat="43.900392028871686" lon="10.742317018424584"><ele>96.0</ele><time>2026-04-25T12:51:35.001Z</time></trkpt><trkpt lat="43.90047041441984" lon="10.742235200558582"><ele>96.0</ele><time>2026-04-25T12:51:37.001Z</time></trkpt><trkpt lat="43.90057232639911" lon="10.742171789647013"><ele>96.0</ele><time>2026-04-25T12:51:39Z</time></trkpt><trkpt lat="43.9006264121248" lon="10.742049418845765"><ele>96.0</ele><time>2026-04-25T12:51:41Z</time></trkpt><trkpt lat="43.9005930938593" lon="10.741913718579953"><ele>98.6</ele><time>2026-04-25T12:51:43Z</time></trkpt><trkpt lat="43.90058788631995" lon="10.741791239852478"><ele>101.19999999999999</ele><time>2026-04-25T12:51:45Z</time></trkpt><trkpt lat="43.90067164976838" lon="10.741680384055122"><ele>103.80000000000001</ele><time>2026-04-25T12:51:47Z</time></trkpt><trkpt lat="43.90072059174113" lon="10.741599658269424"><ele>106.4</ele><time>2026-04-25T12:51:48Z</time></trkpt><trkpt lat="43.900777967500744" lon="10.741486857077074"><ele>109.0</ele><time>2026-04-25T12:51:49Z</time></trkpt><trkpt lat="43.900854971637344" lon="10.741355351151727"><ele>112.0</ele><time>2026-04-25T12:51:50Z</time></trkpt><trkpt lat="43.900925331274046" lon="10.741241000650446"><ele>115.0</ele><time>2026-04-25T12:51:51Z</time></trkpt><trkpt lat="43.90099793871888" lon="10.741134171464235"><ele>118.0</ele><time>2026-04-25T12:51:52Z</time></trkpt><trkpt lat="43.90105547330879" lon="10.741058931767235"><ele>121.0</ele><time>2026-04-25T12:51:53Z</time></trkpt><trkpt lat="43.901122950283295" lon="10.741003900342486"><ele>124.0</ele><time>2026-04-25T12:51:54Z</time></trkpt><trkpt lat="43.9012021732653" lon="10.740966882189142"><ele>124.0</ele><time>2026-04-25T12:51:55Z</time></trkpt><trkpt lat="43.90128554855866" lon="10.740920464679945"><ele>124.0</ele><time>2026-04-25T12:51:56Z</time></trkpt><trkpt lat="43.901389661904396" lon="10.740892057812712"><ele>124.0</ele><time>2026-04-25T12:51:57Z</time></trkpt><trkpt lat="43.90146917340719" lon="10.740838275438541"><ele>124.0</ele><time>2026-04-25T12:51:58Z</time></trkpt><trkpt lat="43.90155446591205" lon="10.74079648294883"><ele>124.0</ele><time>2026-04-25T12:51:59Z</time></trkpt><trkpt lat="43.90163123750152" lon="10.740745714114434"><ele>124.0</ele><time>2026-04-25T12:52:00Z</time></trkpt><trkpt lat="43.90169420962977" lon="10.740677976341686"><ele>124.0</ele><time>2026-04-25T12:52:01Z</time></trkpt><trkpt lat="43.90175562831441" lon="10.740616263033834"><ele>124.0</ele><time>2026-04-25T12:52:02Z</time></trkpt><trkpt lat="43.90180956975592" lon="10.740568968466222"><ele>124.0</ele><time>2026-04-25T12:52:03Z</time></trkpt><trkpt lat="43.90185836589282" lon="10.740427339716739"><ele>124.0</ele><time>2026-04-25T12:52:05Z</time></trkpt><trkpt lat="43.90181769473512" lon="10.740270191007202"><ele>129.0</ele><time>2026-04-25T12:52:07Z</time></trkpt><trkpt lat="43.90182088444045" lon="10.740176631706564"><ele>134.0</ele><time>2026-04-25T12:52:08Z</time></trkpt><trkpt lat="43.90185301348419" lon="10.740079853281888"><ele>139.0</ele><time>2026-04-25T12:52:09Z</time></trkpt><trkpt lat="43.901876178252024" lon="10.739986347217805"><ele>144.0</ele><time>2026-04-25T12:52:10Z</time></trkpt><trkpt lat="43.90195445436969" lon="10.739849698837233"><ele>149.0</ele><time>2026-04-25T12:52:12Z</time></trkpt><trkpt lat="43.90196375593656" lon="10.739698644075682"><ele>149.0</ele><time>2026-04-25T12:52:14Z</time></trkpt><trkpt lat="43.901936647951636" lon="10.739550523877336"><ele>149.0</ele><time>2026-04-25T12:52:16Z</time></trkpt><trkpt lat="43.90189901432332" lon="10.739397007846716"><ele>149.0</ele><time>2026-04-25T12:52:18Z</time></trkpt><trkpt lat="43.901859413348845" lon="10.739261010936403"><ele>149.0</ele><time>2026-04-25T12:52:20Z</time></trkpt><trkpt lat="43.90183269473827" lon="10.739145414881566"><ele>149.0</ele><time>2026-04-25T12:52:22Z</time></trkpt><trkpt lat="43.901798976618934" lon="10.739024860028799"><ele>148.8</ele><time>2026-04-25T12:52:24Z</time></trkpt><trkpt lat="43.90183220135595" lon="10.738855501238145"><ele>148.60000000000002</ele><time>2026-04-25T12:52:26Z</time></trkpt><trkpt lat="43.90187243943452" lon="10.738760995727219"><ele>148.4</ele><time>2026-04-25T12:52:27Z</time></trkpt><trkpt lat="43.90193631017073" lon="10.73865805214624"><ele>148.20000000000002</ele><time>2026-04-25T12:52:28Z</time></trkpt><trkpt lat="43.90191884469627" lon="10.738503593367057"><ele>148.0</ele><time>2026-04-25T12:52:30Z</time></trkpt><trkpt lat="43.90190007493322" lon="10.738397977480291"><ele>145.8</ele><time>2026-04-25T12:52:32Z</time></trkpt><trkpt lat="43.90174543249589" lon="10.738372938781476"><ele>143.60000000000002</ele><time>2026-04-25T12:52:33Z</time></trkpt><trkpt lat="43.901648438561935" lon="10.738354595818919"><ele>141.39999999999998</ele><time>2026-04-25T12:52:34Z</time></trkpt><trkpt lat="43.901550515967685" lon="10.738311990456447"><ele>139.2</ele><time>2026-04-25T12:52:35Z</time></trkpt><trkpt lat="43.9014769674097" lon="10.73829438426961"><ele>137.0</ele><time>2026-04-25T12:52:36Z</time></trkpt><trkpt lat="43.90140514168968" lon="10.738259935834462"><ele>137.0</ele><time>2026-04-25T12:52:37Z</time></trkpt><trkpt lat="43.90134645876789" lon="10.738212566605016"><ele>137.0</ele><time>2026-04-25T12:52:38Z</time></trkpt><trkpt lat="43.90129118330121" lon="10.738148921017793"><ele>137.0</ele><time>2026-04-25T12:52:39Z</time></trkpt><trkpt lat="43.90122699908076" lon="10.738089453840992"><ele>137.0</ele><time>2026-04-25T12:52:40Z</time></trkpt><trkpt lat="43.901164757364576" lon="10.738004893234859"><ele>137.0</ele><time>2026-04-25T12:52:42Z</time></trkpt><trkpt lat="43.901193362666056" lon="10.737903615025454"><ele>137.0</ele><time>2026-04-25T12:52:44Z</time></trkpt><trkpt lat="43.90125298806868" lon="10.737754139182831"><ele>138.85714285714286</ele><time>2026-04-25T12:52:46Z</time></trkpt><trkpt lat="43.901271427807735" lon="10.737664442463164"><ele>140.71428571428572</ele><time>2026-04-25T12:52:47Z</time></trkpt><trkpt lat="43.901280627510936" lon="10.737561165100631"><ele>142.57142857142856</ele><time>2026-04-25T12:52:48Z</time></trkpt><trkpt lat="43.90128076977655" lon="10.737461043623977"><ele>144.42857142857144</ele><time>2026-04-25T12:52:49Z</time></trkpt><trkpt lat="43.90128359097597" lon="10.737360500239657"><ele>146.28571428571428</ele><time>2026-04-25T12:52:50Z</time></trkpt><trkpt lat="43.90129660413797" lon="10.737259842059657"><ele>148.14285714285714</ele><time>2026-04-25T12:52:51Z</time></trkpt><trkpt lat="43.90129907398488" lon="10.737156638704437"><ele>150.0</ele><time>2026-04-25T12:52:52Z</time></trkpt><trkpt lat="43.90129274394895" lon="10.737055209062184"><ele>149.99999999999997</ele><time>2026-04-25T12:52:53Z</time></trkpt><trkpt lat="43.90129331920479" lon="10.736957493441375"><ele>150.0</ele><time>2026-04-25T12:52:54Z</time></trkpt><trkpt lat="43.90130378455639" lon="10.73686064695629"><ele>150.0</ele><time>2026-04-25T12:52:55Z</time></trkpt><trkpt lat="43.901329488186306" lon="10.736770487075859"><ele>150.0</ele><time>2026-04-25T12:52:56Z</time></trkpt><trkpt lat="43.9013648684205" lon="10.736684829861147"><ele>150.0</ele><time>2026-04-25T12:52:57Z</time></trkpt><trkpt lat="43.9013898057098" lon="10.736599953524065"><ele>149.99999999999997</ele><time>2026-04-25T12:52:58Z</time></trkpt><trkpt lat="43.90138891611277" lon="10.736512444722264"><ele>150.0</ele><time>2026-04-25T12:52:59Z</time></trkpt><trkpt lat="43.901381307275045" lon="10.73642244985595"><ele>150.7142857142857</ele><time>2026-04-25T12:53:00Z</time></trkpt><trkpt lat="43.901335803547" lon="10.736333484081781"><ele>151.42857142857142</ele><time>2026-04-25T12:53:01Z</time></trkpt><trkpt lat="43.90130287230966" lon="10.736247500328478"><ele>152.14285714285714</ele><time>2026-04-25T12:53:02Z</time></trkpt><trkpt lat="43.90125511885275" lon="10.736180892565699"><ele>152.85714285714283</ele><time>2026-04-25T12:53:03Z</time></trkpt><trkpt lat="43.90118658262694" lon="10.736160228137418"><ele>153.57142857142856</ele><time>2026-04-25T12:53:04Z</time></trkpt><trkpt lat="43.90111256706441" lon="10.736192570644508"><ele>154.28571428571428</ele><time>2026-04-25T12:53:05Z</time></trkpt><trkpt lat="43.90105093752923" lon="10.736216001719106"><ele>155.0</ele><time>2026-04-25T12:53:06Z</time></trkpt><trkpt lat="43.90100427323599" lon="10.736104376340384"><ele>154.66666666666666</ele><time>2026-04-25T12:53:08Z</time></trkpt><trkpt lat="43.900981304116286" lon="10.73600239380008"><ele>154.33333333333331</ele><time>2026-04-25T12:53:09Z</time></trkpt><trkpt lat="43.90098858698803" lon="10.735910508400822"><ele>154.0</ele><time>2026-04-25T12:53:10Z</time></trkpt><trkpt lat="43.90096159918904" lon="10.735826022399303"><ele>153.66666666666666</ele><time>2026-04-25T12:53:11Z</time></trkpt><trkpt lat="43.900920944545184" lon="10.735746364685467"><ele>153.33333333333334</ele><time>2026-04-25T12:53:12Z</time></trkpt><trkpt lat="43.900873023469" lon="10.735616300945399"><ele>153.0</ele><time>2026-04-25T12:53:14Z</time></trkpt><trkpt lat="43.900763633917926" lon="10.735546940682068"><ele>153.0</ele><time>2026-04-25T12:53:16Z</time></trkpt><trkpt lat="43.90070708104804" lon="10.735507613967975"><ele>153.0</ele><time>2026-04-25T12:53:17Z</time></trkpt><trkpt lat="43.90060530105023" lon="10.735439165638898"><ele>153.0</ele><time>2026-04-25T12:53:19Z</time></trkpt><trkpt lat="43.9006272290996" lon="10.7353158519211"><ele>153.0</ele><time>2026-04-25T12:53:22Z</time></trkpt><trkpt lat="43.90067291150985" lon="10.735250435521307"><ele>153.0</ele><time>2026-04-25T12:53:23Z</time></trkpt><trkpt lat="43.90075898166341" lon="10.735102072845748"><ele>155.66666666666666</ele><time>2026-04-25T12:53:25Z</time></trkpt><trkpt lat="43.90081767426462" lon="10.735000521977655"><ele>158.33333333333334</ele><time>2026-04-25T12:53:26Z</time></trkpt><trkpt lat="43.90087176752201" lon="10.734894620874911"><ele>161.0</ele><time>2026-04-25T12:53:27Z</time></trkpt><trkpt lat="43.90091265822443" lon="10.734819205557931"><ele>163.66666666666669</ele><time>2026-04-25T12:53:28Z</time></trkpt><trkpt lat="43.90082448261073" lon="10.734755318374598"><ele>166.33333333333334</ele><time>2026-04-25T12:53:32Z</time></trkpt><trkpt lat="43.90075138514881" lon="10.734745377154175"><ele>169.0</ele><time>2026-04-25T12:53:34Z</time></trkpt><trkpt lat="43.90082473575676" lon="10.734687773325255"><ele>170.83333333333334</ele><time>2026-04-25T12:53:40Z</time></trkpt><trkpt lat="43.90094184692088" lon="10.734693049834044"><ele>172.66666666666669</ele><time>2026-04-25T12:53:42Z</time></trkpt><trkpt lat="43.90100575213772" lon="10.734662490426162"><ele>174.5</ele><time>2026-04-25T12:53:43Z</time></trkpt><trkpt lat="43.90107134962838" lon="10.734605109197075"><ele>176.33333333333334</ele><time>2026-04-25T12:53:44Z</time></trkpt><trkpt lat="43.90112780540274" lon="10.734542214846238"><ele>178.16666666666666</ele><time>2026-04-25T12:53:45Z</time></trkpt><trkpt lat="43.90119104187037" lon="10.73448909473774"><ele>180.0</ele><time>2026-04-25T12:53:46Z</time></trkpt><trkpt lat="43.90124849482336" lon="10.73439840815456"><ele>180.83333333333334</ele><time>2026-04-25T12:53:48Z</time></trkpt><trkpt lat="43.90122381850407" lon="10.73426581418078"><ele>181.66666666666666</ele><time>2026-04-25T12:53:50Z</time></trkpt><trkpt lat="43.90117391083623" lon="10.73420681436362"><ele>182.5</ele><time>2026-04-25T12:53:51Z</time></trkpt><trkpt lat="43.901104589493656" lon="10.734063708139137"><ele>183.33333333333331</ele><time>2026-04-25T12:53:53Z</time></trkpt><trkpt lat="43.90107787500968" lon="10.73398206643128"><ele>184.16666666666666</ele><time>2026-04-25T12:53:54Z</time></trkpt><trkpt lat="43.90105839092601" lon="10.733884492236276"><ele>185.0</ele><time>2026-04-25T12:53:55Z</time></trkpt><trkpt lat="43.90100580767965" lon="10.733742208744166"><ele>185.0</ele><time>2026-04-25T12:53:57Z</time></trkpt><trkpt lat="43.901009340982974" lon="10.7336425146666"><ele>185.0</ele><time>2026-04-25T12:53:58Z</time></trkpt><trkpt lat="43.901040505618894" lon="10.733518267980878"><ele>185.0</ele><time>2026-04-25T12:54:00Z</time></trkpt><trkpt lat="43.9010840125032" lon="10.733420356686791"><ele>185.0</ele><time>2026-04-25T12:54:01Z</time></trkpt><trkpt lat="43.90112493763031" lon="10.733309369007122"><ele>185.0</ele><time>2026-04-25T12:54:02Z</time></trkpt><trkpt lat="43.90117052399726" lon="10.733188074043424"><ele>185.0</ele><time>2026-04-25T12:54:03Z</time></trkpt><trkpt lat="43.901198767382645" lon="10.733060483957415"><ele>185.0</ele><time>2026-04-25T12:54:04Z</time></trkpt><trkpt lat="43.90122575235429" lon="10.732939615244916"><ele>185.0</ele><time>2026-04-25T12:54:05Z</time></trkpt><trkpt lat="43.90125897402966" lon="10.732849166319077"><ele>185.0</ele><time>2026-04-25T12:54:06Z</time></trkpt><trkpt lat="43.90130750824924" lon="10.732757805074957"><ele>185.0</ele><time>2026-04-25T12:54:07Z</time></trkpt><trkpt lat="43.901371633654364" lon="10.732666224170682"><ele>185.0</ele><time>2026-04-25T12:54:08Z</time></trkpt><trkpt lat="43.901422863875275" lon="10.732598584658492"><ele>185.0</ele><time>2026-04-25T12:54:09Z</time></trkpt><trkpt lat="43.90149057357271" lon="10.732541806734053"><ele>187.33333333333331</ele><time>2026-04-25T12:54:10Z</time></trkpt><trkpt lat="43.9015681301697" lon="10.732494581667382"><ele>189.66666666666666</ele><time>2026-04-25T12:54:11Z</time></trkpt><trkpt lat="43.901645787433836" lon="10.732438167118366"><ele>192.0</ele><time>2026-04-25T12:54:12Z</time></trkpt><trkpt lat="43.90170421243816" lon="10.732352447946695"><ele>194.33333333333331</ele><time>2026-04-25T12:54:13Z</time></trkpt><trkpt lat="43.90176923402204" lon="10.732288438476656"><ele>196.66666666666666</ele><time>2026-04-25T12:54:14Z</time></trkpt><trkpt lat="43.90183781986639" lon="10.73219514566131"><ele>199.0</ele><time>2026-04-25T12:54:15Z</time></trkpt><trkpt lat="43.90190675200118" lon="10.732108371809659"><ele>198.99999999999997</ele><time>2026-04-25T12:54:16Z</time></trkpt><trkpt lat="43.901972830297154" lon="10.73201823028768"><ele>199.0</ele><time>2026-04-25T12:54:17Z</time></trkpt><trkpt lat="43.902039577621245" lon="10.731931226328074"><ele>199.0</ele><time>2026-04-25T12:54:18Z</time></trkpt><trkpt lat="43.90210848940984" lon="10.731857156398046"><ele>199.0</ele><time>2026-04-25T12:54:19Z</time></trkpt><trkpt lat="43.902174427281004" lon="10.731790552439387"><ele>198.99999999999997</ele><time>2026-04-25T12:54:20Z</time></trkpt><trkpt lat="43.90224077815279" lon="10.731730017870348"><ele>199.0</ele><time>2026-04-25T12:54:21Z</time></trkpt><trkpt lat="43.90232004392724" lon="10.731698724107"><ele>197.33333333333331</ele><time>2026-04-25T12:54:22Z</time></trkpt><trkpt lat="43.90239844215711" lon="10.731685971370135"><ele>195.66666666666666</ele><time>2026-04-25T12:54:23Z</time></trkpt><trkpt lat="43.90247644865517" lon="10.731680687408398"><ele>194.0</ele><time>2026-04-25T12:54:24Z</time></trkpt><trkpt lat="43.902560505426344" lon="10.731657813827951"><ele>192.33333333333331</ele><time>2026-04-25T12:54:25Z</time></trkpt><trkpt lat="43.902652787511286" lon="10.731633057048725"><ele>190.66666666666666</ele><time>2026-04-25T12:54:26Z</time></trkpt><trkpt lat="43.90273044555808" lon="10.731605809850647"><ele>189.0</ele><time>2026-04-25T12:54:27Z</time></trkpt><trkpt lat="43.90279995082414" lon="10.731566731943992"><ele>189.0</ele><time>2026-04-25T12:54:28Z</time></trkpt><trkpt lat="43.90285540345116" lon="10.731500713209156"><ele>189.0</ele><time>2026-04-25T12:54:29Z</time></trkpt><trkpt lat="43.90290908022608" lon="10.731439670853948"><ele>189.0</ele><time>2026-04-25T12:54:30Z</time></trkpt><trkpt lat="43.90300298829605" lon="10.731404022163243"><ele>189.0</ele><time>2026-04-25T12:54:31Z</time></trkpt><trkpt lat="43.90306781951111" lon="10.731442287177202"><ele>189.0</ele><time>2026-04-25T12:54:33Z</time></trkpt><trkpt lat="43.90314871973541" lon="10.73138895417673"><ele>189.0</ele><time>2026-04-25T12:54:35Z</time></trkpt><trkpt lat="43.903176630398704" lon="10.731291871505489"><ele>189.0</ele><time>2026-04-25T12:54:36Z</time></trkpt><trkpt lat="43.90320813412435" lon="10.731195386608782"><ele>189.0</ele><time>2026-04-25T12:54:37Z</time></trkpt><trkpt lat="43.90325646354263" lon="10.731012444711515"><ele>189.0</ele><time>2026-04-25T12:54:38Z</time></trkpt><trkpt lat="43.90326357884598" lon="10.730852294772214"><ele>189.0</ele><time>2026-04-25T12:54:39Z</time></trkpt><trkpt lat="43.90328923945613" lon="10.730744772298792"><ele>189.0</ele><time>2026-04-25T12:54:40Z</time></trkpt><trkpt lat="43.90331806992175" lon="10.73066441548997"><ele>192.2</ele><time>2026-04-25T12:54:41Z</time></trkpt><trkpt lat="43.90342461495027" lon="10.7305637611706"><ele>195.39999999999998</ele><time>2026-04-25T12:54:43Z</time></trkpt><trkpt lat="43.90348842469432" lon="10.730518106208356"><ele>198.6</ele><time>2026-04-25T12:54:44Z</time></trkpt><trkpt lat="43.90356146770839" lon="10.730453598957556"><ele>201.8</ele><time>2026-04-25T12:54:45Z</time></trkpt><trkpt lat="43.903617179579406" lon="10.73038007176686"><ele>205.0</ele><time>2026-04-25T12:54:46Z</time></trkpt><trkpt lat="43.90363006334919" lon="10.730259881037597"><ele>200.33333333333331</ele><time>2026-04-25T12:54:47Z</time></trkpt><trkpt lat="43.90365598025588" lon="10.730156355698826"><ele>195.66666666666666</ele><time>2026-04-25T12:54:48Z</time></trkpt><trkpt lat="43.90369150147956" lon="10.73006357289392"><ele>191.0</ele><time>2026-04-25T12:54:49Z</time></trkpt><trkpt lat="43.90372402451796" lon="10.729978927241154"><ele>186.33333333333331</ele><time>2026-04-25T12:54:50Z</time></trkpt><trkpt lat="43.90381806103458" lon="10.729864220974282"><ele>181.66666666666666</ele><time>2026-04-25T12:54:52Z</time></trkpt><trkpt lat="43.90388525646967" lon="10.729844328058581"><ele>177.0</ele><time>2026-04-25T12:54:53Z</time></trkpt><trkpt lat="43.90395256681646" lon="10.729829373131297"><ele>177.0</ele><time>2026-04-25T12:54:54Z</time></trkpt><trkpt lat="43.90401887317426" lon="10.729809643782898"><ele>177.0</ele><time>2026-04-25T12:54:55Z</time></trkpt><trkpt lat="43.90408447654675" lon="10.729790829323097"><ele>177.0</ele><time>2026-04-25T12:54:56Z</time></trkpt><trkpt lat="43.90414937939228" lon="10.729775128498822"><ele>177.0</ele><time>2026-04-25T12:54:57Z</time></trkpt><trkpt lat="43.90420747964263" lon="10.729731439795415"><ele>177.0</ele><time>2026-04-25T12:54:58Z</time></trkpt><trkpt lat="43.90425606669935" lon="10.729664786780496"><ele>177.0</ele><time>2026-04-25T12:54:59Z</time></trkpt><trkpt lat="43.90434639290632" lon="10.72965290905031"><ele>177.0</ele><time>2026-04-25T12:55:00Z</time></trkpt><trkpt lat="43.904437899520076" lon="10.72966100778473"><ele>178.14285714285714</ele><time>2026-04-25T12:55:02Z</time></trkpt><trkpt lat="43.90450068165642" lon="10.729671119097087"><ele>179.28571428571428</ele><time>2026-04-25T12:55:03Z</time></trkpt><trkpt lat="43.90456602844692" lon="10.72967480323528"><ele>180.42857142857142</ele><time>2026-04-25T12:55:04Z</time></trkpt><trkpt lat="43.90464463221927" lon="10.729682406793383"><ele>181.57142857142856</ele><time>2026-04-25T12:55:05Z</time></trkpt><trkpt lat="43.90471512130165" lon="10.729671382157735"><ele>182.71428571428572</ele><time>2026-04-25T12:55:06Z</time></trkpt><trkpt lat="43.90478699937531" lon="10.729692780666863"><ele>183.85714285714283</ele><time>2026-04-25T12:55:07Z</time></trkpt><trkpt lat="43.90485670167174" lon="10.729732776309843"><ele>185.0</ele><time>2026-04-25T12:55:08Z</time></trkpt><trkpt lat="43.9049285822391" lon="10.729790798227453"><ele>185.0</ele><time>2026-04-25T12:55:09Z</time></trkpt><trkpt lat="43.904996160352255" lon="10.729856381634528"><ele>185.0</ele><time>2026-04-25T12:55:10Z</time></trkpt><trkpt lat="43.905079661334696" lon="10.729938662478482"><ele>185.0</ele><time>2026-04-25T12:55:11Z</time></trkpt><trkpt lat="43.90515396456609" lon="10.729969588281518"><ele>185.0</ele><time>2026-04-25T12:55:12Z</time></trkpt><trkpt lat="43.90524075078089" lon="10.729995289630775"><ele>185.0</ele><time>2026-04-25T12:55:13Z</time></trkpt><trkpt lat="43.90531619104433" lon="10.730042329021643"><ele>185.0</ele><time>2026-04-25T12:55:14Z</time></trkpt><trkpt lat="43.9053724383384" lon="10.730084135372287"><ele>185.2</ele><time>2026-04-25T12:55:15Z</time></trkpt><trkpt lat="43.90544852974055" lon="10.730173044227106"><ele>185.4</ele><time>2026-04-25T12:55:17Z</time></trkpt><trkpt lat="43.90552027963583" lon="10.730133616342878"><ele>185.60000000000002</ele><time>2026-04-25T12:55:18Z</time></trkpt><trkpt lat="43.90563833432691" lon="10.730059744347107"><ele>185.8</ele><time>2026-04-25T12:55:20Z</time></trkpt><trkpt lat="43.9057195926807" lon="10.730084306903168"><ele>186.0</ele><time>2026-04-25T12:55:21Z</time></trkpt><trkpt lat="43.905813557257595" lon="10.730038722824272"><ele>186.0</ele><time>2026-04-25T12:55:22Z</time></trkpt><trkpt lat="43.90586700038952" lon="10.729982262805011"><ele>186.0</ele><time>2026-04-25T12:55:23Z</time></trkpt><trkpt lat="43.90594472812732" lon="10.729871269980045"><ele>186.0</ele><time>2026-04-25T12:55:24Z</time></trkpt><trkpt lat="43.90597016847896" lon="10.729740013117015"><ele>186.0</ele><time>2026-04-25T12:55:26Z</time></trkpt><trkpt lat="43.90601630562467" lon="10.72967432669617"><ele>186.0</ele><time>2026-04-25T12:55:27Z</time></trkpt><trkpt lat="43.9060684676585" lon="10.729622507153454"><ele>186.0</ele><time>2026-04-25T12:55:28Z</time></trkpt><trkpt lat="43.90610970372011" lon="10.72954648580147"><ele>186.0</ele><time>2026-04-25T12:55:29Z</time></trkpt><trkpt lat="43.906178791700945" lon="10.729466125144524"><ele>186.0</ele><time>2026-04-25T12:55:30Z</time></trkpt><trkpt lat="43.90627335382889" lon="10.72940148218729"><ele>186.0</ele><time>2026-04-25T12:55:32Z</time></trkpt><trkpt lat="43.90638359629751" lon="10.729336802298121"><ele>186.0</ele><time>2026-04-25T12:55:34Z</time></trkpt><trkpt lat="43.90644735564925" lon="10.729300842937526"><ele>186.0</ele><time>2026-04-25T12:55:35Z</time></trkpt><trkpt lat="43.90655831042195" lon="10.729337750968917"><ele>187.5</ele><time>2026-04-25T12:55:37Z</time></trkpt><trkpt lat="43.9066389068536" lon="10.729453960270364"><ele>189.0</ele><time>2026-04-25T12:55:39Z</time></trkpt><trkpt lat="43.90667930901815" lon="10.729526398769757"><ele>190.5</ele><time>2026-04-25T12:55:40Z</time></trkpt><trkpt lat="43.90671348765394" lon="10.72960223682759"><ele>192.0</ele><time>2026-04-25T12:55:41Z</time></trkpt><trkpt lat="43.90676282875729" lon="10.729674897969117"><ele>193.5</ele><time>2026-04-25T12:55:42Z</time></trkpt><trkpt lat="43.90680538109735" lon="10.729757041544746"><ele>195.0</ele><time>2026-04-25T12:55:43Z</time></trkpt><trkpt lat="43.906855481821246" lon="10.72983024222162"><ele>195.0</ele><time>2026-04-25T12:55:44Z</time></trkpt><trkpt lat="43.90692285896758" lon="10.729880307959828"><ele>195.0</ele><time>2026-04-25T12:55:45Z</time></trkpt><trkpt lat="43.90698549792592" lon="10.72993163895989"><ele>195.0</ele><time>2026-04-25T12:55:46Z</time></trkpt><trkpt lat="43.907121938910464" lon="10.729993178146318"><ele>195.0</ele><time>2026-04-25T12:55:48Z</time></trkpt><trkpt lat="43.907206498650154" lon="10.730018919985435"><ele>195.0</ele><time>2026-04-25T12:55:49Z</time></trkpt><trkpt lat="43.90726094012852" lon="10.730095243796297"><ele>195.0</ele><time>2026-04-25T12:55:50Z</time></trkpt><trkpt lat="43.90732029704453" lon="10.7301499416638"><ele>195.0</ele><time>2026-04-25T12:55:51Z</time></trkpt><trkpt lat="43.90736896782411" lon="10.730218395143309"><ele>195.0</ele><time>2026-04-25T12:55:52Z</time></trkpt><trkpt lat="43.907496471923125" lon="10.730252486709269"><ele>195.0</ele><time>2026-04-25T12:55:54Z</time></trkpt><trkpt lat="43.907597754930194" lon="10.730265116969425"><ele>195.0</ele><time>2026-04-25T12:55:55Z</time></trkpt><trkpt lat="43.90766782894994" lon="10.730286206073023"><ele>195.0</ele><time>2026-04-25T12:55:56Z</time></trkpt><trkpt lat="43.907782323459884" lon="10.730326861005594"><ele>196.16666666666666</ele><time>2026-04-25T12:55:58Z</time></trkpt><trkpt lat="43.90785482362624" lon="10.730347730701782"><ele>197.33333333333331</ele><time>2026-04-25T12:55:59Z</time></trkpt><trkpt lat="43.90792784618665" lon="10.730300163196151"><ele>198.5</ele><time>2026-04-25T12:56:00Z</time></trkpt><trkpt lat="43.90802868133321" lon="10.730247078732324"><ele>199.66666666666666</ele><time>2026-04-25T12:56:02Z</time></trkpt><trkpt lat="43.908099914978926" lon="10.730200110133127"><ele>200.83333333333331</ele><time>2026-04-25T12:56:03Z</time></trkpt><trkpt lat="43.9081726149181" lon="10.730156386288634"><ele>202.0</ele><time>2026-04-25T12:56:04Z</time></trkpt><trkpt lat="43.90825117405054" lon="10.730127673604791"><ele>202.0</ele><time>2026-04-25T12:56:05Z</time></trkpt><trkpt lat="43.90836891104599" lon="10.730089520915044"><ele>202.0</ele><time>2026-04-25T12:56:06Z</time></trkpt><trkpt lat="43.90847489647558" lon="10.73008340146404"><ele>202.0</ele><time>2026-04-25T12:56:07Z</time></trkpt><trkpt lat="43.90856694335935" lon="10.730082321821223"><ele>202.0</ele><time>2026-04-25T12:56:08Z</time></trkpt><trkpt lat="43.908709001199" lon="10.730149242807899"><ele>203.83333333333331</ele><time>2026-04-25T12:56:09Z</time></trkpt><trkpt lat="43.90880720069143" lon="10.73019946681058"><ele>205.66666666666666</ele><time>2026-04-25T12:56:10Z</time></trkpt><trkpt lat="43.908891687875126" lon="10.730238274060964"><ele>207.5</ele><time>2026-04-25T12:56:11Z</time></trkpt><trkpt lat="43.9089659860601" lon="10.730276076839031"><ele>209.33333333333331</ele><time>2026-04-25T12:56:12Z</time></trkpt><trkpt lat="43.90903389072263" lon="10.730302896980524"><ele>211.16666666666666</ele><time>2026-04-25T12:56:13Z</time></trkpt><trkpt lat="43.90910165249437" lon="10.730331716628084"><ele>213.0</ele><time>2026-04-25T12:56:14Z</time></trkpt><trkpt lat="43.9091665552889" lon="10.730304922292634"><ele>213.83333333333334</ele><time>2026-04-25T12:56:16Z</time></trkpt><trkpt lat="43.90912749617244" lon="10.730196294795174"><ele>214.66666666666669</ele><time>2026-04-25T12:56:18Z</time></trkpt><trkpt lat="43.90908316945077" lon="10.730129029808763"><ele>215.5</ele><time>2026-04-25T12:56:19Z</time></trkpt><trkpt lat="43.90902754638605" lon="10.730026272311596"><ele>216.33333333333334</ele><time>2026-04-25T12:56:20Z</time></trkpt><trkpt lat="43.908960475752224" lon="10.729963588854087"><ele>217.16666666666669</ele><time>2026-04-25T12:56:21Z</time></trkpt><trkpt lat="43.90890923232262" lon="10.729909492800617"><ele>218.0</ele><time>2026-04-25T12:56:22Z</time></trkpt><trkpt lat="43.90883571563257" lon="10.729873885970107"><ele>218.00000000000003</ele><time>2026-04-25T12:56:23Z</time></trkpt><trkpt lat="43.908726308489776" lon="10.729796877234586"><ele>218.0</ele><time>2026-04-25T12:56:25Z</time></trkpt><trkpt lat="43.90865704301542" lon="10.729747907836291"><ele>218.0</ele><time>2026-04-25T12:56:26Z</time></trkpt><trkpt lat="43.90858518924776" lon="10.72970093717423"><ele>218.0</ele><time>2026-04-25T12:56:27Z</time></trkpt><trkpt lat="43.9085216613439" lon="10.729674873339675"><ele>218.00000000000003</ele><time>2026-04-25T12:56:28Z</time></trkpt><trkpt lat="43.90842532730054" lon="10.729685067594351"><ele>218.0</ele><time>2026-04-25T12:56:30Z</time></trkpt><trkpt lat="43.908313056295064" lon="10.729634776506938"><ele>217.66666666666669</ele><time>2026-04-25T12:56:32Z</time></trkpt><trkpt lat="43.90820065622227" lon="10.729548059168044"><ele>217.33333333333334</ele><time>2026-04-25T12:56:34Z</time></trkpt><trkpt lat="43.90812975837654" lon="10.729490322469617"><ele>217.0</ele><time>2026-04-25T12:56:35Z</time></trkpt><trkpt lat="43.90805991981897" lon="10.729453234958429"><ele>216.66666666666669</ele><time>2026-04-25T12:56:36Z</time></trkpt><trkpt lat="43.907982358988875" lon="10.729410531492054"><ele>216.33333333333334</ele><time>2026-04-25T12:56:37Z</time></trkpt><trkpt lat="43.90792448769912" lon="10.729346384659216"><ele>216.0</ele><time>2026-04-25T12:56:38Z</time></trkpt><trkpt lat="43.907863321023555" lon="10.729320550673139"><ele>216.0</ele><time>2026-04-25T12:56:39Z</time></trkpt><trkpt lat="43.907810543393474" lon="10.729265350785823"><ele>216.00000000000003</ele><time>2026-04-25T12:56:40Z</time></trkpt><trkpt lat="43.907746446158754" lon="10.729158462696342"><ele>216.00000000000003</ele><time>2026-04-25T12:56:42Z</time></trkpt><trkpt lat="43.907759179707234" lon="10.729023763890655"><ele>216.0</ele><time>2026-04-25T12:56:44Z</time></trkpt><trkpt lat="43.907853874964054" lon="10.72893236036988"><ele>216.0</ele><time>2026-04-25T12:56:46Z</time></trkpt><trkpt lat="43.90796017490045" lon="10.72887293670954"><ele>216.0</ele><time>2026-04-25T12:56:48Z</time></trkpt><trkpt lat="43.90802046262636" lon="10.728835378476136"><ele>216.0</ele><time>2026-04-25T12:56:49Z</time></trkpt><trkpt lat="43.90808537446846" lon="10.728805670711452"><ele>216.0</ele><time>2026-04-25T12:56:50Z</time></trkpt><trkpt lat="43.90815149719763" lon="10.728778131746928"><ele>216.0</ele><time>2026-04-25T12:56:51Z</time></trkpt><trkpt lat="43.90822240442288" lon="10.728756440996102"><ele>216.0</ele><time>2026-04-25T12:56:52Z</time></trkpt><trkpt lat="43.90829692253186" lon="10.728752076414086"><ele>216.0</ele><time>2026-04-25T12:56:53Z</time></trkpt><trkpt lat="43.908378067860994" lon="10.72875967637363"><ele>216.0</ele><time>2026-04-25T12:56:54Z</time></trkpt><trkpt lat="43.908464854229194" lon="10.728751312594273"><ele>218.28571428571428</ele><time>2026-04-25T12:56:55Z</time></trkpt><trkpt lat="43.90854204309209" lon="10.72874828922272"><ele>220.57142857142856</ele><time>2026-04-25T12:56:56Z</time></trkpt><trkpt lat="43.90861670945889" lon="10.728737708635888"><ele>222.8571428571429</ele><time>2026-04-25T12:56:57Z</time></trkpt><trkpt lat="43.90868662486878" lon="10.728691096943862"><ele>225.14285714285717</ele><time>2026-04-25T12:56:58Z</time></trkpt><trkpt lat="43.90875966669642" lon="10.728657102182996"><ele>227.42857142857144</ele><time>2026-04-25T12:56:59Z</time></trkpt><trkpt lat="43.908828448684375" lon="10.72864158089898"><ele>229.71428571428575</ele><time>2026-04-25T12:57:00Z</time></trkpt><trkpt lat="43.90889945936559" lon="10.728651451914457"><ele>232.00000000000003</ele><time>2026-04-25T12:57:01Z</time></trkpt><trkpt lat="43.909004024988946" lon="10.728625336589763"><ele>232.16666666666666</ele><time>2026-04-25T12:57:03Z</time></trkpt><trkpt lat="43.909004327298945" lon="10.728531527124092"><ele>232.33333333333331</ele><time>2026-04-25T12:57:05Z</time></trkpt><trkpt lat="43.90889596426507" lon="10.728401707502146"><ele>232.5</ele><time>2026-04-25T12:57:07Z</time></trkpt><trkpt lat="43.90884039662247" lon="10.72835585501559"><ele>232.66666666666669</ele><time>2026-04-25T12:57:08Z</time></trkpt><trkpt lat="43.90879135720312" lon="10.728290725881983"><ele>232.83333333333334</ele><time>2026-04-25T12:57:09Z</time></trkpt><trkpt lat="43.90873613113276" lon="10.728228071435565"><ele>233.0</ele><time>2026-04-25T12:57:10Z</time></trkpt><trkpt lat="43.9086652965605" lon="10.728196143492125"><ele>233.00000000000003</ele><time>2026-04-25T12:57:11Z</time></trkpt><trkpt lat="43.90858637203918" lon="10.728168560603933"><ele>233.0</ele><time>2026-04-25T12:57:12Z</time></trkpt><trkpt lat="43.90851031709198" lon="10.72814914780427"><ele>233.0</ele><time>2026-04-25T12:57:13Z</time></trkpt><trkpt lat="43.90840688471691" lon="10.728038371094831"><ele>233.0</ele><time>2026-04-25T12:57:15Z</time></trkpt><trkpt lat="43.908353124036374" lon="10.727987640081565"><ele>233.00000000000003</ele><time>2026-04-25T12:57:16Z</time></trkpt><trkpt lat="43.908295257062136" lon="10.727942167019"><ele>233.0</ele><time>2026-04-25T12:57:17Z</time></trkpt><trkpt lat="43.90821119459221" lon="10.72793840845521"><ele>230.00000000000003</ele><time>2026-04-25T12:57:18Z</time></trkpt><trkpt lat="43.90812469911481" lon="10.727925046831063"><ele>227.0</ele><time>2026-04-25T12:57:19Z</time></trkpt><trkpt lat="43.908032434767875" lon="10.727907260626305"><ele>224.0</ele><time>2026-04-25T12:57:20Z</time></trkpt><trkpt lat="43.90795635247852" lon="10.727915030095703"><ele>221.0</ele><time>2026-04-25T12:57:21Z</time></trkpt><trkpt lat="43.90788081852274" lon="10.727924492549093"><ele>218.00000000000003</ele><time>2026-04-25T12:57:22Z</time></trkpt><trkpt lat="43.90780828930892" lon="10.727931452476934"><ele>215.0</ele><time>2026-04-25T12:57:23Z</time></trkpt><trkpt lat="43.907735628545105" lon="10.727937510232412"><ele>215.0</ele><time>2026-04-25T12:57:24Z</time></trkpt><trkpt lat="43.907671153355935" lon="10.727930882867039"><ele>215.0</ele><time>2026-04-25T12:57:25Z</time></trkpt><trkpt lat="43.907597859904264" lon="10.727925318517554"><ele>215.0</ele><time>2026-04-25T12:57:26Z</time></trkpt><trkpt lat="43.9075285014607" lon="10.727923005833661"><ele>215.0</ele><time>2026-04-25T12:57:27Z</time></trkpt><trkpt lat="43.90741820721364" lon="10.72784486150068"><ele>215.0</ele><time>2026-04-25T12:57:29Z</time></trkpt><trkpt lat="43.907369194392544" lon="10.727683534572076"><ele>217.2</ele><time>2026-04-25T12:57:32Z</time></trkpt><trkpt lat="43.90737110725974" lon="10.72757672206527"><ele>219.4</ele><time>2026-04-25T12:57:33Z</time></trkpt><trkpt lat="43.90732822785008" lon="10.727463485860676"><ele>221.60000000000002</ele><time>2026-04-25T12:57:35Z</time></trkpt><trkpt lat="43.907249517862354" lon="10.727478000168684"><ele>223.8</ele><time>2026-04-25T12:57:37Z</time></trkpt><trkpt lat="43.90720759931411" lon="10.72755808388075"><ele>226.0</ele><time>2026-04-25T12:57:38Z</time></trkpt><trkpt lat="43.90714364940552" lon="10.727719184937184"><ele>221.4</ele><time>2026-04-25T12:57:40Z</time></trkpt><trkpt lat="43.907083982810086" lon="10.727753848488852"><ele>216.8</ele><time>2026-04-25T12:57:41Z</time></trkpt><trkpt lat="43.90698670920858" lon="10.72780635374246"><ele>212.20000000000002</ele><time>2026-04-25T12:57:43Z</time></trkpt><trkpt lat="43.90683101401222" lon="10.727873370670142"><ele>207.60000000000002</ele><time>2026-04-25T12:57:44Z</time></trkpt><trkpt lat="43.90672273995913" lon="10.727930620402642"><ele>203.0</ele><time>2026-04-25T12:57:45Z</time></trkpt><trkpt lat="43.906640180360164" lon="10.727990499082015"><ele>202.60000000000002</ele><time>2026-04-25T12:57:46Z</time></trkpt><trkpt lat="43.90654194034559" lon="10.728044027150238"><ele>202.20000000000002</ele><time>2026-04-25T12:57:47Z</time></trkpt><trkpt lat="43.90645746280994" lon="10.72810861643798"><ele>201.8</ele><time>2026-04-25T12:57:48Z</time></trkpt><trkpt lat="43.906368496771876" lon="10.728169614319746"><ele>201.4</ele><time>2026-04-25T12:57:49Z</time></trkpt><trkpt lat="43.90628656004309" lon="10.728200707726591"><ele>201.0</ele><time>2026-04-25T12:57:50Z</time></trkpt><trkpt lat="43.90621521792578" lon="10.728245552551536"><ele>201.0</ele><time>2026-04-25T12:57:51Z</time></trkpt><trkpt lat="43.906147739543535" lon="10.72827757553365"><ele>201.0</ele><time>2026-04-25T12:57:52Z</time></trkpt><trkpt lat="43.90607743259548" lon="10.728295218398316"><ele>201.0</ele><time>2026-04-25T12:57:53Z</time></trkpt><trkpt lat="43.90601274041004" lon="10.728302817411427"><ele>201.0</ele><time>2026-04-25T12:57:54Z</time></trkpt><trkpt lat="43.90594682923562" lon="10.728317185955339"><ele>201.0</ele><time>2026-04-25T12:57:55Z</time></trkpt><trkpt lat="43.90587603136041" lon="10.728328594040397"><ele>201.0</ele><time>2026-04-25T12:57:56Z</time></trkpt><trkpt lat="43.905832982558174" lon="10.728223298706272"><ele>201.0</ele><time>2026-04-25T12:57:58Z</time></trkpt><trkpt lat="43.905888382662475" lon="10.72812647501421"><ele>201.0</ele><time>2026-04-25T12:58:00Z</time></trkpt><trkpt lat="43.9059957324208" lon="10.728045957635265"><ele>201.0</ele><time>2026-04-25T12:58:02Z</time></trkpt><trkpt lat="43.90605842151707" lon="10.727955299482932"><ele>201.0</ele><time>2026-04-25T12:58:03Z</time></trkpt><trkpt lat="43.90612098832454" lon="10.727887870334975"><ele>201.0</ele><time>2026-04-25T12:58:04Z</time></trkpt><trkpt lat="43.906193508636335" lon="10.727838421014964"><ele>201.0</ele><time>2026-04-25T12:58:05Z</time></trkpt><trkpt lat="43.90628626255459" lon="10.727789981302784"><ele>206.60000000000002</ele><time>2026-04-25T12:58:06Z</time></trkpt><trkpt lat="43.906383050834336" lon="10.72772123318821"><ele>212.2</ele><time>2026-04-25T12:58:07Z</time></trkpt><trkpt lat="43.90647263679059" lon="10.727656071841848"><ele>217.79999999999998</ele><time>2026-04-25T12:58:08Z</time></trkpt><trkpt lat="43.90657750854954" lon="10.727590270909662"><ele>223.39999999999998</ele><time>2026-04-25T12:58:09Z</time></trkpt><trkpt lat="43.90664454070637" lon="10.727523101222243"><ele>229.0</ele><time>2026-04-25T12:58:10Z</time></trkpt><trkpt lat="43.90667884770131" lon="10.72743995325389"><ele>229.0</ele><time>2026-04-25T12:58:11Z</time></trkpt><trkpt lat="43.90672718619433" lon="10.727237476564774"><ele>228.99999999999997</ele><time>2026-04-25T12:58:13Z</time></trkpt><trkpt lat="43.906776556396196" lon="10.727148870606053"><ele>228.99999999999997</ele><time>2026-04-25T12:58:14Z</time></trkpt><trkpt lat="43.90668476180665" lon="10.727099835174439"><ele>229.0</ele><time>2026-04-25T12:58:19Z</time></trkpt><trkpt lat="43.90660641693262" lon="10.727138605860226"><ele>229.0</ele><time>2026-04-25T12:58:21Z</time></trkpt><trkpt lat="43.906538248051284" lon="10.727080181926095"><ele>228.99999999999997</ele><time>2026-04-25T12:58:23Z</time></trkpt><trkpt lat="43.90659078850311" lon="10.726971891158904"><ele>229.0</ele><time>2026-04-25T12:58:25Z</time></trkpt><trkpt lat="43.90668413128073" lon="10.726888764448127"><ele>229.0</ele><time>2026-04-25T12:58:27Z</time></trkpt><trkpt lat="43.906740565061924" lon="10.726846654680873"><ele>229.0</ele><time>2026-04-25T12:58:28Z</time></trkpt><trkpt lat="43.90680354865102" lon="10.726802031785782"><ele>228.99999999999997</ele><time>2026-04-25T12:58:29Z</time></trkpt><trkpt lat="43.90688055801815" lon="10.726754687106132"><ele>229.0</ele><time>2026-04-25T12:58:30Z</time></trkpt><trkpt lat="43.906965109991376" lon="10.726699849469414"><ele>232.49999999999997</ele><time>2026-04-25T12:58:31Z</time></trkpt><trkpt lat="43.90702803411882" lon="10.726640674501635"><ele>236.0</ele><time>2026-04-25T12:58:32Z</time></trkpt><trkpt lat="43.907073523041596" lon="10.726558275943903"><ele>239.5</ele><time>2026-04-25T12:58:33Z</time></trkpt><trkpt lat="43.907126213320865" lon="10.726451389164623"><ele>243.0</ele><time>2026-04-25T12:58:34Z</time></trkpt><trkpt lat="43.907202807015885" lon="10.726356311965892"><ele>246.49999999999997</ele><time>2026-04-25T12:58:35Z</time></trkpt><trkpt lat="43.9072769586292" lon="10.726259812333435"><ele>250.0</ele><time>2026-04-25T12:58:36Z</time></trkpt><trkpt lat="43.9073494855045" lon="10.726171113176786"><ele>250.0</ele><time>2026-04-25T12:58:37Z</time></trkpt><trkpt lat="43.90743228437626" lon="10.72606356092751"><ele>250.0</ele><time>2026-04-25T12:58:38Z</time></trkpt><trkpt lat="43.90749576600513" lon="10.725972730344944"><ele>250.0</ele><time>2026-04-25T12:58:39Z</time></trkpt><trkpt lat="43.90755516893997" lon="10.725879476550617"><ele>250.0</ele><time>2026-04-25T12:58:40Z</time></trkpt><trkpt lat="43.90763360897502" lon="10.725816724162742"><ele>250.0</ele><time>2026-04-25T12:58:41Z</time></trkpt><trkpt lat="43.907727595118985" lon="10.725739150001306"><ele>255.4</ele><time>2026-04-25T12:58:42Z</time></trkpt><trkpt lat="43.907818884626245" lon="10.725670067978733"><ele>260.8</ele><time>2026-04-25T12:58:43Z</time></trkpt><trkpt lat="43.907910870605605" lon="10.725602818406674"><ele>266.2</ele><time>2026-04-25T12:58:44Z</time></trkpt><trkpt lat="43.907986216600996" lon="10.72552574119873"><ele>271.6</ele><time>2026-04-25T12:58:45Z</time></trkpt><trkpt lat="43.90806725048449" lon="10.725455598884066"><ele>277.0</ele><time>2026-04-25T12:58:46Z</time></trkpt><trkpt lat="43.90812909580577" lon="10.725366931223014"><ele>277.0</ele><time>2026-04-25T12:58:47Z</time></trkpt><trkpt lat="43.90817826269299" lon="10.725265300463958"><ele>277.0</ele><time>2026-04-25T12:58:48Z</time></trkpt><trkpt lat="43.908227829253164" lon="10.725209628868717"><ele>277.0</ele><time>2026-04-25T12:58:49Z</time></trkpt><trkpt lat="43.90834989002677" lon="10.72517909766313"><ele>277.0</ele><time>2026-04-25T12:58:51Z</time></trkpt><trkpt lat="43.908427678435544" lon="10.725220343097885"><ele>277.0</ele><time>2026-04-25T12:58:52Z</time></trkpt><trkpt lat="43.9084987096709" lon="10.725260306354192"><ele>277.0</ele><time>2026-04-25T12:58:53Z</time></trkpt><trkpt lat="43.90857065000393" lon="10.725258577686356"><ele>279.8333333333333</ele><time>2026-04-25T12:58:54Z</time></trkpt><trkpt lat="43.90864459204629" lon="10.72526339200829"><ele>282.66666666666663</ele><time>2026-04-25T12:58:55Z</time></trkpt><trkpt lat="43.90871294711092" lon="10.725262545577078"><ele>285.5</ele><time>2026-04-25T12:58:56Z</time></trkpt><trkpt lat="43.90874989155716" lon="10.725383525294333"><ele>288.3333333333333</ele><time>2026-04-25T12:58:58Z</time></trkpt><trkpt lat="43.908753533152655" lon="10.725477710362096"><ele>291.1666666666667</ele><time>2026-04-25T12:58:59Z</time></trkpt><trkpt lat="43.90875740310017" lon="10.725603511502294"><ele>294.0</ele><time>2026-04-25T12:59:00Z</time></trkpt><trkpt lat="43.90875079529661" lon="10.72573380274365"><ele>294.0</ele><time>2026-04-25T12:59:01Z</time></trkpt><trkpt lat="43.908715510901686" lon="10.725829960368175"><ele>294.0</ele><time>2026-04-25T12:59:02Z</time></trkpt><trkpt lat="43.90864784331182" lon="10.725934557928177"><ele>294.0</ele><time>2026-04-25T12:59:03Z</time></trkpt><trkpt lat="43.90858525151129" lon="10.72605279104622"><ele>294.0</ele><time>2026-04-25T12:59:04Z</time></trkpt><trkpt lat="43.90853666781596" lon="10.726145064065072"><ele>294.0</ele><time>2026-04-25T12:59:05Z</time></trkpt><trkpt lat="43.908503478529106" lon="10.72623866296179"><ele>294.0</ele><time>2026-04-25T12:59:06Z</time></trkpt><trkpt lat="43.90850806580868" lon="10.726327910310822"><ele>292.0</ele><time>2026-04-25T12:59:07Z</time></trkpt><trkpt lat="43.90856081478428" lon="10.726389193426456"><ele>290.0</ele><time>2026-04-25T12:59:08Z</time></trkpt><trkpt lat="43.90867543419363" lon="10.726403658039047"><ele>288.0</ele><time>2026-04-25T12:59:10Z</time></trkpt><trkpt lat="43.9087516191454" lon="10.726367323646146"><ele>286.0</ele><time>2026-04-25T12:59:11Z</time></trkpt><trkpt lat="43.90884018709061" lon="10.726322095407545"><ele>284.0</ele><time>2026-04-25T12:59:12Z</time></trkpt><trkpt lat="43.908945974812845" lon="10.726247992264296"><ele>284.0</ele><time>2026-04-25T12:59:13Z</time></trkpt><trkpt lat="43.9090371030589" lon="10.726197327633336"><ele>284.0</ele><time>2026-04-25T12:59:14Z</time></trkpt><trkpt lat="43.909088315748384" lon="10.726101837787109"><ele>284.0</ele><time>2026-04-25T12:59:15Z</time></trkpt><trkpt lat="43.9091366058093" lon="10.725991330458793"><ele>284.0</ele><time>2026-04-25T12:59:16Z</time></trkpt><trkpt lat="43.909156088731905" lon="10.725877190260391"><ele>284.0</ele><time>2026-04-25T12:59:17Z</time></trkpt><trkpt lat="43.90917873900715" lon="10.725789897002091"><ele>284.0</ele><time>2026-04-25T12:59:18Z</time></trkpt><trkpt lat="43.90923766626289" lon="10.725723612566881"><ele>287.4</ele><time>2026-04-25T12:59:19Z</time></trkpt><trkpt lat="43.90930552838527" lon="10.725676535959355"><ele>290.79999999999995</ele><time>2026-04-25T12:59:20Z</time></trkpt><trkpt lat="43.909405639293595" lon="10.725617885649068"><ele>294.20000000000005</ele><time>2026-04-25T12:59:21Z</time></trkpt><trkpt lat="43.90950380711518" lon="10.725573983937812"><ele>297.6</ele><time>2026-04-25T12:59:22Z</time></trkpt><trkpt lat="43.90961547818918" lon="10.725508546186395"><ele>301.0</ele><time>2026-04-25T12:59:23Z</time></trkpt><trkpt lat="43.90971908125023" lon="10.725436671849018"><ele>301.0</ele><time>2026-04-25T12:59:24Z</time></trkpt><trkpt lat="43.909816990410235" lon="10.725370280789207"><ele>301.0</ele><time>2026-04-25T12:59:25Z</time></trkpt><trkpt lat="43.90988892296303" lon="10.725317976282158"><ele>301.0</ele><time>2026-04-25T12:59:26Z</time></trkpt><trkpt lat="43.909866810277734" lon="10.725184772030456"><ele>301.0</ele><time>2026-04-25T12:59:28Z</time></trkpt><trkpt lat="43.90981634237544" lon="10.725109538722856"><ele>301.0</ele><time>2026-04-25T12:59:29Z</time></trkpt><trkpt lat="43.909774928718136" lon="10.725001721122045"><ele>306.0</ele><time>2026-04-25T12:59:30Z</time></trkpt><trkpt lat="43.90973851663425" lon="10.724835673805202"><ele>311.0</ele><time>2026-04-25T12:59:31Z</time></trkpt><trkpt lat="43.909681336804994" lon="10.724646130285793"><ele>316.0</ele><time>2026-04-25T12:59:32Z</time></trkpt><trkpt lat="43.90964573553717" lon="10.724460111867108"><ele>321.0</ele><time>2026-04-25T12:59:33Z</time></trkpt><trkpt lat="43.909646613879914" lon="10.724345651198687"><ele>322.6</ele><time>2026-04-25T12:59:34Z</time></trkpt><trkpt lat="43.90968424927225" lon="10.724266070556746"><ele>324.20000000000005</ele><time>2026-04-25T12:59:35Z</time></trkpt><trkpt lat="43.90974311802341" lon="10.724195779591867"><ele>325.79999999999995</ele><time>2026-04-25T12:59:36Z</time></trkpt><trkpt lat="43.9098254838976" lon="10.724119352125733"><ele>327.4</ele><time>2026-04-25T12:59:37Z</time></trkpt><trkpt lat="43.909927956342116" lon="10.724038768445423"><ele>329.0</ele><time>2026-04-25T12:59:38Z</time></trkpt><trkpt lat="43.91002880075354" lon="10.72394279218321"><ele>329.0</ele><time>2026-04-25T12:59:39Z</time></trkpt><trkpt lat="43.910101352198936" lon="10.723850966851858"><ele>329.0</ele><time>2026-04-25T12:59:40Z</time></trkpt><trkpt lat="43.91013955749614" lon="10.723758927573254"><ele>329.0</ele><time>2026-04-25T12:59:41Z</time></trkpt><trkpt lat="43.91016067266529" lon="10.723660396565863"><ele>329.0</ele><time>2026-04-25T12:59:42Z</time></trkpt><trkpt lat="43.91015344391906" lon="10.723568180331577"><ele>329.0</ele><time>2026-04-25T12:59:43Z</time></trkpt><trkpt lat="43.91003694664251" lon="10.72346100660602"><ele>329.0</ele><time>2026-04-25T12:59:45Z</time></trkpt><trkpt lat="43.90994328603465" lon="10.723422691769052"><ele>329.0</ele><time>2026-04-25T12:59:46Z</time></trkpt><trkpt lat="43.90987692360553" lon="10.723373591537554"><ele>329.0</ele><time>2026-04-25T12:59:47Z</time></trkpt><trkpt lat="43.90984013113782" lon="10.723288061956842"><ele>329.0</ele><time>2026-04-25T12:59:48Z</time></trkpt><trkpt lat="43.909880037296865" lon="10.723146858670617"><ele>329.0</ele><time>2026-04-25T12:59:50Z</time></trkpt><trkpt lat="43.90993829885436" lon="10.72307247110096"><ele>329.0</ele><time>2026-04-25T12:59:51Z</time></trkpt><trkpt lat="43.91001168165123" lon="10.723023948882723"><ele>334.6</ele><time>2026-04-25T12:59:52Z</time></trkpt><trkpt lat="43.91010468190805" lon="10.722997355181684"><ele>340.2</ele><time>2026-04-25T12:59:53Z</time></trkpt><trkpt lat="43.910197049997024" lon="10.72299636630464"><ele>345.8</ele><time>2026-04-25T12:59:54Z</time></trkpt><trkpt lat="43.91030103595308" lon="10.723003006242308"><ele>351.40000000000003</ele><time>2026-04-25T12:59:55Z</time></trkpt><trkpt lat="43.91041308840327" lon="10.722999808087998"><ele>357.0</ele><time>2026-04-25T12:59:56Z</time></trkpt><trkpt lat="43.91052562422801" lon="10.722985226254348"><ele>357.0</ele><time>2026-04-25T12:59:57Z</time></trkpt><trkpt lat="43.91063543652822" lon="10.722955088857644"><ele>357.0</ele><time>2026-04-25T12:59:58Z</time></trkpt><trkpt lat="43.91074168133442" lon="10.722902831484985"><ele>357.0</ele><time>2026-04-25T12:59:59Z</time></trkpt><trkpt lat="43.9108194814787" lon="10.722855563532388"><ele>357.0</ele><time>2026-04-25T13:00:00Z</time></trkpt><trkpt lat="43.910884714130304" lon="10.722813868615349"><ele>357.0</ele><time>2026-04-25T13:00:01Z</time></trkpt><trkpt lat="43.91094028681464" lon="10.722754790305457"><ele>362.6</ele><time>2026-04-25T13:00:02Z</time></trkpt><trkpt lat="43.91099193346849" lon="10.722667467388439"><ele>368.20000000000005</ele><time>2026-04-25T13:00:03Z</time></trkpt><trkpt lat="43.91103603350797" lon="10.72254834868902"><ele>373.8</ele><time>2026-04-25T13:00:04Z</time></trkpt><trkpt lat="43.911092296549924" lon="10.72238897069646"><ele>379.4</ele><time>2026-04-25T13:00:05Z</time></trkpt><trkpt lat="43.91113182238825" lon="10.722242663845998"><ele>385.0</ele><time>2026-04-25T13:00:06Z</time></trkpt><trkpt lat="43.911146841116626" lon="10.72210652036922"><ele>385.00000000000006</ele><time>2026-04-25T13:00:07Z</time></trkpt><trkpt lat="43.91112900296228" lon="10.721974709390464"><ele>385.0</ele><time>2026-04-25T13:00:08Z</time></trkpt><trkpt lat="43.911118753088886" lon="10.721851724354826"><ele>385.0</ele><time>2026-04-25T13:00:09Z</time></trkpt><trkpt lat="43.91114028688656" lon="10.721756917250937"><ele>385.0</ele><time>2026-04-25T13:00:10Z</time></trkpt><trkpt lat="43.91117444073663" lon="10.721657817605418"><ele>385.00000000000006</ele><time>2026-04-25T13:00:11Z</time></trkpt><trkpt lat="43.91123170938831" lon="10.72158537523296"><ele>385.0</ele><time>2026-04-25T13:00:12Z</time></trkpt><trkpt lat="43.911304329577774" lon="10.721521300806971"><ele>384.33333333333337</ele><time>2026-04-25T13:00:13Z</time></trkpt><trkpt lat="43.91138012209337" lon="10.721456496744487"><ele>383.6666666666667</ele><time>2026-04-25T13:00:14Z</time></trkpt><trkpt lat="43.91145708333048" lon="10.721374396202679"><ele>383.0</ele><time>2026-04-25T13:00:15Z</time></trkpt><trkpt lat="43.91153324531832" lon="10.72132792308175"><ele>382.33333333333337</ele><time>2026-04-25T13:00:16Z</time></trkpt><trkpt lat="43.91160805552847" lon="10.721251665785152"><ele>381.6666666666667</ele><time>2026-04-25T13:00:17Z</time></trkpt><trkpt lat="43.9116846158889" lon="10.721194502057767"><ele>381.0</ele><time>2026-04-25T13:00:18Z</time></trkpt><trkpt lat="43.91177911890606" lon="10.721144417771411"><ele>384.3333333333333</ele><time>2026-04-25T13:00:19Z</time></trkpt><trkpt lat="43.9118725455022" lon="10.721157737844715"><ele>387.66666666666663</ele><time>2026-04-25T13:00:20Z</time></trkpt><trkpt lat="43.91194822147492" lon="10.721172307862483"><ele>391.0</ele><time>2026-04-25T13:00:21Z</time></trkpt><trkpt lat="43.911991030436496" lon="10.721244439763439"><ele>394.3333333333333</ele><time>2026-04-25T13:00:22Z</time></trkpt><trkpt lat="43.91193877617543" lon="10.721319592893812"><ele>397.66666666666663</ele><time>2026-04-25T13:00:25Z</time></trkpt><trkpt lat="43.91187653678837" lon="10.721382908310135"><ele>401.0</ele><time>2026-04-25T13:00:26Z</time></trkpt><trkpt lat="43.911947859236655" lon="10.72146709589747"><ele>401.0</ele><time>2026-04-25T13:00:29Z</time></trkpt><trkpt lat="43.91207489247964" lon="10.721499918015173"><ele>401.0</ele><time>2026-04-25T13:00:31Z</time></trkpt><trkpt lat="43.912162014750535" lon="10.721583426784491"><ele>401.0</ele><time>2026-04-25T13:00:32Z</time></trkpt><trkpt lat="43.91224602210885" lon="10.721656396253747"><ele>401.0</ele><time>2026-04-25T13:00:33Z</time></trkpt><trkpt lat="43.91234813997383" lon="10.721716468803024"><ele>401.0</ele><time>2026-04-25T13:00:34Z</time></trkpt><trkpt lat="43.91243435983508" lon="10.72176542206551"><ele>401.0</ele><time>2026-04-25T13:00:36Z</time></trkpt><trkpt lat="43.91237176216989" lon="10.721792213872648"><ele>401.0</ele><time>2026-04-25T13:00:38Z</time></trkpt><trkpt lat="43.91224593395741" lon="10.72185710378626"><ele>401.0</ele><time>2026-04-25T13:00:40Z</time></trkpt><trkpt lat="43.91219507959127" lon="10.721927542355262"><ele>401.0</ele><time>2026-04-25T13:00:41Z</time></trkpt><trkpt lat="43.91219259101766" lon="10.722096122566267"><ele>401.0</ele><time>2026-04-25T13:00:43Z</time></trkpt><trkpt lat="43.912257018739595" lon="10.722116289439294"><ele>402.20000000000005</ele><time>2026-04-25T13:00:44Z</time></trkpt><trkpt lat="43.9123231970223" lon="10.722141012842489"><ele>403.40000000000003</ele><time>2026-04-25T13:00:45Z</time></trkpt><trkpt lat="43.91241539987264" lon="10.722175955061136"><ele>404.6</ele><time>2026-04-25T13:00:46Z</time></trkpt><trkpt lat="43.91253476959106" lon="10.722212662544402"><ele>405.8</ele><time>2026-04-25T13:00:47Z</time></trkpt><trkpt lat="43.9126851502338" lon="10.722240726270535"><ele>407.0</ele><time>2026-04-25T13:00:48Z</time></trkpt><trkpt lat="43.91281917894253" lon="10.722233658656368"><ele>408.20000000000005</ele><time>2026-04-25T13:00:49Z</time></trkpt><trkpt lat="43.91291140245275" lon="10.722262241616743"><ele>409.4</ele><time>2026-04-25T13:00:50Z</time></trkpt><trkpt lat="43.912998239037556" lon="10.722380055619146"><ele>410.6</ele><time>2026-04-25T13:00:52Z</time></trkpt><trkpt lat="43.91306057970399" lon="10.722421336949829"><ele>411.79999999999995</ele><time>2026-04-25T13:00:53Z</time></trkpt><trkpt lat="43.91314878216746" lon="10.722450588452494"><ele>413.0</ele><time>2026-04-25T13:00:54Z</time></trkpt><trkpt lat="43.91325979187877" lon="10.722421318970166"><ele>415.25</ele><time>2026-04-25T13:00:55Z</time></trkpt><trkpt lat="43.913413463167096" lon="10.722416464768244"><ele>417.5</ele><time>2026-04-25T13:00:56Z</time></trkpt><trkpt lat="43.91355161941803" lon="10.722392798068654"><ele>419.75</ele><time>2026-04-25T13:00:57Z</time></trkpt><trkpt lat="43.913658779063844" lon="10.722391493117232"><ele>422.0</ele><time>2026-04-25T13:00:58Z</time></trkpt><trkpt lat="43.913776359472" lon="10.722437585431718"><ele>422.0</ele><time>2026-04-25T13:00:59Z</time></trkpt><trkpt lat="43.91388972236073" lon="10.722502934959543"><ele>422.0</ele><time>2026-04-25T13:01:00Z</time></trkpt><trkpt lat="43.913997943742366" lon="10.722572403463992"><ele>422.0</ele><time>2026-04-25T13:01:01Z</time></trkpt><trkpt lat="43.91411031023587" lon="10.72259783050284"><ele>422.0</ele><time>2026-04-25T13:01:02Z</time></trkpt><trkpt lat="43.91420000779731" lon="10.72256892820226"><ele>422.0</ele><time>2026-04-25T13:01:03Z</time></trkpt><trkpt lat="43.91429174995259" lon="10.72251639460888"><ele>424.5</ele><time>2026-04-25T13:01:04Z</time></trkpt><trkpt lat="43.91440273085461" lon="10.722434882965333"><ele>427.0</ele><time>2026-04-25T13:01:05Z</time></trkpt><trkpt lat="43.91450968103073" lon="10.72234531714881"><ele>429.5</ele><time>2026-04-25T13:01:06Z</time></trkpt><trkpt lat="43.914612752815884" lon="10.722245758091127"><ele>432.0</ele><time>2026-04-25T13:01:07Z</time></trkpt><trkpt lat="43.914715507847845" lon="10.72217765892469"><ele>432.0</ele><time>2026-04-25T13:01:08Z</time></trkpt><trkpt lat="43.914829794053155" lon="10.722144943566821"><ele>432.00000000000006</ele><time>2026-04-25T13:01:09Z</time></trkpt><trkpt lat="43.91494710739752" lon="10.722127532027432"><ele>432.00000000000006</ele><time>2026-04-25T13:01:10Z</time></trkpt><trkpt lat="43.915042111775975" lon="10.722104088869889"><ele>432.0</ele><time>2026-04-25T13:01:11Z</time></trkpt><trkpt lat="43.91511770170965" lon="10.722044212145438"><ele>432.0</ele><time>2026-04-25T13:01:12Z</time></trkpt><trkpt lat="43.91515994346682" lon="10.721942916797092"><ele>433.8333333333333</ele><time>2026-04-25T13:01:13Z</time></trkpt><trkpt lat="43.915202643208744" lon="10.721855130123501"><ele>435.66666666666663</ele><time>2026-04-25T13:01:14Z</time></trkpt><trkpt lat="43.915248901083686" lon="10.72179011723231"><ele>437.5</ele><time>2026-04-25T13:01:15Z</time></trkpt><trkpt lat="43.915305950042026" lon="10.72185118326887"><ele>439.3333333333333</ele><time>2026-04-25T13:01:19Z</time></trkpt><trkpt lat="43.91525765485525" lon="10.721934959352462"><ele>441.16666666666663</ele><time>2026-04-25T13:01:21Z</time></trkpt><trkpt lat="43.915235035757085" lon="10.722127311964584"><ele>443.0</ele><time>2026-04-25T13:01:23Z</time></trkpt><trkpt lat="43.91532116193606" lon="10.72224848994853"><ele>443.0</ele><time>2026-04-25T13:01:25Z</time></trkpt><trkpt lat="43.91538646927517" lon="10.722314163830928"><ele>442.99999999999994</ele><time>2026-04-25T13:01:26Z</time></trkpt><trkpt lat="43.91548030378779" lon="10.72238002636158"><ele>442.99999999999994</ele><time>2026-04-25T13:01:27Z</time></trkpt><trkpt lat="43.91556777219899" lon="10.722455033765554"><ele>443.0</ele><time>2026-04-25T13:01:28Z</time></trkpt><trkpt lat="43.915662320925826" lon="10.722522312636332"><ele>443.0</ele><time>2026-04-25T13:01:29Z</time></trkpt><trkpt lat="43.91573968454478" lon="10.722580003169613"><ele>443.0</ele><time>2026-04-25T13:01:30Z</time></trkpt><trkpt lat="43.91583058432987" lon="10.722635632509885"><ele>442.99999999999994</ele><time>2026-04-25T13:01:31Z</time></trkpt><trkpt lat="43.91591065884505" lon="10.722723824796331"><ele>442.99999999999994</ele><time>2026-04-25T13:01:32Z</time></trkpt><trkpt lat="43.915950141535035" lon="10.722826573491647"><ele>443.0</ele><time>2026-04-25T13:01:33Z</time></trkpt><trkpt lat="43.91599179300537" lon="10.722929389941449"><ele>443.0</ele><time>2026-04-25T13:01:34Z</time></trkpt><trkpt lat="43.91605364568814" lon="10.723020138163694"><ele>443.4</ele><time>2026-04-25T13:01:35Z</time></trkpt><trkpt lat="43.91613446100968" lon="10.723095233647825"><ele>443.79999999999995</ele><time>2026-04-25T13:01:36Z</time></trkpt><trkpt lat="43.916225885912816" lon="10.72314382223701"><ele>444.2</ele><time>2026-04-25T13:01:37Z</time></trkpt><trkpt lat="43.91632901627205" lon="10.723195794939121"><ele>444.6</ele><time>2026-04-25T13:01:38Z</time></trkpt><trkpt lat="43.91642585426979" lon="10.72325647011319"><ele>445.0</ele><time>2026-04-25T13:01:39Z</time></trkpt><trkpt lat="43.91652084184711" lon="10.723320276474835"><ele>445.0</ele><time>2026-04-25T13:01:40Z</time></trkpt><trkpt lat="43.91661350082784" lon="10.723375400928832"><ele>445.0</ele><time>2026-04-25T13:01:41Z</time></trkpt><trkpt lat="43.916701946071115" lon="10.723424171616072"><ele>445.0</ele><time>2026-04-25T13:01:42Z</time></trkpt><trkpt lat="43.9167873431972" lon="10.723480880457501"><ele>445.0</ele><time>2026-04-25T13:01:43Z</time></trkpt><trkpt lat="43.91687773004287" lon="10.72354295808726"><ele>445.0</ele><time>2026-04-25T13:01:44Z</time></trkpt><trkpt lat="43.916961535535265" lon="10.723603929765295"><ele>447.00000000000006</ele><time>2026-04-25T13:01:45Z</time></trkpt><trkpt lat="43.917046027758545" lon="10.723659268649318"><ele>449.0</ele><time>2026-04-25T13:01:46Z</time></trkpt><trkpt lat="43.91712943589521" lon="10.723708844101079"><ele>451.0</ele><time>2026-04-25T13:01:47Z</time></trkpt><trkpt lat="43.91720924389923" lon="10.723760212377554"><ele>453.0</ele><time>2026-04-25T13:01:48Z</time></trkpt><trkpt lat="43.917270325161816" lon="10.723818658643163"><ele>455.00000000000006</ele><time>2026-04-25T13:01:49Z</time></trkpt><trkpt lat="43.91732721363801" lon="10.723883464089916"><ele>457.0</ele><time>2026-04-25T13:01:50Z</time></trkpt><trkpt lat="43.917432264511845" lon="10.723997210143168"><ele>457.00000000000006</ele><time>2026-04-25T13:01:52Z</time></trkpt><trkpt lat="43.91749639423071" lon="10.724054975297502"><ele>457.0</ele><time>2026-04-25T13:01:53Z</time></trkpt><trkpt lat="43.91755019728927" lon="10.72411325850518"><ele>457.00000000000006</ele><time>2026-04-25T13:01:54Z</time></trkpt><trkpt lat="43.91760693608797" lon="10.724167640886039"><ele>457.00000000000006</ele><time>2026-04-25T13:01:55Z</time></trkpt><trkpt lat="43.917660562478986" lon="10.72423739623081"><ele>457.0</ele><time>2026-04-25T13:01:56Z</time></trkpt><trkpt lat="43.91769845982924" lon="10.724325989560155"><ele>457.00000000000006</ele><time>2026-04-25T13:01:57Z</time></trkpt><trkpt lat="43.91772811823726" lon="10.724427264334201"><ele>457.00000000000006</ele><time>2026-04-25T13:01:58Z</time></trkpt><trkpt lat="43.917775744563706" lon="10.724520878266175"><ele>458.8</ele><time>2026-04-25T13:01:59Z</time></trkpt><trkpt lat="43.91783048788421" lon="10.724626834021242"><ele>460.6</ele><time>2026-04-25T13:02:00Z</time></trkpt><trkpt lat="43.91788362780479" lon="10.724750979357559"><ele>462.40000000000003</ele><time>2026-04-25T13:02:01Z</time></trkpt><trkpt lat="43.91793266002591" lon="10.72486241859101"><ele>464.20000000000005</ele><time>2026-04-25T13:02:02Z</time></trkpt><trkpt lat="43.91798055349216" lon="10.724973964117163"><ele>466.0</ele><time>2026-04-25T13:02:03Z</time></trkpt><trkpt lat="43.918015551735856" lon="10.725080823294823"><ele>466.0</ele><time>2026-04-25T13:02:04Z</time></trkpt><trkpt lat="43.91804528732601" lon="10.725200995147919"><ele>466.0</ele><time>2026-04-25T13:02:05Z</time></trkpt><trkpt lat="43.91805814143235" lon="10.725315754784095"><ele>466.0</ele><time>2026-04-25T13:02:06Z</time></trkpt><trkpt lat="43.91806140458713" lon="10.725441851872644"><ele>466.0</ele><time>2026-04-25T13:02:07Z</time></trkpt><trkpt lat="43.918073038620854" lon="10.725579058150776"><ele>466.0</ele><time>2026-04-25T13:02:08Z</time></trkpt><trkpt lat="43.91808624197472" lon="10.725716974792158"><ele>466.20000000000005</ele><time>2026-04-25T13:02:09Z</time></trkpt><trkpt lat="43.91809194675714" lon="10.725855426152489"><ele>466.40000000000003</ele><time>2026-04-25T13:02:10Z</time></trkpt><trkpt lat="43.91809222492311" lon="10.726001824287838"><ele>466.6</ele><time>2026-04-25T13:02:11Z</time></trkpt><trkpt lat="43.918090509715874" lon="10.726138941167191"><ele>466.8</ele><time>2026-04-25T13:02:12Z</time></trkpt><trkpt lat="43.91807087305883" lon="10.726271288017466"><ele>467.0</ele><time>2026-04-25T13:02:13Z</time></trkpt><trkpt lat="43.91804426201923" lon="10.72639071346157"><ele>467.0</ele><time>2026-04-25T13:02:14Z</time></trkpt><trkpt lat="43.91803873620941" lon="10.72652644134738"><ele>467.00000000000006</ele><time>2026-04-25T13:02:15Z</time></trkpt><trkpt lat="43.91804874726361" lon="10.726655091359811"><ele>467.00000000000006</ele><time>2026-04-25T13:02:16Z</time></trkpt><trkpt lat="43.9180723956129" lon="10.726787305041224"><ele>467.0</ele><time>2026-04-25T13:02:17Z</time></trkpt><trkpt lat="43.918131828268656" lon="10.726909991116576"><ele>467.0</ele><time>2026-04-25T13:02:18Z</time></trkpt><trkpt lat="43.9182095446283" lon="10.727011500533786"><ele>467.0</ele><time>2026-04-25T13:02:19Z</time></trkpt><trkpt lat="43.91829075222537" lon="10.727118115525213"><ele>467.0</ele><time>2026-04-25T13:02:20Z</time></trkpt><trkpt lat="43.91835719583051" lon="10.727250158114268"><ele>467.0</ele><time>2026-04-25T13:02:21Z</time></trkpt><trkpt lat="43.918430315427294" lon="10.727388367295873"><ele>467.0</ele><time>2026-04-25T13:02:22Z</time></trkpt><trkpt lat="43.91850208109788" lon="10.72751734864543"><ele>467.25</ele><time>2026-04-25T13:02:23Z</time></trkpt><trkpt lat="43.91857887283207" lon="10.727641490528985"><ele>467.5</ele><time>2026-04-25T13:02:24Z</time></trkpt><trkpt lat="43.9186507752126" lon="10.727767678973455"><ele>467.75</ele><time>2026-04-25T13:02:25Z</time></trkpt><trkpt lat="43.918720603385054" lon="10.727898233857642"><ele>468.0</ele><time>2026-04-25T13:02:26Z</time></trkpt><trkpt lat="43.918788876170694" lon="10.72801305358159"><ele>468.0</ele><time>2026-04-25T13:02:27Z</time></trkpt><trkpt lat="43.918859846108155" lon="10.728109686362222"><ele>467.99999999999994</ele><time>2026-04-25T13:02:28Z</time></trkpt><trkpt lat="43.91892572967298" lon="10.72819361762625"><ele>467.99999999999994</ele><time>2026-04-25T13:02:29Z</time></trkpt><trkpt lat="43.91899204712556" lon="10.728289904716384"><ele>468.0</ele><time>2026-04-25T13:02:30Z</time></trkpt><trkpt lat="43.919048090201" lon="10.728388512985672"><ele>468.0</ele><time>2026-04-25T13:02:31Z</time></trkpt><trkpt lat="43.91908175848422" lon="10.728515025148646"><ele>467.8333333333333</ele><time>2026-04-25T13:02:32Z</time></trkpt><trkpt lat="43.91908131605783" lon="10.728650541558384"><ele>467.66666666666663</ele><time>2026-04-25T13:02:33Z</time></trkpt><trkpt lat="43.919066566331395" lon="10.728781123691174"><ele>467.5</ele><time>2026-04-25T13:02:34Z</time></trkpt><trkpt lat="43.9190359936852" lon="10.728898791086166"><ele>467.3333333333333</ele><time>2026-04-25T13:02:35Z</time></trkpt><trkpt lat="43.91900020564234" lon="10.729008695812176"><ele>467.16666666666663</ele><time>2026-04-25T13:02:36Z</time></trkpt><trkpt lat="43.918968555468666" lon="10.729095650687158"><ele>467.0</ele><time>2026-04-25T13:02:37Z</time></trkpt><trkpt lat="43.91887824837423" lon="10.729197107824644"><ele>466.99999999999994</ele><time>2026-04-25T13:02:39Z</time></trkpt><trkpt lat="43.918799287495055" lon="10.729193956571677"><ele>467.0</ele><time>2026-04-25T13:02:40Z</time></trkpt><trkpt lat="43.91870847152655" lon="10.729190134778799"><ele>467.0</ele><time>2026-04-25T13:02:41Z</time></trkpt><trkpt lat="43.91862112002733" lon="10.72921040863028"><ele>467.0</ele><time>2026-04-25T13:02:42Z</time></trkpt><trkpt lat="43.918534370443304" lon="10.729236890791926"><ele>466.99999999999994</ele><time>2026-04-25T13:02:43Z</time></trkpt><trkpt lat="43.918450631690135" lon="10.729275552667547"><ele>467.0</ele><time>2026-04-25T13:02:44Z</time></trkpt><trkpt lat="43.91836515392477" lon="10.72932043911326"><ele>464.6</ele><time>2026-04-25T13:02:45Z</time></trkpt><trkpt lat="43.91827956764458" lon="10.729370010256622"><ele>462.20000000000005</ele><time>2026-04-25T13:02:46Z</time></trkpt><trkpt lat="43.918195219362765" lon="10.729420737769685"><ele>459.8</ele><time>2026-04-25T13:02:47Z</time></trkpt><trkpt lat="43.9181064162887" lon="10.729469381909983"><ele>457.4</ele><time>2026-04-25T13:02:48Z</time></trkpt><trkpt lat="43.91801568897892" lon="10.729520602477045"><ele>455.0</ele><time>2026-04-25T13:02:49Z</time></trkpt><trkpt lat="43.91791668934283" lon="10.729575740182236"><ele>454.8</ele><time>2026-04-25T13:02:50Z</time></trkpt><trkpt lat="43.917822035421004" lon="10.729629329046926"><ele>454.6</ele><time>2026-04-25T13:02:51Z</time></trkpt><trkpt lat="43.9177359476438" lon="10.729687393751801"><ele>454.4</ele><time>2026-04-25T13:02:52Z</time></trkpt><trkpt lat="43.91764748377881" lon="10.729741763154108"><ele>454.2</ele><time>2026-04-25T13:02:53Z</time></trkpt><trkpt lat="43.917561887377374" lon="10.729772329117747"><ele>454.0</ele><time>2026-04-25T13:02:54Z</time></trkpt><trkpt lat="43.91747832838762" lon="10.729799653258162"><ele>450.6</ele><time>2026-04-25T13:02:55Z</time></trkpt><trkpt lat="43.917387513618515" lon="10.729844538474296"><ele>447.2</ele><time>2026-04-25T13:02:56Z</time></trkpt><trkpt lat="43.91730720041896" lon="10.729896440068838"><ele>443.80000000000007</ele><time>2026-04-25T13:02:57Z</time></trkpt><trkpt lat="43.91722845761366" lon="10.72995732136145"><ele>440.40000000000003</ele><time>2026-04-25T13:02:58Z</time></trkpt><trkpt lat="43.91714567753795" lon="10.730024797028133"><ele>437.0</ele><time>2026-04-25T13:02:59Z</time></trkpt><trkpt lat="43.91706858857608" lon="10.730110236746588"><ele>436.99999999999994</ele><time>2026-04-25T13:03:00Z</time></trkpt><trkpt lat="43.91699937790176" lon="10.73019404410048"><ele>437.0</ele><time>2026-04-25T13:03:01Z</time></trkpt><trkpt lat="43.916938262812984" lon="10.730259237257929"><ele>437.0</ele><time>2026-04-25T13:03:02Z</time></trkpt><trkpt lat="43.91686430830305" lon="10.730313374314388"><ele>437.0</ele><time>2026-04-25T13:03:03Z</time></trkpt><trkpt lat="43.91680403710887" lon="10.73036110878237"><ele>436.99999999999994</ele><time>2026-04-25T13:03:04Z</time></trkpt><trkpt lat="43.91671110938387" lon="10.730429190773847"><ele>437.0</ele><time>2026-04-25T13:03:06Z</time></trkpt><trkpt lat="43.91666501566827" lon="10.730556838903881"><ele>435.3333333333333</ele><time>2026-04-25T13:03:08Z</time></trkpt><trkpt lat="43.916599458716945" lon="10.730639901825395"><ele>433.66666666666663</ele><time>2026-04-25T13:03:10Z</time></trkpt><trkpt lat="43.91661431365738" lon="10.730752671263078"><ele>432.0</ele><time>2026-04-25T13:03:12Z</time></trkpt><trkpt lat="43.91668427225905" lon="10.73080279977954"><ele>430.33333333333337</ele><time>2026-04-25T13:03:13Z</time></trkpt><trkpt lat="43.916756954132346" lon="10.73082378916007"><ele>428.6666666666667</ele><time>2026-04-25T13:03:14Z</time></trkpt><trkpt lat="43.916836492224405" lon="10.730823468136865"><ele>427.0</ele><time>2026-04-25T13:03:15Z</time></trkpt><trkpt lat="43.916901322991045" lon="10.730810647873446"><ele>427.00000000000006</ele><time>2026-04-25T13:03:16Z</time></trkpt><trkpt lat="43.91696749932319" lon="10.730795426158089"><ele>427.0</ele><time>2026-04-25T13:03:17Z</time></trkpt><trkpt lat="43.917054001597066" lon="10.730756635140159"><ele>427.0</ele><time>2026-04-25T13:03:18Z</time></trkpt><trkpt lat="43.91712215207292" lon="10.730709678748353"><ele>427.0</ele><time>2026-04-25T13:03:19Z</time></trkpt><trkpt lat="43.91719249006017" lon="10.730690765886656"><ele>427.00000000000006</ele><time>2026-04-25T13:03:20Z</time></trkpt><trkpt lat="43.917262582955686" lon="10.730715368938098"><ele>427.0</ele><time>2026-04-25T13:03:21Z</time></trkpt><trkpt lat="43.917344890226765" lon="10.730872708541828"><ele>427.0</ele><time>2026-04-25T13:03:23Z</time></trkpt><trkpt lat="43.91739027848903" lon="10.73096217365769"><ele>427.0</ele><time>2026-04-25T13:03:24Z</time></trkpt><trkpt lat="43.91742452979935" lon="10.731046778776228"><ele>427.0</ele><time>2026-04-25T13:03:25Z</time></trkpt><trkpt lat="43.917439420712" lon="10.731147775803443"><ele>427.0</ele><time>2026-04-25T13:03:26Z</time></trkpt><trkpt lat="43.917452570526414" lon="10.731244723193877"><ele>427.0</ele><time>2026-04-25T13:03:27Z</time></trkpt><trkpt lat="43.917475099315794" lon="10.731327957716822"><ele>427.0</ele><time>2026-04-25T13:03:28Z</time></trkpt><trkpt lat="43.91752414846667" lon="10.731396260098448"><ele>427.0</ele><time>2026-04-25T13:03:29Z</time></trkpt><trkpt lat="43.91763242533148" lon="10.731395913913644"><ele>426.33333333333337</ele><time>2026-04-25T13:03:32Z</time></trkpt><trkpt lat="43.91770242813699" lon="10.731358749527338"><ele>425.6666666666667</ele><time>2026-04-25T13:03:33Z</time></trkpt><trkpt lat="43.917770577331936" lon="10.731337846327857"><ele>425.0</ele><time>2026-04-25T13:03:34Z</time></trkpt><trkpt lat="43.917831459910374" lon="10.731300612721858"><ele>424.33333333333337</ele><time>2026-04-25T13:03:35Z</time></trkpt><trkpt lat="43.91790159710133" lon="10.731297083653974"><ele>423.6666666666667</ele><time>2026-04-25T13:03:36Z</time></trkpt><trkpt lat="43.918002684392384" lon="10.731414219078333"><ele>423.0</ele><time>2026-04-25T13:03:38Z</time></trkpt><trkpt lat="43.918048168481775" lon="10.731523132746501"><ele>423.0</ele><time>2026-04-25T13:03:39Z</time></trkpt><trkpt lat="43.91811262171644" lon="10.73158592987135"><ele>423.0</ele><time>2026-04-25T13:03:40Z</time></trkpt><trkpt lat="43.918203504888496" lon="10.731613534335837"><ele>423.0</ele><time>2026-04-25T13:03:41Z</time></trkpt><trkpt lat="43.918280477887606" lon="10.731630562642462"><ele>423.0</ele><time>2026-04-25T13:03:42Z</time></trkpt><trkpt lat="43.91836450294507" lon="10.731677101332524"><ele>423.0</ele><time>2026-04-25T13:03:43Z</time></trkpt><trkpt lat="43.91847973753768" lon="10.731624779157693"><ele>423.5</ele><time>2026-04-25T13:03:45Z</time></trkpt><trkpt lat="43.918552184086174" lon="10.731556734670153"><ele>424.0</ele><time>2026-04-25T13:03:46Z</time></trkpt><trkpt lat="43.91862112168642" lon="10.731461808531467"><ele>424.5</ele><time>2026-04-25T13:03:47Z</time></trkpt><trkpt lat="43.918681497265794" lon="10.731395508848266"><ele>425.0</ele><time>2026-04-25T13:03:48Z</time></trkpt><trkpt lat="43.91875969413733" lon="10.731378089742035"><ele>425.5</ele><time>2026-04-25T13:03:49Z</time></trkpt><trkpt lat="43.918861208724444" lon="10.731373783360443"><ele>426.0</ele><time>2026-04-25T13:03:50Z</time></trkpt><trkpt lat="43.9189318645628" lon="10.731383498865428"><ele>426.0</ele><time>2026-04-25T13:03:51Z</time></trkpt><trkpt lat="43.91902065723527" lon="10.731379985682318"><ele>426.0</ele><time>2026-04-25T13:03:52Z</time></trkpt><trkpt lat="43.9190904388007" lon="10.731349683515223"><ele>426.0</ele><time>2026-04-25T13:03:53Z</time></trkpt><trkpt lat="43.91916132228663" lon="10.731284988900487"><ele>426.0</ele><time>2026-04-25T13:03:54Z</time></trkpt><trkpt lat="43.91922693855192" lon="10.731199694846197"><ele>426.0</ele><time>2026-04-25T13:03:55Z</time></trkpt><trkpt lat="43.91923492243672" lon="10.7310822564123"><ele>426.0</ele><time>2026-04-25T13:03:56Z</time></trkpt><trkpt lat="43.919269051251185" lon="10.730997697474121"><ele>428.4</ele><time>2026-04-25T13:03:57Z</time></trkpt><trkpt lat="43.91938516332882" lon="10.730943358429174"><ele>430.8</ele><time>2026-04-25T13:03:59Z</time></trkpt><trkpt lat="43.919506593849064" lon="10.730961118195847"><ele>433.19999999999993</ele><time>2026-04-25T13:04:01Z</time></trkpt><trkpt lat="43.91955587469356" lon="10.731031531767254"><ele>435.59999999999997</ele><time>2026-04-25T13:04:02Z</time></trkpt><trkpt lat="43.91960703896212" lon="10.73110356016469"><ele>438.0</ele><time>2026-04-25T13:04:03Z</time></trkpt><trkpt lat="43.91967017195425" lon="10.731173875632791"><ele>438.0</ele><time>2026-04-25T13:04:04Z</time></trkpt><trkpt lat="43.919754972851145" lon="10.731218582872373"><ele>438.0</ele><time>2026-04-25T13:04:06Z</time></trkpt><trkpt lat="43.919820466492226" lon="10.731133676696365"><ele>438.0</ele><time>2026-04-25T13:04:08Z</time></trkpt><trkpt lat="43.91987864804721" lon="10.731085749949427"><ele>438.0</ele><time>2026-04-25T13:04:09Z</time></trkpt><trkpt lat="43.91994633967494" lon="10.731043308210642"><ele>438.0</ele><time>2026-04-25T13:04:10Z</time></trkpt><trkpt lat="43.92001803189692" lon="10.731004610899983"><ele>438.0</ele><time>2026-04-25T13:04:11Z</time></trkpt><trkpt lat="43.92010074596266" lon="10.730946610800364"><ele>443.5</ele><time>2026-04-25T13:04:12Z</time></trkpt><trkpt lat="43.920182967705856" lon="10.730878651213589"><ele>449.0</ele><time>2026-04-25T13:04:13Z</time></trkpt><trkpt lat="43.92025282183895" lon="10.73083264684308"><ele>454.5</ele><time>2026-04-25T13:04:14Z</time></trkpt><trkpt lat="43.920282531678424" lon="10.730723215415892"><ele>460.0</ele><time>2026-04-25T13:04:16Z</time></trkpt><trkpt lat="43.920192555786976" lon="10.73066529700514"><ele>465.5</ele><time>2026-04-25T13:04:35Z</time></trkpt><trkpt lat="43.920176196500286" lon="10.73055822759299"><ele>471.0</ele><time>2026-04-25T13:04:37Z</time></trkpt><trkpt lat="43.92027379638951" lon="10.730451474981253"><ele>471.0</ele><time>2026-04-25T13:04:39Z</time></trkpt><trkpt lat="43.92025483444202" lon="10.730270885096528"><ele>471.0</ele><time>2026-04-25T13:04:41Z</time></trkpt><trkpt lat="43.92027903367865" lon="10.730185010202518"><ele>471.0</ele><time>2026-04-25T13:04:43Z</time></trkpt><trkpt lat="43.9203524287482" lon="10.730211467958963"><ele>471.0</ele><time>2026-04-25T13:04:45Z</time></trkpt><trkpt lat="43.92042671365019" lon="10.730231661651553"><ele>471.0</ele><time>2026-04-25T13:04:47Z</time></trkpt><trkpt lat="43.92047990165365" lon="10.730125093163032"><ele>471.0</ele><time>2026-04-25T13:04:50Z</time></trkpt><trkpt lat="43.92050086714691" lon="10.730033644520107"><ele>470.5</ele><time>2026-04-25T13:04:51Z</time></trkpt><trkpt lat="43.92053609083285" lon="10.729942000464082"><ele>470.0</ele><time>2026-04-25T13:04:52Z</time></trkpt><trkpt lat="43.92057521923027" lon="10.729845451877598"><ele>469.5</ele><time>2026-04-25T13:04:53Z</time></trkpt><trkpt lat="43.92061851050368" lon="10.729755872974524"><ele>469.0</ele><time>2026-04-25T13:04:54Z</time></trkpt><trkpt lat="43.92066577946446" lon="10.729676702671917"><ele>468.5</ele><time>2026-04-25T13:04:55Z</time></trkpt><trkpt lat="43.920745357086886" lon="10.729626839044352"><ele>468.0</ele><time>2026-04-25T13:04:56Z</time></trkpt><trkpt lat="43.92081624805205" lon="10.729611431560272"><ele>468.0</ele><time>2026-04-25T13:04:57Z</time></trkpt><trkpt lat="43.920889985643825" lon="10.729603680662331"><ele>468.0</ele><time>2026-04-25T13:04:58Z</time></trkpt><trkpt lat="43.920959700270075" lon="10.729608137925297"><ele>468.0</ele><time>2026-04-25T13:04:59Z</time></trkpt><trkpt lat="43.92103289582053" lon="10.729623187051207"><ele>468.0</ele><time>2026-04-25T13:05:00Z</time></trkpt><trkpt lat="43.92111332088591" lon="10.729644809437776"><ele>468.0</ele><time>2026-04-25T13:05:01Z</time></trkpt><trkpt lat="43.92119068167531" lon="10.729660363301171"><ele>468.0</ele><time>2026-04-25T13:05:02Z</time></trkpt><trkpt lat="43.921266755824284" lon="10.729684285430581"><ele>468.8333333333333</ele><time>2026-04-25T13:05:03Z</time></trkpt><trkpt lat="43.92135334266869" lon="10.729718814619707"><ele>469.66666666666663</ele><time>2026-04-25T13:05:04Z</time></trkpt><trkpt lat="43.921426258981384" lon="10.729697986481114"><ele>470.5</ele><time>2026-04-25T13:05:05Z</time></trkpt><trkpt lat="43.92150589249936" lon="10.729662181565663"><ele>471.3333333333333</ele><time>2026-04-25T13:05:06Z</time></trkpt><trkpt lat="43.921575773226664" lon="10.729591331151596"><ele>472.16666666666663</ele><time>2026-04-25T13:05:07Z</time></trkpt><trkpt lat="43.921634385549005" lon="10.729503481888056"><ele>473.0</ele><time>2026-04-25T13:05:08Z</time></trkpt><trkpt lat="43.92170920817052" lon="10.729434857112144"><ele>472.66666666666663</ele><time>2026-04-25T13:05:09Z</time></trkpt><trkpt lat="43.921790268289286" lon="10.729404048922472"><ele>472.3333333333333</ele><time>2026-04-25T13:05:10Z</time></trkpt><trkpt lat="43.92186963985732" lon="10.729428457954205"><ele>472.0</ele><time>2026-04-25T13:05:11Z</time></trkpt><trkpt lat="43.92195754494385" lon="10.729451306797422"><ele>471.66666666666663</ele><time>2026-04-25T13:05:12Z</time></trkpt><trkpt lat="43.922036569679065" lon="10.729487433069043"><ele>471.3333333333333</ele><time>2026-04-25T13:05:13Z</time></trkpt><trkpt lat="43.92212621411149" lon="10.729474481078213"><ele>471.0</ele><time>2026-04-25T13:05:14Z</time></trkpt><trkpt lat="43.92220661054029" lon="10.729463110242405"><ele>471.0</ele><time>2026-04-25T13:05:15Z</time></trkpt><trkpt lat="43.92227765032375" lon="10.729472495153145"><ele>471.0</ele><time>2026-04-25T13:05:16Z</time></trkpt><trkpt lat="43.92234935162803" lon="10.729495497519197"><ele>471.0</ele><time>2026-04-25T13:05:17Z</time></trkpt><trkpt lat="43.922430222422456" lon="10.729536285480641"><ele>471.0</ele><time>2026-04-25T13:05:18Z</time></trkpt><trkpt lat="43.922500489184806" lon="10.729585571941492"><ele>471.0</ele><time>2026-04-25T13:05:19Z</time></trkpt><trkpt lat="43.92257139156449" lon="10.729626460216785"><ele>471.0</ele><time>2026-04-25T13:05:20Z</time></trkpt><trkpt lat="43.92263222237064" lon="10.729678221049543"><ele>470.6666666666667</ele><time>2026-04-25T13:05:21Z</time></trkpt><trkpt lat="43.922698652997816" lon="10.729734087206422"><ele>470.33333333333337</ele><time>2026-04-25T13:05:22Z</time></trkpt><trkpt lat="43.922762776861326" lon="10.72976281677385"><ele>470.0</ele><time>2026-04-25T13:05:23Z</time></trkpt><trkpt lat="43.922872585617796" lon="10.729696272216408"><ele>469.6666666666667</ele><time>2026-04-25T13:05:25Z</time></trkpt><trkpt lat="43.922954260923525" lon="10.729669135019126"><ele>469.33333333333337</ele><time>2026-04-25T13:05:27Z</time></trkpt><trkpt lat="43.92302791526061" lon="10.729764279292063"><ele>469.0</ele><time>2026-04-25T13:05:29Z</time></trkpt><trkpt lat="43.923102408535776" lon="10.729837723392333"><ele>469.00000000000006</ele><time>2026-04-25T13:05:30Z</time></trkpt><trkpt lat="43.92317686406523" lon="10.729873341941552"><ele>469.0</ele><time>2026-04-25T13:05:31Z</time></trkpt><trkpt lat="43.923250287107926" lon="10.729890889401792"><ele>469.0</ele><time>2026-04-25T13:05:32Z</time></trkpt><trkpt lat="43.923313293105686" lon="10.729935115294982"><ele>469.0</ele><time>2026-04-25T13:05:33Z</time></trkpt><trkpt lat="43.923422619484015" lon="10.730001401211098"><ele>469.00000000000006</ele><time>2026-04-25T13:05:35Z</time></trkpt><trkpt lat="43.92348709927535" lon="10.730008528627376"><ele>469.0</ele><time>2026-04-25T13:05:36Z</time></trkpt><trkpt lat="43.92356503369892" lon="10.730005886272197"><ele>470.57142857142856</ele><time>2026-04-25T13:05:37Z</time></trkpt><trkpt lat="43.923648622940355" lon="10.730028221316177"><ele>472.1428571428571</ele><time>2026-04-25T13:05:38Z</time></trkpt><trkpt lat="43.923725600433016" lon="10.730046498688512"><ele>473.7142857142857</ele><time>2026-04-25T13:05:39Z</time></trkpt><trkpt lat="43.92378158441832" lon="10.730090994373983"><ele>475.2857142857143</ele><time>2026-04-25T13:05:40Z</time></trkpt><trkpt lat="43.92382266283046" lon="10.730157531901646"><ele>476.85714285714283</ele><time>2026-04-25T13:05:41Z</time></trkpt><trkpt lat="43.92386659232719" lon="10.730230496608405"><ele>478.42857142857144</ele><time>2026-04-25T13:05:42Z</time></trkpt><trkpt lat="43.92393358716372" lon="10.73030151660919"><ele>480.0</ele><time>2026-04-25T13:05:43Z</time></trkpt><trkpt lat="43.92399475001756" lon="10.730350107538886"><ele>480.0</ele><time>2026-04-25T13:05:45Z</time></trkpt><trkpt lat="43.92394368525611" lon="10.73028607531532"><ele>480.0</ele><time>2026-04-25T13:06:02Z</time></trkpt><trkpt lat="43.924003979183624" lon="10.730362764170849"><ele>480.0</ele><time>2026-04-25T13:07:59Z</time></trkpt><trkpt lat="43.92403978372574" lon="10.730471558076644"><ele>480.0</ele><time>2026-04-25T13:08:01Z</time></trkpt><trkpt lat="43.92410644156469" lon="10.730434064600429"><ele>480.0</ele><time>2026-04-25T13:08:11Z</time></trkpt><trkpt lat="43.924211676443846" lon="10.730341719080561"><ele>480.0</ele><time>2026-04-25T13:08:13Z</time></trkpt><trkpt lat="43.924307082937815" lon="10.730275264342728"><ele>480.8</ele><time>2026-04-25T13:08:15Z</time></trkpt><trkpt lat="43.924305508516376" lon="10.730186179236945"><ele>481.6</ele><time>2026-04-25T13:08:18Z</time></trkpt><trkpt lat="43.9241976783191" lon="10.730160762759402"><ele>482.4</ele><time>2026-04-25T13:08:20Z</time></trkpt><trkpt lat="43.92408864878593" lon="10.730069400755658"><ele>483.2</ele><time>2026-04-25T13:08:23Z</time></trkpt><trkpt lat="43.92404898556864" lon="10.729983667388277"><ele>484.0</ele><time>2026-04-25T13:08:24Z</time></trkpt><trkpt lat="43.924004978443385" lon="10.7298969875647"><ele>484.00000000000006</ele><time>2026-04-25T13:08:25Z</time></trkpt><trkpt lat="43.92397257289463" lon="10.729808909737402"><ele>484.0</ele><time>2026-04-25T13:08:26Z</time></trkpt><trkpt lat="43.92390668233999" lon="10.729745974349028"><ele>484.0</ele><time>2026-04-25T13:08:27Z</time></trkpt><trkpt lat="43.923848493749" lon="10.72969098196878"><ele>484.0</ele><time>2026-04-25T13:08:28Z</time></trkpt><trkpt lat="43.92379916318586" lon="10.729634420199874"><ele>484.00000000000006</ele><time>2026-04-25T13:08:29Z</time></trkpt><trkpt lat="43.92376203842765" lon="10.729484790390504"><ele>484.0</ele><time>2026-04-25T13:08:31Z</time></trkpt><trkpt lat="43.923744680110666" lon="10.729331557331738"><ele>485.33333333333337</ele><time>2026-04-25T13:08:33Z</time></trkpt><trkpt lat="43.92371488437739" lon="10.7292542888841"><ele>486.6666666666667</ele><time>2026-04-25T13:08:34Z</time></trkpt><trkpt lat="43.92369277685519" lon="10.72914141127487"><ele>488.0</ele><time>2026-04-25T13:08:35Z</time></trkpt><trkpt lat="43.92367045965266" lon="10.729033323846688"><ele>489.33333333333337</ele><time>2026-04-25T13:08:36Z</time></trkpt><trkpt lat="43.92364601364198" lon="10.728942640174765"><ele>490.6666666666667</ele><time>2026-04-25T13:08:37Z</time></trkpt><trkpt lat="43.923631813740876" lon="10.728811070436667"><ele>492.0</ele><time>2026-04-25T13:08:39Z</time></trkpt><trkpt lat="43.92355994810426" lon="10.728676217097435"><ele>492.0</ele><time>2026-04-25T13:08:41Z</time></trkpt><trkpt lat="43.92349746255192" lon="10.72860930672989"><ele>492.00000000000006</ele><time>2026-04-25T13:08:42Z</time></trkpt><trkpt lat="43.92341865179396" lon="10.728561146272723"><ele>492.00000000000006</ele><time>2026-04-25T13:08:43Z</time></trkpt><trkpt lat="43.923326785960015" lon="10.728514417728725"><ele>492.0</ele><time>2026-04-25T13:08:44Z</time></trkpt><trkpt lat="43.92324136063401" lon="10.728457222373063"><ele>492.0</ele><time>2026-04-25T13:08:45Z</time></trkpt><trkpt lat="43.92315071419978" lon="10.728381426313659"><ele>490.40000000000003</ele><time>2026-04-25T13:08:46Z</time></trkpt><trkpt lat="43.923056653508944" lon="10.72830804861701"><ele>488.80000000000007</ele><time>2026-04-25T13:08:47Z</time></trkpt><trkpt lat="43.92297488648352" lon="10.728227858540695"><ele>487.2</ele><time>2026-04-25T13:08:48Z</time></trkpt><trkpt lat="43.92290392662597" lon="10.728132205226942"><ele>485.6</ele><time>2026-04-25T13:08:49Z</time></trkpt><trkpt lat="43.92283983957035" lon="10.728038377786786"><ele>484.0</ele><time>2026-04-25T13:08:50Z</time></trkpt><trkpt lat="43.92278322470743" lon="10.727932424140985"><ele>484.0</ele><time>2026-04-25T13:08:51Z</time></trkpt><trkpt lat="43.922733354279586" lon="10.727814151482367"><ele>484.0</ele><time>2026-04-25T13:08:52Z</time></trkpt><trkpt lat="43.922695562615274" lon="10.727681163651496"><ele>484.0</ele><time>2026-04-25T13:08:53Z</time></trkpt><trkpt lat="43.92267896906319" lon="10.727558551133876"><ele>484.0</ele><time>2026-04-25T13:08:54Z</time></trkpt><trkpt lat="43.92263007797707" lon="10.727437279508917"><ele>484.0</ele><time>2026-04-25T13:08:55Z</time></trkpt><trkpt lat="43.92258466975029" lon="10.727338163260752"><ele>482.0</ele><time>2026-04-25T13:08:56Z</time></trkpt><trkpt lat="43.92253974854658" lon="10.727237959564405"><ele>480.0</ele><time>2026-04-25T13:08:57Z</time></trkpt><trkpt lat="43.92244785462498" lon="10.727099079660617"><ele>478.0</ele><time>2026-04-25T13:08:59Z</time></trkpt><trkpt lat="43.92236526670873" lon="10.726958885186258"><ele>476.0</ele><time>2026-04-25T13:09:01Z</time></trkpt><trkpt lat="43.922328047043386" lon="10.726875907067598"><ele>474.0</ele><time>2026-04-25T13:09:02Z</time></trkpt><trkpt lat="43.92230936694631" lon="10.726758928728406"><ele>473.3333333333333</ele><time>2026-04-25T13:09:03Z</time></trkpt><trkpt lat="43.92230689924436" lon="10.726653519830341"><ele>472.66666666666663</ele><time>2026-04-25T13:09:04Z</time></trkpt><trkpt lat="43.92230691270864" lon="10.726547194202288"><ele>472.0</ele><time>2026-04-25T13:09:05Z</time></trkpt><trkpt lat="43.92229287083737" lon="10.726441666905513"><ele>471.3333333333333</ele><time>2026-04-25T13:09:06Z</time></trkpt><trkpt lat="43.92225939423846" lon="10.726339319030508"><ele>470.66666666666663</ele><time>2026-04-25T13:09:07Z</time></trkpt><trkpt lat="43.92221940851998" lon="10.726216006964577"><ele>470.0</ele><time>2026-04-25T13:09:08Z</time></trkpt><trkpt lat="43.92220749295285" lon="10.726097746137375"><ele>468.49999999999994</ele><time>2026-04-25T13:09:09Z</time></trkpt><trkpt lat="43.92219299552021" lon="10.725988189098015"><ele>467.0</ele><time>2026-04-25T13:09:10Z</time></trkpt><trkpt lat="43.922173034528875" lon="10.725886223364984"><ele>465.5</ele><time>2026-04-25T13:09:11Z</time></trkpt><trkpt lat="43.92216348676385" lon="10.725782541258315"><ele>464.0</ele><time>2026-04-25T13:09:12Z</time></trkpt><trkpt lat="43.92215384534858" lon="10.72563477934751"><ele>462.49999999999994</ele><time>2026-04-25T13:09:14Z</time></trkpt><trkpt lat="43.9222046104697" lon="10.725538916025423"><ele>461.0</ele><time>2026-04-25T13:09:16Z</time></trkpt><trkpt lat="43.92232444218246" lon="10.725537642518674"><ele>460.99999999999994</ele><time>2026-04-25T13:09:18Z</time></trkpt><trkpt lat="43.92238738028985" lon="10.725552868229489"><ele>461.0</ele><time>2026-04-25T13:09:19Z</time></trkpt><trkpt lat="43.92244481121292" lon="10.725601728209876"><ele>461.0</ele><time>2026-04-25T13:09:20Z</time></trkpt><trkpt lat="43.92248047725442" lon="10.725701655911033"><ele>461.0</ele><time>2026-04-25T13:09:21Z</time></trkpt><trkpt lat="43.92249877618711" lon="10.72581375787435"><ele>460.99999999999994</ele><time>2026-04-25T13:09:22Z</time></trkpt><trkpt lat="43.92251557435581" lon="10.725918929639285"><ele>461.0</ele><time>2026-04-25T13:09:23Z</time></trkpt><trkpt lat="43.92256275731047" lon="10.726015989578409"><ele>462.66666666666663</ele><time>2026-04-25T13:09:24Z</time></trkpt><trkpt lat="43.92262438574323" lon="10.726090861752636"><ele>464.3333333333333</ele><time>2026-04-25T13:09:25Z</time></trkpt><trkpt lat="43.922668458236664" lon="10.72618010707135"><ele>466.0</ele><time>2026-04-25T13:09:26Z</time></trkpt><trkpt lat="43.92272727081472" lon="10.726249469927266"><ele>467.66666666666663</ele><time>2026-04-25T13:09:27Z</time></trkpt><trkpt lat="43.9228138330532" lon="10.726339374307623"><ele>469.3333333333333</ele><time>2026-04-25T13:09:29Z</time></trkpt><trkpt lat="43.922906542458904" lon="10.726286299027276"><ele>471.0</ele><time>2026-04-25T13:09:31Z</time></trkpt><trkpt lat="43.92292537766258" lon="10.726099117815656"><ele>469.0</ele><time>2026-04-25T13:09:33Z</time></trkpt><trkpt lat="43.92295008707469" lon="10.725992074656045"><ele>467.0</ele><time>2026-04-25T13:09:34Z</time></trkpt><trkpt lat="43.92296941912806" lon="10.725877626504431"><ele>465.0</ele><time>2026-04-25T13:09:35Z</time></trkpt><trkpt lat="43.92298739836324" lon="10.725769956439356"><ele>463.0</ele><time>2026-04-25T13:09:36Z</time></trkpt><trkpt lat="43.922997592289065" lon="10.725679062799655"><ele>461.0</ele><time>2026-04-25T13:09:37Z</time></trkpt><trkpt lat="43.9230480132971" lon="10.72559453200387"><ele>459.0</ele><time>2026-04-25T13:09:38Z</time></trkpt><trkpt lat="43.92311351080097" lon="10.725511212366978"><ele>459.0</ele><time>2026-04-25T13:09:39Z</time></trkpt><trkpt lat="43.92318787768333" lon="10.725431829431873"><ele>459.0</ele><time>2026-04-25T13:09:40Z</time></trkpt><trkpt lat="43.923286814242985" lon="10.725383776238784"><ele>459.0</ele><time>2026-04-25T13:09:41Z</time></trkpt><trkpt lat="43.923393161610036" lon="10.725357447724312"><ele>459.0</ele><time>2026-04-25T13:09:42Z</time></trkpt><trkpt lat="43.923499567460915" lon="10.725311893676144"><ele>459.0</ele><time>2026-04-25T13:09:43Z</time></trkpt><trkpt lat="43.92359615130335" lon="10.725239906656832"><ele>457.4</ele><time>2026-04-25T13:09:44Z</time></trkpt><trkpt lat="43.923680115231555" lon="10.725164021663485"><ele>455.79999999999995</ele><time>2026-04-25T13:09:45Z</time></trkpt><trkpt lat="43.92378142349921" lon="10.725112442754003"><ele>454.20000000000005</ele><time>2026-04-25T13:09:46Z</time></trkpt><trkpt lat="43.923878305836084" lon="10.725077918416979"><ele>452.6</ele><time>2026-04-25T13:09:47Z</time></trkpt><trkpt lat="43.92398463240644" lon="10.725034783623975"><ele>451.0</ele><time>2026-04-25T13:09:48Z</time></trkpt><trkpt lat="43.92408752744849" lon="10.724994595840847"><ele>451.0</ele><time>2026-04-25T13:09:49Z</time></trkpt><trkpt lat="43.924203226067206" lon="10.72497929295469"><ele>451.0</ele><time>2026-04-25T13:09:50Z</time></trkpt><trkpt lat="43.9243148138313" lon="10.724967679309831"><ele>451.0</ele><time>2026-04-25T13:09:51Z</time></trkpt><trkpt lat="43.924426667453005" lon="10.724963351988091"><ele>451.0</ele><time>2026-04-25T13:09:52Z</time></trkpt><trkpt lat="43.924524216316115" lon="10.72496384762996"><ele>451.0</ele><time>2026-04-25T13:09:53Z</time></trkpt><trkpt lat="43.924623979625764" lon="10.724954451541462"><ele>451.6</ele><time>2026-04-25T13:09:54Z</time></trkpt><trkpt lat="43.924708748521894" lon="10.724895046725278"><ele>452.20000000000005</ele><time>2026-04-25T13:09:55Z</time></trkpt><trkpt lat="43.924779374176154" lon="10.724820050380227"><ele>452.79999999999995</ele><time>2026-04-25T13:09:56Z</time></trkpt><trkpt lat="43.924844691331614" lon="10.72470358951873"><ele>453.4</ele><time>2026-04-25T13:09:57Z</time></trkpt><trkpt lat="43.92488218496229" lon="10.724534902073525"><ele>454.0</ele><time>2026-04-25T13:09:58Z</time></trkpt><trkpt lat="43.92492405758727" lon="10.724395857133146"><ele>452.79999999999995</ele><time>2026-04-25T13:09:59Z</time></trkpt><trkpt lat="43.92495538314695" lon="10.724261441534644"><ele>451.59999999999997</ele><time>2026-04-25T13:10:00Z</time></trkpt><trkpt lat="43.92498856021336" lon="10.724136363128078"><ele>450.4</ele><time>2026-04-25T13:10:01Z</time></trkpt><trkpt lat="43.92502159808668" lon="10.724023351952356"><ele>449.2</ele><time>2026-04-25T13:10:02Z</time></trkpt><trkpt lat="43.92507061564617" lon="10.723937794973217"><ele>448.0</ele><time>2026-04-25T13:10:03Z</time></trkpt><trkpt lat="43.92514577896155" lon="10.723864209038885"><ele>448.00000000000006</ele><time>2026-04-25T13:10:04Z</time></trkpt><trkpt lat="43.925222589166786" lon="10.7238134127598"><ele>448.0</ele><time>2026-04-25T13:10:05Z</time></trkpt><trkpt lat="43.92529067126962" lon="10.723779554915199"><ele>448.0</ele><time>2026-04-25T13:10:06Z</time></trkpt><trkpt lat="43.92535432206104" lon="10.723787781407617"><ele>448.0</ele><time>2026-04-25T13:10:07Z</time></trkpt><trkpt lat="43.925435594431335" lon="10.723810233550864"><ele>448.00000000000006</ele><time>2026-04-25T13:10:08Z</time></trkpt><trkpt lat="43.9255232436053" lon="10.723804690820668"><ele>448.0</ele><time>2026-04-25T13:10:09Z</time></trkpt><trkpt lat="43.92559855439199" lon="10.723723408763803"><ele>448.0</ele><time>2026-04-25T13:10:10Z</time></trkpt><trkpt lat="43.925694300930225" lon="10.723669306995534"><ele>447.99999999999994</ele><time>2026-04-25T13:10:11Z</time></trkpt><trkpt lat="43.92577481070037" lon="10.723606442829443"><ele>447.99999999999994</ele><time>2026-04-25T13:10:12Z</time></trkpt><trkpt lat="43.92581603891835" lon="10.72353376109606"><ele>448.0</ele><time>2026-04-25T13:10:13Z</time></trkpt><trkpt lat="43.925866111382675" lon="10.72346965763169"><ele>448.0</ele><time>2026-04-25T13:10:14Z</time></trkpt><trkpt lat="43.92600329568851" lon="10.723431304767645"><ele>447.4</ele><time>2026-04-25T13:10:16Z</time></trkpt><trkpt lat="43.92609021669671" lon="10.723431787019516"><ele>446.79999999999995</ele><time>2026-04-25T13:10:17Z</time></trkpt><trkpt lat="43.92617653301643" lon="10.723427646269766"><ele>446.2</ele><time>2026-04-25T13:10:18Z</time></trkpt><trkpt lat="43.92625503615589" lon="10.723444178342403"><ele>445.6</ele><time>2026-04-25T13:10:19Z</time></trkpt><trkpt lat="43.92637057617399" lon="10.72344514077414"><ele>445.0</ele><time>2026-04-25T13:10:21Z</time></trkpt><trkpt lat="43.92639953874309" lon="10.72332131255162"><ele>445.0</ele><time>2026-04-25T13:10:23Z</time></trkpt><trkpt lat="43.92640620560676" lon="10.723098643070493"><ele>445.0</ele><time>2026-04-25T13:10:25Z</time></trkpt><trkpt lat="43.92636608631215" lon="10.722941814439675"><ele>445.0</ele><time>2026-04-25T13:10:26Z</time></trkpt><trkpt lat="43.9263223025156" lon="10.722756974137813"><ele>445.0</ele><time>2026-04-25T13:10:27Z</time></trkpt><trkpt lat="43.926309540992214" lon="10.722603365882996"><ele>442.6</ele><time>2026-04-25T13:10:28Z</time></trkpt><trkpt lat="43.92631902232428" lon="10.722479635330428"><ele>440.2</ele><time>2026-04-25T13:10:29Z</time></trkpt><trkpt lat="43.9264069689116" lon="10.722370345318183"><ele>437.79999999999995</ele><time>2026-04-25T13:10:31Z</time></trkpt><trkpt lat="43.92649363119548" lon="10.72234932752251"><ele>435.4</ele><time>2026-04-25T13:10:32Z</time></trkpt><trkpt lat="43.926592551711664" lon="10.722302394519584"><ele>433.0</ele><time>2026-04-25T13:10:33Z</time></trkpt><trkpt lat="43.926682319673304" lon="10.722289020065709"><ele>432.00000000000006</ele><time>2026-04-25T13:10:34Z</time></trkpt><trkpt lat="43.926774115496386" lon="10.722304776451082"><ele>431.0</ele><time>2026-04-25T13:10:35Z</time></trkpt><trkpt lat="43.92683796316804" lon="10.722349402620182"><ele>430.0</ele><time>2026-04-25T13:10:36Z</time></trkpt><trkpt lat="43.92690718566091" lon="10.722426976186926"><ele>429.0</ele><time>2026-04-25T13:10:37Z</time></trkpt><trkpt lat="43.92697333318064" lon="10.722516304893725"><ele>428.00000000000006</ele><time>2026-04-25T13:10:38Z</time></trkpt><trkpt lat="43.92705731684653" lon="10.722582915527981"><ele>427.0</ele><time>2026-04-25T13:10:39Z</time></trkpt><trkpt lat="43.92713899990174" lon="10.722644747586566"><ele>427.00000000000006</ele><time>2026-04-25T13:10:40Z</time></trkpt><trkpt lat="43.92720542759001" lon="10.722730869372246"><ele>427.0</ele><time>2026-04-25T13:10:41Z</time></trkpt><trkpt lat="43.92727297560201" lon="10.72279947556834"><ele>427.0</ele><time>2026-04-25T13:10:42Z</time></trkpt><trkpt lat="43.927363143641976" lon="10.722881109687224"><ele>427.0</ele><time>2026-04-25T13:10:43Z</time></trkpt><trkpt lat="43.92742207562558" lon="10.722956597172423"><ele>427.00000000000006</ele><time>2026-04-25T13:10:44Z</time></trkpt><trkpt lat="43.92748034994097" lon="10.723043139754063"><ele>427.0</ele><time>2026-04-25T13:10:45Z</time></trkpt><trkpt lat="43.92755095916894" lon="10.723122712338506"><ele>430.00000000000006</ele><time>2026-04-25T13:10:46Z</time></trkpt><trkpt lat="43.92760478522119" lon="10.72321431811998"><ele>433.0</ele><time>2026-04-25T13:10:47Z</time></trkpt><trkpt lat="43.927647547181536" lon="10.723330784575257"><ele>436.0</ele><time>2026-04-25T13:10:48Z</time></trkpt><trkpt lat="43.927691187801265" lon="10.723431118788163"><ele>439.0</ele><time>2026-04-25T13:10:49Z</time></trkpt><trkpt lat="43.92772552987508" lon="10.723510916688184"><ele>442.00000000000006</ele><time>2026-04-25T13:10:50Z</time></trkpt><trkpt lat="43.927799104850905" lon="10.723541657084827"><ele>445.0</ele><time>2026-04-25T13:10:52Z</time></trkpt><trkpt lat="43.927841373321485" lon="10.723451120491857"><ele>445.0</ele><time>2026-04-25T13:10:53Z</time></trkpt><trkpt lat="43.92785317759269" lon="10.723344392268343"><ele>445.0</ele><time>2026-04-25T13:10:54Z</time></trkpt><trkpt lat="43.92787735363685" lon="10.723244629295078"><ele>445.0</ele><time>2026-04-25T13:10:55Z</time></trkpt><trkpt lat="43.927941864036534" lon="10.72313901969804"><ele>445.0</ele><time>2026-04-25T13:10:56Z</time></trkpt><trkpt lat="43.92802172259311" lon="10.72301127863909"><ele>445.0</ele><time>2026-04-25T13:10:57Z</time></trkpt><trkpt lat="43.92810466118317" lon="10.722897284958448"><ele>445.0</ele><time>2026-04-25T13:10:58Z</time></trkpt><trkpt lat="43.92818171978466" lon="10.72280981221593"><ele>445.0</ele><time>2026-04-25T13:10:59Z</time></trkpt><trkpt lat="43.928278869225764" lon="10.72274988851598"><ele>445.0</ele><time>2026-04-25T13:11:00Z</time></trkpt><trkpt lat="43.92838325573825" lon="10.722680790239181"><ele>445.0</ele><time>2026-04-25T13:11:01Z</time></trkpt><trkpt lat="43.92848219042524" lon="10.722615720832868"><ele>445.0</ele><time>2026-04-25T13:11:02Z</time></trkpt><trkpt lat="43.928570756851634" lon="10.722559301861619"><ele>445.33333333333337</ele><time>2026-04-25T13:11:03Z</time></trkpt><trkpt lat="43.928597136725045" lon="10.722402863295201"><ele>445.6666666666667</ele><time>2026-04-25T13:11:05Z</time></trkpt><trkpt lat="43.92855240055505" lon="10.72233000608258"><ele>446.0</ele><time>2026-04-25T13:11:06Z</time></trkpt><trkpt lat="43.92850284320497" lon="10.722232261268847"><ele>446.33333333333337</ele><time>2026-04-25T13:11:07Z</time></trkpt><trkpt lat="43.92848734731243" lon="10.722115684212618"><ele>446.6666666666667</ele><time>2026-04-25T13:11:08Z</time></trkpt><trkpt lat="43.928494790665425" lon="10.72199091233508"><ele>447.0</ele><time>2026-04-25T13:11:09Z</time></trkpt><trkpt lat="43.92849525142972" lon="10.721853449981648"><ele>447.0</ele><time>2026-04-25T13:11:10Z</time></trkpt><trkpt lat="43.92847775198362" lon="10.721699239653056"><ele>447.00000000000006</ele><time>2026-04-25T13:11:11Z</time></trkpt><trkpt lat="43.92843712471688" lon="10.721565325128195"><ele>447.00000000000006</ele><time>2026-04-25T13:11:12Z</time></trkpt><trkpt lat="43.92842901820069" lon="10.721461571552727"><ele>447.0</ele><time>2026-04-25T13:11:13Z</time></trkpt><trkpt lat="43.92850186009698" lon="10.721384596633769"><ele>447.0</ele><time>2026-04-25T13:11:15Z</time></trkpt><trkpt lat="43.92863084473746" lon="10.721437784512586"><ele>447.0</ele><time>2026-04-25T13:11:17Z</time></trkpt><trkpt lat="43.92872420261485" lon="10.721494370105367"><ele>447.00000000000006</ele><time>2026-04-25T13:11:18Z</time></trkpt><trkpt lat="43.92883242628655" lon="10.721553317661762"><ele>447.00000000000006</ele><time>2026-04-25T13:11:19Z</time></trkpt><trkpt lat="43.92892879276574" lon="10.721614706346779"><ele>447.0</ele><time>2026-04-25T13:11:20Z</time></trkpt><trkpt lat="43.92902222519205" lon="10.721706549589856"><ele>447.0</ele><time>2026-04-25T13:11:21Z</time></trkpt><trkpt lat="43.929116291842575" lon="10.721790241257533"><ele>447.0</ele><time>2026-04-25T13:11:22Z</time></trkpt><trkpt lat="43.92921053461413" lon="10.721841874582294"><ele>447.00000000000006</ele><time>2026-04-25T13:11:23Z</time></trkpt><trkpt lat="43.929322024140674" lon="10.721849050786647"><ele>447.00000000000006</ele><time>2026-04-25T13:11:24Z</time></trkpt><trkpt lat="43.92941442327505" lon="10.721817980174835"><ele>447.0</ele><time>2026-04-25T13:11:25Z</time></trkpt><trkpt lat="43.92949945789246" lon="10.721839303449494"><ele>447.0</ele><time>2026-04-25T13:11:26Z</time></trkpt><trkpt lat="43.929563217970774" lon="10.721954012189158"><ele>450.2857142857142</ele><time>2026-04-25T13:11:28Z</time></trkpt><trkpt lat="43.9295780632214" lon="10.722062589535433"><ele>453.57142857142856</ele><time>2026-04-25T13:11:29Z</time></trkpt><trkpt lat="43.92959435922323" lon="10.722156442334972"><ele>456.85714285714283</ele><time>2026-04-25T13:11:30Z</time></trkpt><trkpt lat="43.92963238644277" lon="10.72222851092409"><ele>460.1428571428571</ele><time>2026-04-25T13:11:31Z</time></trkpt><trkpt lat="43.929699541270686" lon="10.722259622937441"><ele>463.4285714285714</ele><time>2026-04-25T13:11:32Z</time></trkpt><trkpt lat="43.929766010337715" lon="10.722288041528131"><ele>466.71428571428567</ele><time>2026-04-25T13:11:33Z</time></trkpt><trkpt lat="43.92983696524254" lon="10.722337299239301"><ele>470.0</ele><time>2026-04-25T13:11:34Z</time></trkpt><trkpt lat="43.92990339021056" lon="10.722388968327968"><ele>469.99999999999994</ele><time>2026-04-25T13:11:35Z</time></trkpt><trkpt lat="43.92996257023092" lon="10.722443586144678"><ele>470.0</ele><time>2026-04-25T13:11:36Z</time></trkpt><trkpt lat="43.93002825660504" lon="10.722455154638732"><ele>470.0</ele><time>2026-04-25T13:11:37Z</time></trkpt><trkpt lat="43.93009491891366" lon="10.722451510883918"><ele>470.0</ele><time>2026-04-25T13:11:38Z</time></trkpt><trkpt lat="43.93021191488968" lon="10.722418782618497"><ele>469.99999999999994</ele><time>2026-04-25T13:11:40Z</time></trkpt><trkpt lat="43.93027077061645" lon="10.722275609712156"><ele>470.0</ele><time>2026-04-25T13:11:42Z</time></trkpt><trkpt lat="43.930296961321" lon="10.722130507817123"><ele>470.6</ele><time>2026-04-25T13:11:44Z</time></trkpt><trkpt lat="43.93038114040284" lon="10.722021908654407"><ele>471.2</ele><time>2026-04-25T13:11:46Z</time></trkpt><trkpt lat="43.93048647447279" lon="10.721923568108933"><ele>471.79999999999995</ele><time>2026-04-25T13:11:48Z</time></trkpt><trkpt lat="43.93060602210472" lon="10.721881113110646"><ele>472.4</ele><time>2026-04-25T13:11:50Z</time></trkpt><trkpt lat="43.93067894662078" lon="10.721903380895384"><ele>473.0</ele><time>2026-04-25T13:11:51Z</time></trkpt><trkpt lat="43.93073638618303" lon="10.721947148519325"><ele>473.0</ele><time>2026-04-25T13:11:52Z</time></trkpt><trkpt lat="43.930841545996046" lon="10.722053896578831"><ele>472.99999999999994</ele><time>2026-04-25T13:11:54Z</time></trkpt><trkpt lat="43.930914330088854" lon="10.722210274250356"><ele>472.99999999999994</ele><time>2026-04-25T13:11:56Z</time></trkpt><trkpt lat="43.930986479841756" lon="10.722303519916446"><ele>473.0</ele><time>2026-04-25T13:11:58Z</time></trkpt><trkpt lat="43.93105477088335" lon="10.72224574440723"><ele>473.0</ele><time>2026-04-25T13:12:00Z</time></trkpt><trkpt lat="43.93106538861176" lon="10.72214074340415"><ele>473.16666666666663</ele><time>2026-04-25T13:12:01Z</time></trkpt><trkpt lat="43.93104962523767" lon="10.722049439901602"><ele>473.3333333333333</ele><time>2026-04-25T13:12:02Z</time></trkpt><trkpt lat="43.93104251319682" lon="10.721937920398869"><ele>473.5</ele><time>2026-04-25T13:12:03Z</time></trkpt><trkpt lat="43.93106328701747" lon="10.721844307401986"><ele>473.66666666666663</ele><time>2026-04-25T13:12:04Z</time></trkpt><trkpt lat="43.931077604265234" lon="10.721734200788008"><ele>473.8333333333333</ele><time>2026-04-25T13:12:05Z</time></trkpt><trkpt lat="43.93107900134019" lon="10.72164019096839"><ele>474.0</ele><time>2026-04-25T13:12:06Z</time></trkpt><trkpt lat="43.93114262693111" lon="10.721520268966918"><ele>474.0</ele><time>2026-04-25T13:12:08Z</time></trkpt><trkpt lat="43.93124601733297" lon="10.72146091638831"><ele>474.0</ele><time>2026-04-25T13:12:10Z</time></trkpt><trkpt lat="43.93132245142169" lon="10.721441401919465"><ele>474.0</ele><time>2026-04-25T13:12:11Z</time></trkpt><trkpt lat="43.931399434638564" lon="10.72141875597721"><ele>474.0</ele><time>2026-04-25T13:12:12Z</time></trkpt><trkpt lat="43.931468463787525" lon="10.721376447419592"><ele>474.0</ele><time>2026-04-25T13:12:13Z</time></trkpt><trkpt lat="43.93154088480271" lon="10.721352458219666"><ele>474.0</ele><time>2026-04-25T13:12:14Z</time></trkpt><trkpt lat="43.9316055415199" lon="10.721292770958375"><ele>474.0</ele><time>2026-04-25T13:12:15Z</time></trkpt><trkpt lat="43.93170895279888" lon="10.721221909037855"><ele>474.0</ele><time>2026-04-25T13:12:17Z</time></trkpt><trkpt lat="43.9317759682006" lon="10.721143896696054"><ele>474.0</ele><time>2026-04-25T13:12:19Z</time></trkpt><trkpt lat="43.93176460071585" lon="10.72105678379191"><ele>474.0</ele><time>2026-04-25T13:12:20Z</time></trkpt><trkpt lat="43.9316693776039" lon="10.720938580403697"><ele>474.0</ele><time>2026-04-25T13:12:22Z</time></trkpt><trkpt lat="43.93156997523265" lon="10.720855296357463"><ele>475.6</ele><time>2026-04-25T13:12:23Z</time></trkpt><trkpt lat="43.9315205930366" lon="10.720791218507848"><ele>477.2</ele><time>2026-04-25T13:12:24Z</time></trkpt><trkpt lat="43.931515197125286" lon="10.72063293579319"><ele>478.80000000000007</ele><time>2026-04-25T13:12:26Z</time></trkpt><trkpt lat="43.93157458968203" lon="10.720552077320782"><ele>480.40000000000003</ele><time>2026-04-25T13:12:28Z</time></trkpt><trkpt lat="43.93169428823362" lon="10.720565534828538"><ele>482.0</ele><time>2026-04-25T13:12:30Z</time></trkpt><trkpt lat="43.93177899073852" lon="10.720609105349723"><ele>481.99999999999994</ele><time>2026-04-25T13:12:32Z</time></trkpt><trkpt lat="43.931783858106556" lon="10.72070521623931"><ele>482.0</ele><time>2026-04-25T13:12:34Z</time></trkpt><trkpt lat="43.9318652694911" lon="10.720825100655276"><ele>482.0</ele><time>2026-04-25T13:12:37Z</time></trkpt><trkpt lat="43.93193451525791" lon="10.720872672746603"><ele>482.0</ele><time>2026-04-25T13:12:39Z</time></trkpt><trkpt lat="43.93199373014218" lon="10.720789360710285"><ele>481.99999999999994</ele><time>2026-04-25T13:12:41Z</time></trkpt><trkpt lat="43.932065897325586" lon="10.720753166440632"><ele>482.0</ele><time>2026-04-25T13:12:42Z</time></trkpt><trkpt lat="43.93213645199475" lon="10.720715238987136"><ele>482.0</ele><time>2026-04-25T13:12:43Z</time></trkpt><trkpt lat="43.93224766487439" lon="10.720668420885543"><ele>482.00000000000006</ele><time>2026-04-25T13:12:45Z</time></trkpt><trkpt lat="43.932314658376214" lon="10.720641143493484"><ele>482.00000000000006</ele><time>2026-04-25T13:12:46Z</time></trkpt><trkpt lat="43.93241740821746" lon="10.720569269726647"><ele>482.0</ele><time>2026-04-25T13:12:48Z</time></trkpt><trkpt lat="43.93252937187508" lon="10.720592895661847"><ele>482.0</ele><time>2026-04-25T13:12:50Z</time></trkpt><trkpt lat="43.93263267194517" lon="10.720626868696796"><ele>486.49999999999994</ele><time>2026-04-25T13:12:52Z</time></trkpt><trkpt lat="43.932726880701466" lon="10.72063000229208"><ele>491.0</ele><time>2026-04-25T13:12:55Z</time></trkpt><trkpt lat="43.932818536612984" lon="10.72063648008176"><ele>495.5</ele><time>2026-04-25T13:12:57Z</time></trkpt><trkpt lat="43.932844165573016" lon="10.720536742207447"><ele>500.0</ele><time>2026-04-25T13:13:01Z</time></trkpt><trkpt lat="43.93281733909974" lon="10.720451034471031"><ele>504.49999999999994</ele><time>2026-04-25T13:13:03Z</time></trkpt><trkpt lat="43.932823394589114" lon="10.720323059182567"><ele>509.0</ele><time>2026-04-25T13:13:05Z</time></trkpt><trkpt lat="43.93284160846809" lon="10.720234148108391"><ele>509.2</ele><time>2026-04-25T13:13:06Z</time></trkpt><trkpt lat="43.93289626022736" lon="10.720097628581424"><ele>509.4</ele><time>2026-04-25T13:13:08Z</time></trkpt><trkpt lat="43.93290671891262" lon="10.720001434731808"><ele>509.6</ele><time>2026-04-25T13:13:10Z</time></trkpt><trkpt lat="43.932894774463314" lon="10.719907522161128"><ele>509.8</ele><time>2026-04-25T13:13:12Z</time></trkpt><trkpt lat="43.932835190668335" lon="10.719788889590363"><ele>510.0</ele><time>2026-04-25T13:13:14Z</time></trkpt><trkpt lat="43.932780889340044" lon="10.719661976487284"><ele>510.0</ele><time>2026-04-25T13:13:16Z</time></trkpt><trkpt lat="43.93273986957829" lon="10.71953549822011"><ele>510.0</ele><time>2026-04-25T13:13:18Z</time></trkpt><trkpt lat="43.93272205904031" lon="10.719403108918536"><ele>510.0</ele><time>2026-04-25T13:13:20Z</time></trkpt><trkpt lat="43.9327397891637" lon="10.7192905795311"><ele>510.0</ele><time>2026-04-25T13:13:29Z</time></trkpt><trkpt lat="43.93278383933137" lon="10.719195845170095"><ele>510.0</ele><time>2026-04-25T13:13:31Z</time></trkpt><trkpt lat="43.932830798894194" lon="10.719126772402186"><ele>510.0</ele><time>2026-04-25T13:13:33Z</time></trkpt><trkpt lat="43.93288745625666" lon="10.719060721689463"><ele>509.2</ele><time>2026-04-25T13:13:35Z</time></trkpt><trkpt lat="43.932971110358594" lon="10.718987228241344"><ele>508.4</ele><time>2026-04-25T13:13:37Z</time></trkpt><trkpt lat="43.93303622042505" lon="10.71897095915848"><ele>507.6</ele><time>2026-04-25T13:13:38Z</time></trkpt><trkpt lat="43.93314483089018" lon="10.718929592153572"><ele>506.8</ele><time>2026-04-25T13:13:40Z</time></trkpt><trkpt lat="43.93323814306587" lon="10.718900224953169"><ele>506.0</ele><time>2026-04-25T13:13:42Z</time></trkpt><trkpt lat="43.93334210739029" lon="10.718844656361636"><ele>509.8</ele><time>2026-04-25T13:13:44Z</time></trkpt><trkpt lat="43.93347302772265" lon="10.718746047634447"><ele>513.6</ele><time>2026-04-25T13:13:46Z</time></trkpt><trkpt lat="43.93357726961546" lon="10.718711291831287"><ele>517.4</ele><time>2026-04-25T13:13:48Z</time></trkpt><trkpt lat="43.93363029751684" lon="10.718623434411922"><ele>521.2</ele><time>2026-04-25T13:13:50Z</time></trkpt><trkpt lat="43.93367048288788" lon="10.718540918307749"><ele>525.0</ele><time>2026-04-25T13:14:00Z</time></trkpt><trkpt lat="43.93364318736546" lon="10.7184367530715"><ele>525.0</ele><time>2026-04-25T13:14:02Z</time></trkpt><trkpt lat="43.933630882962966" lon="10.718327370284625"><ele>525.0</ele><time>2026-04-25T13:14:04Z</time></trkpt><trkpt lat="43.9336387786615" lon="10.718224622513903"><ele>525.0</ele><time>2026-04-25T13:14:09Z</time></trkpt><trkpt lat="43.9337009088456" lon="10.718319681364099"><ele>525.0</ele><time>2026-04-25T13:14:13Z</time></trkpt><trkpt lat="43.93375214588746" lon="10.718411004323686"><ele>525.0</ele><time>2026-04-25T13:14:14Z</time></trkpt><trkpt lat="43.93384412432191" lon="10.718494004611635"><ele>525.0</ele><time>2026-04-25T13:14:16Z</time></trkpt><trkpt lat="43.933884248225034" lon="10.718612132568785"><ele>525.8333333333334</ele><time>2026-04-25T13:14:18Z</time></trkpt><trkpt lat="43.933845552882154" lon="10.718752870550047"><ele>526.6666666666666</ele><time>2026-04-25T13:14:20Z</time></trkpt><trkpt lat="43.933786829729655" lon="10.718850550370068"><ele>527.5</ele><time>2026-04-25T13:14:21Z</time></trkpt><trkpt lat="43.93373589863213" lon="10.718915453455764"><ele>528.3333333333333</ele><time>2026-04-25T13:14:22Z</time></trkpt><trkpt lat="43.93368842863308" lon="10.718989692572354"><ele>529.1666666666666</ele><time>2026-04-25T13:14:23Z</time></trkpt><trkpt lat="43.933640745351454" lon="10.719083549973062"><ele>530.0</ele><time>2026-04-25T13:14:24Z</time></trkpt><trkpt lat="43.933585891262446" lon="10.719187955161297"><ele>530.0</ele><time>2026-04-25T13:14:25Z</time></trkpt><trkpt lat="43.93354395763036" lon="10.719276731702411"><ele>530.0</ele><time>2026-04-25T13:14:26Z</time></trkpt><trkpt lat="43.93353208685118" lon="10.719368998518078"><ele>530.0</ele><time>2026-04-25T13:14:27Z</time></trkpt><trkpt lat="43.93354640922097" lon="10.719500815642986"><ele>530.0</ele><time>2026-04-25T13:14:29Z</time></trkpt><trkpt lat="43.93362459705792" lon="10.71963632158217"><ele>530.0</ele><time>2026-04-25T13:14:31Z</time></trkpt><trkpt lat="43.93368238015616" lon="10.719712168874056"><ele>530.0</ele><time>2026-04-25T13:14:32Z</time></trkpt><trkpt lat="43.933755542367734" lon="10.719777967407785"><ele>530.3333333333333</ele><time>2026-04-25T13:14:33Z</time></trkpt><trkpt lat="43.93382022863425" lon="10.719823410359085"><ele>530.6666666666666</ele><time>2026-04-25T13:14:34Z</time></trkpt><trkpt lat="43.93389696617696" lon="10.719807701201074"><ele>531.0</ele><time>2026-04-25T13:14:35Z</time></trkpt><trkpt lat="43.93396260176569" lon="10.719807793096283"><ele>531.3333333333334</ele><time>2026-04-25T13:14:36Z</time></trkpt><trkpt lat="43.93407216215999" lon="10.719824952842565"><ele>531.6666666666667</ele><time>2026-04-25T13:14:38Z</time></trkpt><trkpt lat="43.93412349002647" lon="10.719877637986675"><ele>532.0</ele><time>2026-04-25T13:14:39Z</time></trkpt><trkpt lat="43.93418197025749" lon="10.720043404773586"><ele>532.3333333333334</ele><time>2026-04-25T13:14:41Z</time></trkpt><trkpt lat="43.934256888978524" lon="10.72019273452523"><ele>532.6666666666667</ele><time>2026-04-25T13:14:43Z</time></trkpt><trkpt lat="43.93430386909964" lon="10.720271680387379"><ele>533.0</ele><time>2026-04-25T13:14:44Z</time></trkpt><trkpt lat="43.93434359481418" lon="10.720343960404852"><ele>533.3333333333334</ele><time>2026-04-25T13:14:45Z</time></trkpt><trkpt lat="43.93436589905419" lon="10.720430392801386"><ele>533.6666666666666</ele><time>2026-04-25T13:14:46Z</time></trkpt><trkpt lat="43.93437347079456" lon="10.720520608322573"><ele>534.0</ele><time>2026-04-25T13:14:47Z</time></trkpt><trkpt lat="43.93436927827923" lon="10.720609095920338"><ele>534.0</ele><time>2026-04-25T13:14:48Z</time></trkpt><trkpt lat="43.93436944939538" lon="10.720740649361947"><ele>534.0</ele><time>2026-04-25T13:14:49Z</time></trkpt><trkpt lat="43.93437034950208" lon="10.720847802802094"><ele>534.0</ele><time>2026-04-25T13:14:50Z</time></trkpt><trkpt lat="43.93437521281036" lon="10.720950402184371"><ele>534.0</ele><time>2026-04-25T13:14:51Z</time></trkpt><trkpt lat="43.93444785914061" lon="10.721038489473958"><ele>534.0</ele><time>2026-04-25T13:14:53Z</time></trkpt><trkpt lat="43.934575167411836" lon="10.721070145426658"><ele>534.6666666666666</ele><time>2026-04-25T13:14:55Z</time></trkpt><trkpt lat="43.93463711031309" lon="10.721122186197153"><ele>535.3333333333334</ele><time>2026-04-25T13:14:56Z</time></trkpt><trkpt lat="43.93469499552457" lon="10.721186621980252"><ele>536.0</ele><time>2026-04-25T13:14:57Z</time></trkpt><trkpt lat="43.93473639353232" lon="10.721280721767815"><ele>536.6666666666667</ele><time>2026-04-25T13:14:58Z</time></trkpt><trkpt lat="43.93476586829961" lon="10.721412901442502"><ele>537.3333333333334</ele><time>2026-04-25T13:14:59Z</time></trkpt><trkpt lat="43.93479639942931" lon="10.721571537697221"><ele>538.0</ele><time>2026-04-25T13:15:00Z</time></trkpt><trkpt lat="43.93480263284387" lon="10.721682804968994"><ele>538.0</ele><time>2026-04-25T13:15:01Z</time></trkpt><trkpt lat="43.93479816392877" lon="10.721775597407783"><ele>538.0</ele><time>2026-04-25T13:15:02Z</time></trkpt><trkpt lat="43.93473312064733" lon="10.721845187237266"><ele>538.0</ele><time>2026-04-25T13:15:04Z</time></trkpt><trkpt lat="43.934634390473306" lon="10.721769473316524"><ele>538.0</ele><time>2026-04-25T13:15:06Z</time></trkpt><trkpt lat="43.93456826676552" lon="10.721699527400444"><ele>538.0</ele><time>2026-04-25T13:15:07Z</time></trkpt><trkpt lat="43.93448293154699" lon="10.721712305026069"><ele>538.0</ele><time>2026-04-25T13:15:09Z</time></trkpt><trkpt lat="43.93441646052206" lon="10.721827305086475"><ele>540.0</ele><time>2026-04-25T13:15:11Z</time></trkpt><trkpt lat="43.934356347719195" lon="10.721927268267"><ele>542.0</ele><time>2026-04-25T13:15:12Z</time></trkpt><trkpt lat="43.93428320246987" lon="10.722087523577658"><ele>544.0</ele><time>2026-04-25T13:15:14Z</time></trkpt><trkpt lat="43.93423222633969" lon="10.722184372600198"><ele>546.0</ele><time>2026-04-25T13:15:15Z</time></trkpt><trkpt lat="43.934178197102646" lon="10.722271833122734"><ele>548.0</ele><time>2026-04-25T13:15:16Z</time></trkpt><trkpt lat="43.93411186709547" lon="10.722368557892239"><ele>549.1999999999999</ele><time>2026-04-25T13:15:17Z</time></trkpt><trkpt lat="43.934035697260796" lon="10.722451419951113"><ele>550.4</ele><time>2026-04-25T13:15:18Z</time></trkpt><trkpt lat="43.93394441411594" lon="10.722537641748058"><ele>551.5999999999999</ele><time>2026-04-25T13:15:19Z</time></trkpt><trkpt lat="43.93386415320725" lon="10.722616745649516"><ele>552.8</ele><time>2026-04-25T13:15:20Z</time></trkpt><trkpt lat="43.93380882395239" lon="10.722701388426596"><ele>554.0</ele><time>2026-04-25T13:15:21Z</time></trkpt><trkpt lat="43.93378510945112" lon="10.722891616215769"><ele>555.4</ele><time>2026-04-25T13:15:23Z</time></trkpt><trkpt lat="43.93380893774987" lon="10.72301728513124"><ele>556.8</ele><time>2026-04-25T13:15:24Z</time></trkpt><trkpt lat="43.93382385548776" lon="10.723154670898644"><ele>558.2</ele><time>2026-04-25T13:15:25Z</time></trkpt><trkpt lat="43.933816750367384" lon="10.723297200175377"><ele>559.6</ele><time>2026-04-25T13:15:26Z</time></trkpt><trkpt lat="43.93378277848688" lon="10.723414789952974"><ele>561.0</ele><time>2026-04-25T13:15:27Z</time></trkpt><trkpt lat="43.93375162425076" lon="10.723519169715871"><ele>561.1666666666666</ele><time>2026-04-25T13:15:28Z</time></trkpt><trkpt lat="43.93370851723182" lon="10.72362946057858"><ele>561.3333333333334</ele><time>2026-04-25T13:15:29Z</time></trkpt><trkpt lat="43.93367717253599" lon="10.723716781348335"><ele>561.5</ele><time>2026-04-25T13:15:30Z</time></trkpt><trkpt lat="43.933631770347034" lon="10.723788972754091"><ele>561.6666666666667</ele><time>2026-04-25T13:15:31Z</time></trkpt><trkpt lat="43.93358223763021" lon="10.72387701060913"><ele>561.8333333333334</ele><time>2026-04-25T13:15:32Z</time></trkpt><trkpt lat="43.933535551131875" lon="10.723976036091925"><ele>562.0</ele><time>2026-04-25T13:15:33Z</time></trkpt><trkpt lat="43.93349217285697" lon="10.724064868225247"><ele>562.0000000000001</ele><time>2026-04-25T13:15:34Z</time></trkpt><trkpt lat="43.933447343988306" lon="10.724136227795919"><ele>562.0</ele><time>2026-04-25T13:15:35Z</time></trkpt><trkpt lat="43.93341347324155" lon="10.724216710551739"><ele>562.0</ele><time>2026-04-25T13:15:36Z</time></trkpt><trkpt lat="43.93338945830637" lon="10.724316806710352"><ele>562.0</ele><time>2026-04-25T13:15:37Z</time></trkpt><trkpt lat="43.93337761096321" lon="10.72441754288868"><ele>562.0</ele><time>2026-04-25T13:15:38Z</time></trkpt><trkpt lat="43.93335145593831" lon="10.72452388949869"><ele>562.0000000000001</ele><time>2026-04-25T13:15:39Z</time></trkpt><trkpt lat="43.933342630745756" lon="10.72462545964643"><ele>562.0</ele><time>2026-04-25T13:15:40Z</time></trkpt><trkpt lat="43.933323656276116" lon="10.724715992161169"><ele>565.2</ele><time>2026-04-25T13:15:41Z</time></trkpt><trkpt lat="43.933246304498205" lon="10.72484867727522"><ele>568.4000000000001</ele><time>2026-04-25T13:15:43Z</time></trkpt><trkpt lat="43.93320694701217" lon="10.724920433149805"><ele>571.5999999999999</ele><time>2026-04-25T13:15:44Z</time></trkpt><trkpt lat="43.933183992318604" lon="10.725018983381958"><ele>574.8</ele><time>2026-04-25T13:15:45Z</time></trkpt><trkpt lat="43.93310390469117" lon="10.725157404799235"><ele>578.0</ele><time>2026-04-25T13:15:47Z</time></trkpt><trkpt lat="43.93308620197992" lon="10.725242831346058"><ele>578.0</ele><time>2026-04-25T13:15:48Z</time></trkpt><trkpt lat="43.933034649893315" lon="10.725383061650971"><ele>578.0</ele><time>2026-04-25T13:15:50Z</time></trkpt><trkpt lat="43.932991079214666" lon="10.72546627218467"><ele>578.0</ele><time>2026-04-25T13:15:51Z</time></trkpt><trkpt lat="43.932950164645035" lon="10.72557087258554"><ele>578.0</ele><time>2026-04-25T13:15:53Z</time></trkpt><trkpt lat="43.932900568622784" lon="10.725627963126675"><ele>578.0</ele><time>2026-04-25T13:15:58Z</time></trkpt><trkpt lat="43.93289017795981" lon="10.72572805903271"><ele>578.0</ele><time>2026-04-25T13:16:06Z</time></trkpt><trkpt lat="43.93286590563379" lon="10.725814185369877"><ele>578.0</ele><time>2026-04-25T13:16:26Z</time></trkpt><trkpt lat="43.932835416238376" lon="10.72591505591533"><ele>578.0</ele><time>2026-04-25T13:16:58Z</time></trkpt><trkpt lat="43.93281402514717" lon="10.726036630164257"><ele>578.0</ele><time>2026-04-25T13:17:00Z</time></trkpt><trkpt lat="43.93282780573084" lon="10.726185035792568"><ele>578.0</ele><time>2026-04-25T13:17:02Z</time></trkpt><trkpt lat="43.9327474854031" lon="10.726227085763622"><ele>578.0</ele><time>2026-04-25T13:17:16Z</time></trkpt><trkpt lat="43.93267354854177" lon="10.726297581091156"><ele>579.3333333333333</ele><time>2026-04-25T13:17:18Z</time></trkpt><trkpt lat="43.93265331772631" lon="10.726382694645864"><ele>580.6666666666666</ele><time>2026-04-25T13:17:23Z</time></trkpt><trkpt lat="43.932575301132324" lon="10.726506463920174"><ele>582.0</ele><time>2026-04-25T13:18:00Z</time></trkpt><trkpt lat="43.932538342165785" lon="10.726598198480238"><ele>583.3333333333334</ele><time>2026-04-25T13:18:10Z</time></trkpt><trkpt lat="43.93252402532998" lon="10.726703690259994"><ele>584.6666666666667</ele><time>2026-04-25T13:18:12Z</time></trkpt><trkpt lat="43.93252111745587" lon="10.726837212693239"><ele>586.0</ele><time>2026-04-25T13:18:14Z</time></trkpt><trkpt lat="43.93251133167475" lon="10.72693455093116"><ele>586.8</ele><time>2026-04-25T13:18:15Z</time></trkpt><trkpt lat="43.932491372794736" lon="10.727053250325634"><ele>587.6</ele><time>2026-04-25T13:18:17Z</time></trkpt><trkpt lat="43.93247933363499" lon="10.727145556848212"><ele>588.4</ele><time>2026-04-25T13:18:19Z</time></trkpt><trkpt lat="43.93250436471761" lon="10.727258089740975"><ele>589.2</ele><time>2026-04-25T13:18:23Z</time></trkpt><trkpt lat="43.932582354977946" lon="10.727365131549172"><ele>590.0</ele><time>2026-04-25T13:18:25Z</time></trkpt><trkpt lat="43.932578909195826" lon="10.727510513051834"><ele>592.8</ele><time>2026-04-25T13:18:27Z</time></trkpt><trkpt lat="43.93249551665693" lon="10.727565024640766"><ele>595.6</ele><time>2026-04-25T13:18:29Z</time></trkpt><trkpt lat="43.932415780483254" lon="10.727659173020767"><ele>598.4</ele><time>2026-04-25T13:18:31Z</time></trkpt><trkpt lat="43.93237727995889" lon="10.727760491439028"><ele>601.2</ele><time>2026-04-25T13:18:33Z</time></trkpt><trkpt lat="43.93230825365393" lon="10.727865075077506"><ele>604.0</ele><time>2026-04-25T13:18:35Z</time></trkpt><trkpt lat="43.93222056982607" lon="10.72793097297437"><ele>604.0</ele><time>2026-04-25T13:18:37Z</time></trkpt><trkpt lat="43.93213595119317" lon="10.727956474696015"><ele>604.0</ele><time>2026-04-25T13:18:39Z</time></trkpt><trkpt lat="43.93205252546812" lon="10.727983859561673"><ele>604.0</ele><time>2026-04-25T13:18:41Z</time></trkpt><trkpt lat="43.93197310349574" lon="10.728022153626839"><ele>604.0</ele><time>2026-04-25T13:18:43Z</time></trkpt><trkpt lat="43.9318929030631" lon="10.728076229068678"><ele>604.0</ele><time>2026-04-25T13:18:45Z</time></trkpt><trkpt lat="43.93180021941267" lon="10.728133029930826"><ele>604.0</ele><time>2026-04-25T13:18:47Z</time></trkpt><trkpt lat="43.931716678821644" lon="10.728166582772479"><ele>606.0</ele><time>2026-04-25T13:18:49Z</time></trkpt><trkpt lat="43.931643196872685" lon="10.72826729693715"><ele>608.0</ele><time>2026-04-25T13:18:51Z</time></trkpt><trkpt lat="43.93159793391237" lon="10.728394691042967"><ele>610.0</ele><time>2026-04-25T13:18:53Z</time></trkpt><trkpt lat="43.93155424285812" lon="10.72853032503025"><ele>612.0</ele><time>2026-04-25T13:18:55Z</time></trkpt><trkpt lat="43.93154932199377" lon="10.728620507926758"><ele>614.0</ele><time>2026-04-25T13:18:56Z</time></trkpt><trkpt lat="43.93157852602342" lon="10.728702459604758"><ele>616.0</ele><time>2026-04-25T13:18:57Z</time></trkpt><trkpt lat="43.931627851202904" lon="10.728876233213759"><ele>616.2</ele><time>2026-04-25T13:18:59Z</time></trkpt><trkpt lat="43.931630620639176" lon="10.72898947884825"><ele>616.4000000000001</ele><time>2026-04-25T13:19:00Z</time></trkpt><trkpt lat="43.93163408061913" lon="10.729105419773795"><ele>616.6</ele><time>2026-04-25T13:19:01Z</time></trkpt><trkpt lat="43.93162376797897" lon="10.729225585197108"><ele>616.8000000000001</ele><time>2026-04-25T13:19:02Z</time></trkpt><trkpt lat="43.9315966993413" lon="10.729347977823767"><ele>617.0</ele><time>2026-04-25T13:19:03Z</time></trkpt><trkpt lat="43.93156626929718" lon="10.729519216212104"><ele>617.3333333333333</ele><time>2026-04-25T13:19:05Z</time></trkpt><trkpt lat="43.931579503398765" lon="10.729631143616995"><ele>617.6666666666666</ele><time>2026-04-25T13:19:06Z</time></trkpt><trkpt lat="43.93155025279802" lon="10.729743298156567"><ele>618.0</ele><time>2026-04-25T13:19:07Z</time></trkpt><trkpt lat="43.93155063056383" lon="10.729847078603349"><ele>618.3333333333334</ele><time>2026-04-25T13:19:08Z</time></trkpt><trkpt lat="43.931591428353784" lon="10.729931026400816"><ele>618.6666666666667</ele><time>2026-04-25T13:19:09Z</time></trkpt><trkpt lat="43.93161840718822" lon="10.730019023075052"><ele>619.0</ele><time>2026-04-25T13:19:10Z</time></trkpt><trkpt lat="43.93162817030467" lon="10.730112802296537"><ele>619.0</ele><time>2026-04-25T13:19:11Z</time></trkpt><trkpt lat="43.931626675207845" lon="10.730224683010487"><ele>619.0</ele><time>2026-04-25T13:19:12Z</time></trkpt><trkpt lat="43.93161170014752" lon="10.730310485604717"><ele>619.0</ele><time>2026-04-25T13:19:13Z</time></trkpt><trkpt lat="43.931565270379174" lon="10.730419867698723"><ele>619.0</ele><time>2026-04-25T13:19:14Z</time></trkpt><trkpt lat="43.93151081950669" lon="10.730490113717464"><ele>619.0</ele><time>2026-04-25T13:19:15Z</time></trkpt><trkpt lat="43.93144733202542" lon="10.730526184194522"><ele>619.0</ele><time>2026-04-25T13:19:16Z</time></trkpt><trkpt lat="43.93138320753619" lon="10.730598364967832"><ele>619.8333333333334</ele><time>2026-04-25T13:19:17Z</time></trkpt><trkpt lat="43.93132655574113" lon="10.730698393853169"><ele>620.6666666666667</ele><time>2026-04-25T13:19:18Z</time></trkpt><trkpt lat="43.931278665290094" lon="10.73079135756362"><ele>621.5</ele><time>2026-04-25T13:19:19Z</time></trkpt><trkpt lat="43.931248578749056" lon="10.730897085224528"><ele>622.3333333333334</ele><time>2026-04-25T13:19:20Z</time></trkpt><trkpt lat="43.931204349012134" lon="10.731001408940356"><ele>623.1666666666666</ele><time>2026-04-25T13:19:21Z</time></trkpt><trkpt lat="43.931176853108006" lon="10.73109952750008"><ele>624.0</ele><time>2026-04-25T13:19:22Z</time></trkpt><trkpt lat="43.931149186862534" lon="10.73120764805262"><ele>624.0</ele><time>2026-04-25T13:19:23Z</time></trkpt><trkpt lat="43.931117338267896" lon="10.731319056991486"><ele>624.0</ele><time>2026-04-25T13:19:24Z</time></trkpt><trkpt lat="43.93107380117628" lon="10.731427482014924"><ele>624.0</ele><time>2026-04-25T13:19:25Z</time></trkpt><trkpt lat="43.931017950730634" lon="10.731526764558819"><ele>624.0</ele><time>2026-04-25T13:19:26Z</time></trkpt><trkpt lat="43.93096382241195" lon="10.73163141811355"><ele>624.0</ele><time>2026-04-25T13:19:27Z</time></trkpt><trkpt lat="43.93091683329394" lon="10.731738473476156"><ele>626.2</ele><time>2026-04-25T13:19:28Z</time></trkpt><trkpt lat="43.93086919013888" lon="10.731844624920154"><ele>628.4</ele><time>2026-04-25T13:19:29Z</time></trkpt><trkpt lat="43.93082519977829" lon="10.731978589497503"><ele>630.6</ele><time>2026-04-25T13:19:30Z</time></trkpt><trkpt lat="43.930801629090276" lon="10.732089992766374"><ele>632.8</ele><time>2026-04-25T13:19:31Z</time></trkpt><trkpt lat="43.93077070311261" lon="10.732197242681393"><ele>635.0</ele><time>2026-04-25T13:19:32Z</time></trkpt><trkpt lat="43.930742055485034" lon="10.732315080199793"><ele>635.0</ele><time>2026-04-25T13:19:33Z</time></trkpt><trkpt lat="43.93071713639007" lon="10.732432077277052"><ele>635.0</ele><time>2026-04-25T13:19:34Z</time></trkpt><trkpt lat="43.93068895286059" lon="10.732549518098107"><ele>635.0</ele><time>2026-04-25T13:19:35Z</time></trkpt><trkpt lat="43.93064527546864" lon="10.732658665214394"><ele>635.0</ele><time>2026-04-25T13:19:36Z</time></trkpt><trkpt lat="43.93059087138813" lon="10.732764876529785"><ele>635.0</ele><time>2026-04-25T13:19:37Z</time></trkpt><trkpt lat="43.930535623869616" lon="10.732863422423813"><ele>633.5</ele><time>2026-04-25T13:19:38Z</time></trkpt><trkpt lat="43.93047829948186" lon="10.732952633196724"><ele>632.0</ele><time>2026-04-25T13:19:39Z</time></trkpt><trkpt lat="43.93041419941154" lon="10.73303379144915"><ele>630.5</ele><time>2026-04-25T13:19:40Z</time></trkpt><trkpt lat="43.930348397262954" lon="10.733108987812201"><ele>629.0</ele><time>2026-04-25T13:19:41Z</time></trkpt><trkpt lat="43.930284298741476" lon="10.733178946288403"><ele>627.5</ele><time>2026-04-25T13:19:42Z</time></trkpt><trkpt lat="43.93020089036174" lon="10.73327163396646"><ele>626.0</ele><time>2026-04-25T13:19:44Z</time></trkpt><trkpt lat="43.93016243504165" lon="10.733353262793264"><ele>626.0</ele><time>2026-04-25T13:19:51Z</time></trkpt><trkpt lat="43.930160202589306" lon="10.733457685926286"><ele>626.0</ele><time>2026-04-25T13:19:53Z</time></trkpt><trkpt lat="43.93015573715209" lon="10.733604286957414"><ele>626.0</ele><time>2026-04-25T13:19:55Z</time></trkpt><trkpt lat="43.93014646217056" lon="10.733699943346279"><ele>626.0</ele><time>2026-04-25T13:19:56Z</time></trkpt><trkpt lat="43.930145652492946" lon="10.733797737530363"><ele>626.0</ele><time>2026-04-25T13:19:57Z</time></trkpt><trkpt lat="43.93013868089878" lon="10.733890841148995"><ele>626.0</ele><time>2026-04-25T13:19:58Z</time></trkpt><trkpt lat="43.930125815712735" lon="10.733983552494763"><ele>626.3333333333333</ele><time>2026-04-25T13:19:59Z</time></trkpt><trkpt lat="43.9301142030531" lon="10.73407981001848"><ele>626.6666666666666</ele><time>2026-04-25T13:20:00Z</time></trkpt><trkpt lat="43.93010884693653" lon="10.734171285252309"><ele>627.0</ele><time>2026-04-25T13:20:01Z</time></trkpt><trkpt lat="43.930109080718005" lon="10.734290633799047"><ele>627.3333333333334</ele><time>2026-04-25T13:20:02Z</time></trkpt><trkpt lat="43.930096158402165" lon="10.73440356050803"><ele>627.6666666666667</ele><time>2026-04-25T13:20:03Z</time></trkpt><trkpt lat="43.930089328924815" lon="10.734508416695526"><ele>628.0</ele><time>2026-04-25T13:20:04Z</time></trkpt><trkpt lat="43.930083653587964" lon="10.73462046863775"><ele>628.0</ele><time>2026-04-25T13:20:05Z</time></trkpt><trkpt lat="43.9300813020839" lon="10.734733168511822"><ele>628.0</ele><time>2026-04-25T13:20:06Z</time></trkpt><trkpt lat="43.93008146041396" lon="10.734872651137188"><ele>628.0</ele><time>2026-04-25T13:20:07Z</time></trkpt><trkpt lat="43.93008694320858" lon="10.735011395312474"><ele>628.0</ele><time>2026-04-25T13:20:08Z</time></trkpt><trkpt lat="43.93009447945136" lon="10.735159044361106"><ele>628.0</ele><time>2026-04-25T13:20:09Z</time></trkpt><trkpt lat="43.930097017648286" lon="10.73528340326397"><ele>628.8</ele><time>2026-04-25T13:20:10Z</time></trkpt><trkpt lat="43.93010266567312" lon="10.735401052780675"><ele>629.5999999999999</ele><time>2026-04-25T13:20:11Z</time></trkpt><trkpt lat="43.93010125008665" lon="10.73554207168499"><ele>630.4000000000001</ele><time>2026-04-25T13:20:12Z</time></trkpt><trkpt lat="43.93010356310832" lon="10.735668406140169"><ele>631.2</ele><time>2026-04-25T13:20:13Z</time></trkpt><trkpt lat="43.930103081491154" lon="10.735801245853358"><ele>632.0</ele><time>2026-04-25T13:20:14Z</time></trkpt><trkpt lat="43.93010125002671" lon="10.735934878564027"><ele>632.5</ele><time>2026-04-25T13:20:15Z</time></trkpt><trkpt lat="43.93009690795934" lon="10.736067499623312"><ele>633.0</ele><time>2026-04-25T13:20:16Z</time></trkpt><trkpt lat="43.93008190406977" lon="10.736176959046324"><ele>633.5</ele><time>2026-04-25T13:20:17Z</time></trkpt><trkpt lat="43.93007029770006" lon="10.736276193032797"><ele>634.0</ele><time>2026-04-25T13:20:18Z</time></trkpt><trkpt lat="43.93008646787008" lon="10.736365287995973"><ele>634.5</ele><time>2026-04-25T13:20:19Z</time></trkpt><trkpt lat="43.930111174562434" lon="10.736459125126713"><ele>635.0</ele><time>2026-04-25T13:20:20Z</time></trkpt><trkpt lat="43.93015836105896" lon="10.736551993962218"><ele>634.9999999999999</ele><time>2026-04-25T13:20:21Z</time></trkpt><trkpt lat="43.93020248020966" lon="10.736624769774853"><ele>635.0</ele><time>2026-04-25T13:20:22Z</time></trkpt><trkpt lat="43.93024840217213" lon="10.73671155656489"><ele>635.0</ele><time>2026-04-25T13:20:23Z</time></trkpt><trkpt lat="43.93026940935423" lon="10.736818090467654"><ele>635.0</ele><time>2026-04-25T13:20:24Z</time></trkpt><trkpt lat="43.93030710130519" lon="10.73691642779688"><ele>635.0</ele><time>2026-04-25T13:20:25Z</time></trkpt><trkpt lat="43.93033631595699" lon="10.737009444002807"><ele>634.9999999999999</ele><time>2026-04-25T13:20:26Z</time></trkpt><trkpt lat="43.930363464621564" lon="10.737089567846924"><ele>635.0</ele><time>2026-04-25T13:20:27Z</time></trkpt><trkpt lat="43.930406553096944" lon="10.737165156104142"><ele>637.5</ele><time>2026-04-25T13:20:28Z</time></trkpt><trkpt lat="43.930465048520084" lon="10.737227064144522"><ele>640.0</ele><time>2026-04-25T13:20:29Z</time></trkpt><trkpt lat="43.93057859010094" lon="10.73728832553399"><ele>642.5</ele><time>2026-04-25T13:20:31Z</time></trkpt><trkpt lat="43.93064864409793" lon="10.737345148744657"><ele>645.0</ele><time>2026-04-25T13:20:32Z</time></trkpt><trkpt lat="43.93070597640195" lon="10.737424861588973"><ele>647.5</ele><time>2026-04-25T13:20:33Z</time></trkpt><trkpt lat="43.930740307438754" lon="10.737504462596396"><ele>650.0</ele><time>2026-04-25T13:20:34Z</time></trkpt><trkpt lat="43.93076868189367" lon="10.737587963325335"><ele>650.0</ele><time>2026-04-25T13:20:35Z</time></trkpt><trkpt lat="43.930786910295296" lon="10.737676501224836"><ele>650.0</ele><time>2026-04-25T13:20:36Z</time></trkpt><trkpt lat="43.930814514855264" lon="10.737761358096195"><ele>650.0</ele><time>2026-04-25T13:20:37Z</time></trkpt><trkpt lat="43.93090136162294" lon="10.737878446679552"><ele>650.0</ele><time>2026-04-25T13:20:39Z</time></trkpt><trkpt lat="43.93096369207478" lon="10.73792281671335"><ele>650.0</ele><time>2026-04-25T13:20:40Z</time></trkpt><trkpt lat="43.931074705851245" lon="10.7378610084387"><ele>650.0</ele><time>2026-04-25T13:20:42Z</time></trkpt><trkpt lat="43.931126294775154" lon="10.737802301259887"><ele>650.5</ele><time>2026-04-25T13:20:43Z</time></trkpt><trkpt lat="43.93117592363542" lon="10.737715222383654"><ele>651.0</ele><time>2026-04-25T13:20:44Z</time></trkpt><trkpt lat="43.931237545459986" lon="10.737632915426143"><ele>651.5</ele><time>2026-04-25T13:20:45Z</time></trkpt><trkpt lat="43.93130012011233" lon="10.737541796433106"><ele>652.0</ele><time>2026-04-25T13:20:46Z</time></trkpt><trkpt lat="43.931367375292986" lon="10.737458298435667"><ele>652.5</ele><time>2026-04-25T13:20:47Z</time></trkpt><trkpt lat="43.931427866118995" lon="10.737382553525403"><ele>653.0</ele><time>2026-04-25T13:20:48Z</time></trkpt><trkpt lat="43.93149167207785" lon="10.737302851206213"><ele>653.0</ele><time>2026-04-25T13:20:49Z</time></trkpt><trkpt lat="43.93154517001893" lon="10.737246538484655"><ele>653.0</ele><time>2026-04-25T13:20:50Z</time></trkpt><trkpt lat="43.93160299300347" lon="10.737189688936342"><ele>653.0</ele><time>2026-04-25T13:20:51Z</time></trkpt><trkpt lat="43.93166398749646" lon="10.73714651266281"><ele>653.0</ele><time>2026-04-25T13:20:52Z</time></trkpt><trkpt lat="43.93173199771296" lon="10.737110927163583"><ele>653.0</ele><time>2026-04-25T13:20:53Z</time></trkpt><trkpt lat="43.931816314446216" lon="10.737130057203899"><ele>653.0</ele><time>2026-04-25T13:20:55Z</time></trkpt><trkpt lat="43.93187056648639" lon="10.737259429625134"><ele>652.2</ele><time>2026-04-25T13:20:57Z</time></trkpt><trkpt lat="43.931944917486646" lon="10.737423250146698"><ele>651.4</ele><time>2026-04-25T13:20:59Z</time></trkpt><trkpt lat="43.93199898971786" lon="10.737474018199773"><ele>650.6</ele><time>2026-04-25T13:21:00Z</time></trkpt><trkpt lat="43.932099356427806" lon="10.737474005608593"><ele>649.8000000000001</ele><time>2026-04-25T13:21:02Z</time></trkpt><trkpt lat="43.932170910320934" lon="10.737511236806421"><ele>649.0</ele><time>2026-04-25T13:21:03Z</time></trkpt><trkpt lat="43.93228767362562" lon="10.737591428618991"><ele>649.0</ele><time>2026-04-25T13:21:05Z</time></trkpt><trkpt lat="43.932385519012726" lon="10.73770690625206"><ele>649.0</ele><time>2026-04-25T13:21:07Z</time></trkpt><trkpt lat="43.93245712425758" lon="10.737841044875173"><ele>649.0</ele><time>2026-04-25T13:21:09Z</time></trkpt><trkpt lat="43.93249402913368" lon="10.737981118059926"><ele>649.0</ele><time>2026-04-25T13:21:11Z</time></trkpt><trkpt lat="43.93249621467816" lon="10.738070737945327"><ele>649.0</ele><time>2026-04-25T13:21:12Z</time></trkpt><trkpt lat="43.93250340591481" lon="10.738218108472807"><ele>651.4000000000001</ele><time>2026-04-25T13:21:14Z</time></trkpt><trkpt lat="43.93248693886283" lon="10.738365036078706"><ele>653.8</ele><time>2026-04-25T13:21:16Z</time></trkpt><trkpt lat="43.93247541002599" lon="10.738482854897578"><ele>656.2</ele><time>2026-04-25T13:21:18Z</time></trkpt><trkpt lat="43.93252862426008" lon="10.738536188291901"><ele>658.5999999999999</ele><time>2026-04-25T13:21:20Z</time></trkpt><trkpt lat="43.932589414413044" lon="10.738483415195825"><ele>661.0</ele><time>2026-04-25T13:21:22Z</time></trkpt><trkpt lat="43.93263937930933" lon="10.738329878074506"><ele>661.4</ele><time>2026-04-25T13:21:24Z</time></trkpt><trkpt lat="43.93271592798342" lon="10.738196028086211"><ele>661.8</ele><time>2026-04-25T13:21:26Z</time></trkpt><trkpt lat="43.9327663671269" lon="10.738128613487033"><ele>662.1999999999999</ele><time>2026-04-25T13:21:27Z</time></trkpt><trkpt lat="43.93281337670996" lon="10.7380529587326"><ele>662.5999999999999</ele><time>2026-04-25T13:21:28Z</time></trkpt><trkpt lat="43.932905818397856" lon="10.737940185317344"><ele>663.0</ele><time>2026-04-25T13:21:30Z</time></trkpt><trkpt lat="43.9329662454641" lon="10.737914453024198"><ele>663.0</ele><time>2026-04-25T13:21:31Z</time></trkpt><trkpt lat="43.9330276459733" lon="10.73787175734752"><ele>663.0</ele><time>2026-04-25T13:21:32Z</time></trkpt><trkpt lat="43.93308950011086" lon="10.737826529971969"><ele>663.0</ele><time>2026-04-25T13:21:33Z</time></trkpt><trkpt lat="43.93315070976862" lon="10.737767726351697"><ele>663.0</ele><time>2026-04-25T13:21:34Z</time></trkpt><trkpt lat="43.9332233071516" lon="10.737716628397669"><ele>663.0</ele><time>2026-04-25T13:21:35Z</time></trkpt><trkpt lat="43.93328812645373" lon="10.737654897074979"><ele>663.0</ele><time>2026-04-25T13:21:36Z</time></trkpt><trkpt lat="43.93335535273794" lon="10.737566110150645"><ele>663.5999999999999</ele><time>2026-04-25T13:21:37Z</time></trkpt><trkpt lat="43.93340733040148" lon="10.737493971418376"><ele>664.1999999999999</ele><time>2026-04-25T13:21:38Z</time></trkpt><trkpt lat="43.93349713503952" lon="10.737382276938845"><ele>664.8</ele><time>2026-04-25T13:21:40Z</time></trkpt><trkpt lat="43.93351768419766" lon="10.73729487086513"><ele>665.4</ele><time>2026-04-25T13:21:41Z</time></trkpt><trkpt lat="43.93357989971592" lon="10.737169072876277"><ele>666.0</ele><time>2026-04-25T13:21:43Z</time></trkpt><trkpt lat="43.93367899152872" lon="10.737072355665566"><ele>666.0</ele><time>2026-04-25T13:21:45Z</time></trkpt><trkpt lat="43.93371808982602" lon="10.736983849763313"><ele>666.0</ele><time>2026-04-25T13:21:46Z</time></trkpt><trkpt lat="43.93373470054761" lon="10.736896402762527"><ele>666.0</ele><time>2026-04-25T13:21:47Z</time></trkpt><trkpt lat="43.93373975052315" lon="10.736803048533575"><ele>666.0</ele><time>2026-04-25T13:21:48Z</time></trkpt><trkpt lat="43.93368390987692" lon="10.736642963510228"><ele>666.0</ele><time>2026-04-25T13:21:50Z</time></trkpt><trkpt lat="43.93365006324037" lon="10.736558758949384"><ele>666.0</ele><time>2026-04-25T13:21:51Z</time></trkpt><trkpt lat="43.93360633702156" lon="10.736449768830951"><ele>665.1666666666666</ele><time>2026-04-25T13:21:52Z</time></trkpt><trkpt lat="43.933558782064985" lon="10.736344577304536"><ele>664.3333333333334</ele><time>2026-04-25T13:21:53Z</time></trkpt><trkpt lat="43.933498027404845" lon="10.736246852911442"><ele>663.5</ele><time>2026-04-25T13:21:54Z</time></trkpt><trkpt lat="43.93344002627595" lon="10.73615233634591"><ele>662.6666666666667</ele><time>2026-04-25T13:21:55Z</time></trkpt><trkpt lat="43.93339465952782" lon="10.73608069030168"><ele>661.8333333333334</ele><time>2026-04-25T13:21:56Z</time></trkpt><trkpt lat="43.93335583289417" lon="10.736004028583084"><ele>661.0</ele><time>2026-04-25T13:21:57Z</time></trkpt><trkpt lat="43.93332120656456" lon="10.735868968353584"><ele>660.6666666666667</ele><time>2026-04-25T13:21:59Z</time></trkpt><trkpt lat="43.933286407546284" lon="10.73579177046559"><ele>660.3333333333334</ele><time>2026-04-25T13:22:00Z</time></trkpt><trkpt lat="43.93325064891157" lon="10.7357055172704"><ele>660.0</ele><time>2026-04-25T13:22:01Z</time></trkpt><trkpt lat="43.933217659110326" lon="10.735591567628953"><ele>659.6666666666666</ele><time>2026-04-25T13:22:03Z</time></trkpt><trkpt lat="43.93325081296405" lon="10.73546239529145"><ele>659.3333333333333</ele><time>2026-04-25T13:22:05Z</time></trkpt><trkpt lat="43.93331750604083" lon="10.735361563082657"><ele>659.0</ele><time>2026-04-25T13:22:07Z</time></trkpt><trkpt lat="43.93341772525199" lon="10.735384580385302"><ele>659.0</ele><time>2026-04-25T13:22:10Z</time></trkpt><trkpt lat="43.933497271602334" lon="10.73539572175364"><ele>659.0</ele><time>2026-04-25T13:22:12Z</time></trkpt><trkpt lat="43.93355971503294" lon="10.735441812740211"><ele>659.0</ele><time>2026-04-25T13:22:13Z</time></trkpt><trkpt lat="43.933622229065186" lon="10.735497114169206"><ele>659.0</ele><time>2026-04-25T13:22:14Z</time></trkpt><trkpt lat="43.93367301099882" lon="10.735558295182633"><ele>659.0</ele><time>2026-04-25T13:22:15Z</time></trkpt><trkpt lat="43.933732703924804" lon="10.735629331780942"><ele>659.0</ele><time>2026-04-25T13:22:16Z</time></trkpt><trkpt lat="43.93377220065185" lon="10.735710431144174"><ele>659.0</ele><time>2026-04-25T13:22:17Z</time></trkpt><trkpt lat="43.93382477461284" lon="10.73583544941339"><ele>659.0</ele><time>2026-04-25T13:22:19Z</time></trkpt><trkpt lat="43.933876155530676" lon="10.735974448777528"><ele>659.0</ele><time>2026-04-25T13:22:21Z</time></trkpt><trkpt lat="43.9339564120015" lon="10.736035643004664"><ele>659.0</ele><time>2026-04-25T13:22:23Z</time></trkpt><trkpt lat="43.93401153537303" lon="10.7361143632371"><ele>659.0</ele><time>2026-04-25T13:22:24Z</time></trkpt><trkpt lat="43.93407649600772" lon="10.736224901240673"><ele>659.0</ele><time>2026-04-25T13:22:26Z</time></trkpt><trkpt lat="43.9341277848783" lon="10.73632042758799"><ele>659.0</ele><time>2026-04-25T13:22:28Z</time></trkpt><trkpt lat="43.93418645966728" lon="10.73645881939135"><ele>659.0</ele><time>2026-04-25T13:22:42Z</time></trkpt><trkpt lat="43.93421271584472" lon="10.736574433194958"><ele>659.0</ele><time>2026-04-25T13:22:45Z</time></trkpt><trkpt lat="43.93425374453517" lon="10.736696006939528"><ele>659.0</ele><time>2026-04-25T13:22:47Z</time></trkpt><trkpt lat="43.93427104511208" lon="10.73682066055611"><ele>659.0</ele><time>2026-04-25T13:22:49Z</time></trkpt><trkpt lat="43.93425517647194" lon="10.736941315825975"><ele>659.8333333333333</ele><time>2026-04-25T13:22:52Z</time></trkpt><trkpt lat="43.93422946190418" lon="10.737069234751539"><ele>660.6666666666666</ele><time>2026-04-25T13:22:55Z</time></trkpt><trkpt lat="43.93418914795919" lon="10.737184521228937"><ele>661.5</ele><time>2026-04-25T13:22:57Z</time></trkpt><trkpt lat="43.93418067422836" lon="10.737279741029042"><ele>662.3333333333334</ele><time>2026-04-25T13:22:59Z</time></trkpt><trkpt lat="43.93414364951057" lon="10.73737056982541"><ele>663.1666666666667</ele><time>2026-04-25T13:23:04Z</time></trkpt><trkpt lat="43.93411442387982" lon="10.737488899531586"><ele>664.0</ele><time>2026-04-25T13:23:06Z</time></trkpt><trkpt lat="43.934081746702226" lon="10.737627940391002"><ele>666.6</ele><time>2026-04-25T13:23:08Z</time></trkpt><trkpt lat="43.93401268944265" lon="10.73774252639212"><ele>669.2</ele><time>2026-04-25T13:23:10Z</time></trkpt><trkpt lat="43.933960302026584" lon="10.737877347099849"><ele>671.8000000000001</ele><time>2026-04-25T13:23:12Z</time></trkpt><trkpt lat="43.9339100679611" lon="10.737933560924565"><ele>674.4000000000001</ele><time>2026-04-25T13:23:13Z</time></trkpt><trkpt lat="43.933831333887774" lon="10.738026036767339"><ele>677.0</ele><time>2026-04-25T13:23:15Z</time></trkpt><trkpt lat="43.933759790041776" lon="10.73814949995665"><ele>677.0</ele><time>2026-04-25T13:23:17Z</time></trkpt><trkpt lat="43.933741961363864" lon="10.738269289240227"><ele>677.0</ele><time>2026-04-25T13:23:19Z</time></trkpt><trkpt lat="43.933745581195005" lon="10.738432849060697"><ele>677.0</ele><time>2026-04-25T13:23:21Z</time></trkpt><trkpt lat="43.93382553048406" lon="10.738541741560173"><ele>677.0</ele><time>2026-04-25T13:23:23Z</time></trkpt><trkpt lat="43.933888212600266" lon="10.738666817090895"><ele>677.0</ele><time>2026-04-25T13:23:25Z</time></trkpt><trkpt lat="43.93387047499525" lon="10.73878637910458"><ele>677.4000000000001</ele><time>2026-04-25T13:23:27Z</time></trkpt><trkpt lat="43.933768037657146" lon="10.738795225312582"><ele>677.8000000000001</ele><time>2026-04-25T13:23:29Z</time></trkpt><trkpt lat="43.93369554511209" lon="10.738794734209876"><ele>678.2</ele><time>2026-04-25T13:23:30Z</time></trkpt><trkpt lat="43.933577531260795" lon="10.738838294376315"><ele>678.6</ele><time>2026-04-25T13:23:32Z</time></trkpt><trkpt lat="43.93347542596482" lon="10.738894426833403"><ele>679.0</ele><time>2026-04-25T13:23:34Z</time></trkpt><trkpt lat="43.93338472071378" lon="10.739020063920897"><ele>680.1666666666667</ele><time>2026-04-25T13:23:36Z</time></trkpt><trkpt lat="43.933325624439384" lon="10.73916160762756"><ele>681.3333333333334</ele><time>2026-04-25T13:23:38Z</time></trkpt><trkpt lat="43.93329951256007" lon="10.739253363553306"><ele>682.5</ele><time>2026-04-25T13:23:39Z</time></trkpt><trkpt lat="43.93325676429529" lon="10.739339378081176"><ele>683.6666666666666</ele><time>2026-04-25T13:23:40Z</time></trkpt><trkpt lat="43.93320427299152" lon="10.73941571174728"><ele>684.8333333333333</ele><time>2026-04-25T13:23:41Z</time></trkpt><trkpt lat="43.93316060193798" lon="10.739503290516355"><ele>686.0</ele><time>2026-04-25T13:23:42Z</time></trkpt><trkpt lat="43.933137188231285" lon="10.739592842350753"><ele>687.0</ele><time>2026-04-25T13:23:43Z</time></trkpt><trkpt lat="43.93310367983666" lon="10.739755149710792"><ele>688.0</ele><time>2026-04-25T13:23:45Z</time></trkpt><trkpt lat="43.93309534000694" lon="10.739912502068254"><ele>689.0</ele><time>2026-04-25T13:23:47Z</time></trkpt><trkpt lat="43.93309164575001" lon="10.7400032010113"><ele>690.0</ele><time>2026-04-25T13:23:48Z</time></trkpt><trkpt lat="43.93309139716694" lon="10.740168767831564"><ele>691.0</ele><time>2026-04-25T13:23:50Z</time></trkpt><trkpt lat="43.93308661257024" lon="10.740256512108292"><ele>691.0</ele><time>2026-04-25T13:23:51Z</time></trkpt><trkpt lat="43.932994385328335" lon="10.740345214260081"><ele>691.0</ele><time>2026-04-25T13:23:53Z</time></trkpt><trkpt lat="43.932934481245866" lon="10.7404095796695"><ele>691.0</ele><time>2026-04-25T13:23:54Z</time></trkpt><trkpt lat="43.93287789717668" lon="10.740472590090091"><ele>691.0</ele><time>2026-04-25T13:23:55Z</time></trkpt><trkpt lat="43.932813075174224" lon="10.740514582592152"><ele>691.0</ele><time>2026-04-25T13:23:56Z</time></trkpt><trkpt lat="43.93276167343597" lon="10.740574428089822"><ele>691.0</ele><time>2026-04-25T13:23:57Z</time></trkpt><trkpt lat="43.93271938862919" lon="10.74064981120536"><ele>691.0</ele><time>2026-04-25T13:23:58Z</time></trkpt><trkpt lat="43.932663747214136" lon="10.740803455165704"><ele>691.0</ele><time>2026-04-25T13:24:00Z</time></trkpt><trkpt lat="43.93259151362614" lon="10.740984396442995"><ele>691.0</ele><time>2026-04-25T13:24:02Z</time></trkpt><trkpt lat="43.932534224025616" lon="10.741073846499715"><ele>691.0</ele><time>2026-04-25T13:24:03Z</time></trkpt><trkpt lat="43.93247302269684" lon="10.741130688502508"><ele>691.0</ele><time>2026-04-25T13:24:04Z</time></trkpt><trkpt lat="43.93240890719518" lon="10.741212104515517"><ele>692.8571428571428</ele><time>2026-04-25T13:24:05Z</time></trkpt><trkpt lat="43.93235107019671" lon="10.741288897748712"><ele>694.7142857142857</ele><time>2026-04-25T13:24:06Z</time></trkpt><trkpt lat="43.932319868358555" lon="10.741381734247017"><ele>696.5714285714286</ele><time>2026-04-25T13:24:07Z</time></trkpt><trkpt lat="43.932308336423866" lon="10.741468554798505"><ele>698.4285714285713</ele><time>2026-04-25T13:24:08Z</time></trkpt><trkpt lat="43.93230193112834" lon="10.741565437152534"><ele>700.2857142857142</ele><time>2026-04-25T13:24:09Z</time></trkpt><trkpt lat="43.9322807182239" lon="10.74166869710339"><ele>702.1428571428571</ele><time>2026-04-25T13:24:10Z</time></trkpt><trkpt lat="43.93226009731342" lon="10.741761042958768"><ele>704.0</ele><time>2026-04-25T13:24:11Z</time></trkpt><trkpt lat="43.932230446314954" lon="10.741852831076393"><ele>704.0</ele><time>2026-04-25T13:24:12Z</time></trkpt><trkpt lat="43.93217078600571" lon="10.741922800510618"><ele>704.0</ele><time>2026-04-25T13:24:13Z</time></trkpt><trkpt lat="43.93213217527725" lon="10.742005811197904"><ele>704.0</ele><time>2026-04-25T13:24:14Z</time></trkpt><trkpt lat="43.93209879176724" lon="10.742171748029092"><ele>704.0</ele><time>2026-04-25T13:24:16Z</time></trkpt><trkpt lat="43.93209597571466" lon="10.742286806668936"><ele>704.0</ele><time>2026-04-25T13:24:17Z</time></trkpt><trkpt lat="43.932103852492986" lon="10.742401671208423"><ele>704.0</ele><time>2026-04-25T13:24:18Z</time></trkpt><trkpt lat="43.93211521218351" lon="10.7425034036057"><ele>704.0</ele><time>2026-04-25T13:24:19Z</time></trkpt><trkpt lat="43.932130032866134" lon="10.74261671463518"><ele>704.0</ele><time>2026-04-25T13:24:20Z</time></trkpt><trkpt lat="43.93213395965859" lon="10.742709386087165"><ele>704.0</ele><time>2026-04-25T13:24:21Z</time></trkpt><trkpt lat="43.93215452988519" lon="10.742814659878848"><ele>704.0</ele><time>2026-04-25T13:24:22Z</time></trkpt><trkpt lat="43.932192930703614" lon="10.742887378078294"><ele>704.0</ele><time>2026-04-25T13:24:23Z</time></trkpt><trkpt lat="43.93221893357992" lon="10.742984300835452"><ele>704.0</ele><time>2026-04-25T13:24:24Z</time></trkpt><trkpt lat="43.93223551436184" lon="10.743081926610166"><ele>704.0</ele><time>2026-04-25T13:24:25Z</time></trkpt><trkpt lat="43.93225385138011" lon="10.74319176579894"><ele>702.8000000000001</ele><time>2026-04-25T13:24:26Z</time></trkpt><trkpt lat="43.93226617941293" lon="10.743352376160955"><ele>701.6</ele><time>2026-04-25T13:24:28Z</time></trkpt><trkpt lat="43.93220342166404" lon="10.743476178214896"><ele>700.4</ele><time>2026-04-25T13:24:31Z</time></trkpt><trkpt lat="43.93215549332131" lon="10.743535280618461"><ele>699.2</ele><time>2026-04-25T13:24:33Z</time></trkpt><trkpt lat="43.93209665631165" lon="10.743652162196382"><ele>698.0</ele><time>2026-04-25T13:24:41Z</time></trkpt><trkpt lat="43.93209111306087" lon="10.743793977054438"><ele>698.0</ele><time>2026-04-25T13:24:43Z</time></trkpt><trkpt lat="43.93211444121763" lon="10.743968388168993"><ele>698.0</ele><time>2026-04-25T13:24:45Z</time></trkpt><trkpt lat="43.93214200317906" lon="10.744066675208373"><ele>698.0</ele><time>2026-04-25T13:24:46Z</time></trkpt><trkpt lat="43.93217987114947" lon="10.744165249075742"><ele>698.0</ele><time>2026-04-25T13:24:47Z</time></trkpt><trkpt lat="43.932225571607106" lon="10.744259548509584"><ele>698.0</ele><time>2026-04-25T13:24:48Z</time></trkpt><trkpt lat="43.93226869496918" lon="10.74435759069792"><ele>698.0</ele><time>2026-04-25T13:24:49Z</time></trkpt><trkpt lat="43.93231016783963" lon="10.744431956384261"><ele>698.3333333333333</ele><time>2026-04-25T13:24:50Z</time></trkpt><trkpt lat="43.93234935028339" lon="10.744502864252498"><ele>698.6666666666666</ele><time>2026-04-25T13:24:51Z</time></trkpt><trkpt lat="43.93241224946296" lon="10.74460052917618"><ele>699.0</ele><time>2026-04-25T13:24:53Z</time></trkpt><trkpt lat="43.932439183554735" lon="10.744696071435264"><ele>699.3333333333334</ele><time>2026-04-25T13:24:55Z</time></trkpt><trkpt lat="43.93235436216929" lon="10.744758951633516"><ele>699.6666666666667</ele><time>2026-04-25T13:24:57Z</time></trkpt><trkpt lat="43.932290955834695" lon="10.744790628115485"><ele>700.0</ele><time>2026-04-25T13:24:58Z</time></trkpt><trkpt lat="43.932216078459476" lon="10.744803795553103"><ele>700.0</ele><time>2026-04-25T13:24:59Z</time></trkpt><trkpt lat="43.932148583089884" lon="10.744849086932001"><ele>700.0</ele><time>2026-04-25T13:25:00Z</time></trkpt><trkpt lat="43.93209782053457" lon="10.744914687581865"><ele>700.0</ele><time>2026-04-25T13:25:01Z</time></trkpt><trkpt lat="43.93206042403022" lon="10.744989650762319"><ele>700.0</ele><time>2026-04-25T13:25:02Z</time></trkpt><trkpt lat="43.93203876889179" lon="10.745077592795056"><ele>700.0</ele><time>2026-04-25T13:25:03Z</time></trkpt><trkpt lat="43.93203432953759" lon="10.745182787768321"><ele>700.0</ele><time>2026-04-25T13:25:04Z</time></trkpt><trkpt lat="43.93203005766978" lon="10.74529387096953"><ele>700.0</ele><time>2026-04-25T13:25:05Z</time></trkpt><trkpt lat="43.932011786453444" lon="10.745409532421489"><ele>701.8333333333334</ele><time>2026-04-25T13:25:06Z</time></trkpt><trkpt lat="43.93200131719869" lon="10.745521177074625"><ele>703.6666666666667</ele><time>2026-04-25T13:25:07Z</time></trkpt><trkpt lat="43.931988584896644" lon="10.74562394719076"><ele>705.5</ele><time>2026-04-25T13:25:08Z</time></trkpt><trkpt lat="43.93198310965671" lon="10.745717462947157"><ele>707.3333333333334</ele><time>2026-04-25T13:25:09Z</time></trkpt><trkpt lat="43.93197315439037" lon="10.745819976419671"><ele>709.1666666666666</ele><time>2026-04-25T13:25:10Z</time></trkpt><trkpt lat="43.93195504066389" lon="10.74591705701755"><ele>711.0</ele><time>2026-04-25T13:25:11Z</time></trkpt><trkpt lat="43.93185345669286" lon="10.746017308784339"><ele>711.0</ele><time>2026-04-25T13:25:13Z</time></trkpt><trkpt lat="43.93177555009905" lon="10.746044071459332"><ele>711.0</ele><time>2026-04-25T13:25:14Z</time></trkpt><trkpt lat="43.93170246791733" lon="10.746040496508591"><ele>711.0</ele><time>2026-04-25T13:25:15Z</time></trkpt><trkpt lat="43.931624574286566" lon="10.746064873257142"><ele>711.0</ele><time>2026-04-25T13:25:16Z</time></trkpt><trkpt lat="43.9315552744163" lon="10.746076381512214"><ele>711.0</ele><time>2026-04-25T13:25:17Z</time></trkpt><trkpt lat="43.931489394450495" lon="10.746098593569577"><ele>711.0</ele><time>2026-04-25T13:25:18Z</time></trkpt><trkpt lat="43.93139173784128" lon="10.746191057783973"><ele>708.6666666666666</ele><time>2026-04-25T13:25:20Z</time></trkpt><trkpt lat="43.931391921329265" lon="10.746289119828056"><ele>706.3333333333334</ele><time>2026-04-25T13:25:21Z</time></trkpt><trkpt lat="43.931342098735136" lon="10.74646470834017"><ele>704.0</ele><time>2026-04-25T13:25:23Z</time></trkpt><trkpt lat="43.93130619028792" lon="10.746561135462564"><ele>701.6666666666667</ele><time>2026-04-25T13:25:24Z</time></trkpt><trkpt lat="43.93127993661601" lon="10.746641598169829"><ele>699.3333333333334</ele><time>2026-04-25T13:25:25Z</time></trkpt><trkpt lat="43.931258383651326" lon="10.746737730697074"><ele>697.0</ele><time>2026-04-25T13:25:26Z</time></trkpt><trkpt lat="43.93127495525993" lon="10.74685343362785"><ele>698.1666666666667</ele><time>2026-04-25T13:25:27Z</time></trkpt><trkpt lat="43.93126817725775" lon="10.747043955930833"><ele>699.3333333333334</ele><time>2026-04-25T13:25:29Z</time></trkpt><trkpt lat="43.93125447519779" lon="10.747144919322091"><ele>700.5</ele><time>2026-04-25T13:25:30Z</time></trkpt><trkpt lat="43.931223645538594" lon="10.747228546833572"><ele>701.6666666666666</ele><time>2026-04-25T13:25:31Z</time></trkpt><trkpt lat="43.931186411785546" lon="10.747320155689447"><ele>702.8333333333333</ele><time>2026-04-25T13:25:32Z</time></trkpt><trkpt lat="43.93115781106334" lon="10.747418788313938"><ele>704.0</ele><time>2026-04-25T13:25:33Z</time></trkpt><trkpt lat="43.93115095028919" lon="10.747533721299549"><ele>704.0</ele><time>2026-04-25T13:25:34Z</time></trkpt><trkpt lat="43.931149719682935" lon="10.747642741143327"><ele>704.0</ele><time>2026-04-25T13:25:35Z</time></trkpt><trkpt lat="43.93114485407837" lon="10.74774936588654"><ele>704.0</ele><time>2026-04-25T13:25:36Z</time></trkpt><trkpt lat="43.931149590016076" lon="10.747853779240302"><ele>704.0</ele><time>2026-04-25T13:25:37Z</time></trkpt><trkpt lat="43.93117147458202" lon="10.747955258108034"><ele>704.0</ele><time>2026-04-25T13:25:38Z</time></trkpt><trkpt lat="43.93120128149748" lon="10.748080235076282"><ele>704.0</ele><time>2026-04-25T13:25:39Z</time></trkpt><trkpt lat="43.931237870827026" lon="10.748193460222238"><ele>703.4000000000001</ele><time>2026-04-25T13:25:40Z</time></trkpt><trkpt lat="43.93126180954323" lon="10.748318863074358"><ele>702.8</ele><time>2026-04-25T13:25:41Z</time></trkpt><trkpt lat="43.93127684223092" lon="10.748433472443375"><ele>702.2</ele><time>2026-04-25T13:25:42Z</time></trkpt><trkpt lat="43.93126447810364" lon="10.748562280738344"><ele>701.5999999999999</ele><time>2026-04-25T13:25:43Z</time></trkpt><trkpt lat="43.93123179276637" lon="10.748682903341203"><ele>701.0</ele><time>2026-04-25T13:25:44Z</time></trkpt><trkpt lat="43.93119300353673" lon="10.748791872771701"><ele>700.5</ele><time>2026-04-25T13:25:45Z</time></trkpt><trkpt lat="43.931162259488985" lon="10.748878763226706"><ele>700.0</ele><time>2026-04-25T13:25:46Z</time></trkpt><trkpt lat="43.931166432005526" lon="10.749019132741914"><ele>699.5</ele><time>2026-04-25T13:25:48Z</time></trkpt><trkpt lat="43.931190067748446" lon="10.74911747975064"><ele>699.0</ele><time>2026-04-25T13:25:49Z</time></trkpt><trkpt lat="43.931237081979035" lon="10.749201589924725"><ele>698.5</ele><time>2026-04-25T13:25:50Z</time></trkpt><trkpt lat="43.93129507925774" lon="10.749302608723937"><ele>698.0</ele><time>2026-04-25T13:25:51Z</time></trkpt><trkpt lat="43.93135179819354" lon="10.749403416094069"><ele>696.4285714285713</ele><time>2026-04-25T13:25:52Z</time></trkpt><trkpt lat="43.931405749475545" lon="10.749491692316928"><ele>694.8571428571429</ele><time>2026-04-25T13:25:53Z</time></trkpt><trkpt lat="43.93144965785776" lon="10.749573106840986"><ele>693.2857142857142</ele><time>2026-04-25T13:25:54Z</time></trkpt><trkpt lat="43.93148343395339" lon="10.749668667610178"><ele>691.7142857142857</ele><time>2026-04-25T13:25:55Z</time></trkpt><trkpt lat="43.931495860416554" lon="10.749768846768744"><ele>690.1428571428571</ele><time>2026-04-25T13:25:56Z</time></trkpt><trkpt lat="43.93148889222708" lon="10.749863031294819"><ele>688.5714285714286</ele><time>2026-04-25T13:25:57Z</time></trkpt><trkpt lat="43.931460544102315" lon="10.749956968120335"><ele>687.0</ele><time>2026-04-25T13:25:58Z</time></trkpt><trkpt lat="43.931413650079335" lon="10.750063425147212"><ele>687.0</ele><time>2026-04-25T13:25:59Z</time></trkpt><trkpt lat="43.931357802489046" lon="10.750160758353253"><ele>687.0</ele><time>2026-04-25T13:26:00Z</time></trkpt><trkpt lat="43.931306832274295" lon="10.750263635271706"><ele>687.0</ele><time>2026-04-25T13:26:01Z</time></trkpt><trkpt lat="43.931248500571506" lon="10.750346388304212"><ele>687.0</ele><time>2026-04-25T13:26:02Z</time></trkpt><trkpt lat="43.931184790435246" lon="10.750437163516452"><ele>687.0</ele><time>2026-04-25T13:26:03Z</time></trkpt><trkpt lat="43.93113246283173" lon="10.750510971461972"><ele>687.0</ele><time>2026-04-25T13:26:04Z</time></trkpt><trkpt lat="43.931097017527414" lon="10.750596421286733"><ele>686.3333333333334</ele><time>2026-04-25T13:26:05Z</time></trkpt><trkpt lat="43.93107431868528" lon="10.75068037346205"><ele>685.6666666666666</ele><time>2026-04-25T13:26:06Z</time></trkpt><trkpt lat="43.93107448252851" lon="10.75077184655205"><ele>685.0</ele><time>2026-04-25T13:26:07Z</time></trkpt><trkpt lat="43.931076390749645" lon="10.750879203042444"><ele>684.3333333333333</ele><time>2026-04-25T13:26:08Z</time></trkpt><trkpt lat="43.93109926663144" lon="10.750984811821256"><ele>683.6666666666666</ele><time>2026-04-25T13:26:09Z</time></trkpt><trkpt lat="43.9311118502918" lon="10.751108638870443"><ele>683.0</ele><time>2026-04-25T13:26:10Z</time></trkpt><trkpt lat="43.93112060752408" lon="10.751235893750442"><ele>681.2</ele><time>2026-04-25T13:26:11Z</time></trkpt><trkpt lat="43.93109925475409" lon="10.751346492182842"><ele>679.4</ele><time>2026-04-25T13:26:12Z</time></trkpt><trkpt lat="43.93106078380428" lon="10.751456315100615"><ele>677.6</ele><time>2026-04-25T13:26:13Z</time></trkpt><trkpt lat="43.93100741940661" lon="10.751554869205881"><ele>675.8000000000001</ele><time>2026-04-25T13:26:14Z</time></trkpt><trkpt lat="43.93092955524782" lon="10.751640951839345"><ele>674.0</ele><time>2026-04-25T13:26:15Z</time></trkpt><trkpt lat="43.930861825433254" lon="10.751738157706349"><ele>672.8333333333333</ele><time>2026-04-25T13:26:16Z</time></trkpt><trkpt lat="43.930817574896544" lon="10.751821028541118"><ele>671.6666666666666</ele><time>2026-04-25T13:26:17Z</time></trkpt><trkpt lat="43.93075174431061" lon="10.751911435481247"><ele>670.5</ele><time>2026-04-25T13:26:18Z</time></trkpt><trkpt lat="43.93069359887904" lon="10.751976851619915"><ele>669.3333333333334</ele><time>2026-04-25T13:26:19Z</time></trkpt><trkpt lat="43.930637237564646" lon="10.752056361646142"><ele>668.1666666666667</ele><time>2026-04-25T13:26:20Z</time></trkpt><trkpt lat="43.93056861134473" lon="10.752135944012585"><ele>667.0</ele><time>2026-04-25T13:26:21Z</time></trkpt><trkpt lat="43.93048999626094" lon="10.752177719654814"><ele>667.0</ele><time>2026-04-25T13:26:22Z</time></trkpt><trkpt lat="43.93042059514893" lon="10.752232827324757"><ele>667.0</ele><time>2026-04-25T13:26:23Z</time></trkpt><trkpt lat="43.93034690862425" lon="10.752283352453672"><ele>667.0</ele><time>2026-04-25T13:26:24Z</time></trkpt><trkpt lat="43.9302728622148" lon="10.752325554757373"><ele>667.0</ele><time>2026-04-25T13:26:25Z</time></trkpt><trkpt lat="43.93019997577027" lon="10.752349460540529"><ele>667.0</ele><time>2026-04-25T13:26:26Z</time></trkpt><trkpt lat="43.93012782982806" lon="10.752382263008974"><ele>667.0</ele><time>2026-04-25T13:26:27Z</time></trkpt><trkpt lat="43.93006844144697" lon="10.7524279229534"><ele>666.4285714285714</ele><time>2026-04-25T13:26:28Z</time></trkpt><trkpt lat="43.930028244485044" lon="10.752501160619278"><ele>665.8571428571429</ele><time>2026-04-25T13:26:29Z</time></trkpt><trkpt lat="43.93000529007038" lon="10.752591638318313"><ele>665.2857142857142</ele><time>2026-04-25T13:26:30Z</time></trkpt><trkpt lat="43.929977678991996" lon="10.75268485442459"><ele>664.7142857142858</ele><time>2026-04-25T13:26:31Z</time></trkpt><trkpt lat="43.929937204898664" lon="10.75277564150774"><ele>664.1428571428571</ele><time>2026-04-25T13:26:32Z</time></trkpt><trkpt lat="43.92989518445435" lon="10.75287206031021"><ele>663.5714285714286</ele><time>2026-04-25T13:26:33Z</time></trkpt><trkpt lat="43.92985645763678" lon="10.75296051678156"><ele>663.0</ele><time>2026-04-25T13:26:34Z</time></trkpt><trkpt lat="43.92980794378878" lon="10.753041646255218"><ele>661.8333333333334</ele><time>2026-04-25T13:26:35Z</time></trkpt><trkpt lat="43.92976127544014" lon="10.75313082581777"><ele>660.6666666666666</ele><time>2026-04-25T13:26:36Z</time></trkpt><trkpt lat="43.929708416203304" lon="10.753207198655117"><ele>659.5</ele><time>2026-04-25T13:26:37Z</time></trkpt><trkpt lat="43.92965073863156" lon="10.753288103028103"><ele>658.3333333333333</ele><time>2026-04-25T13:26:38Z</time></trkpt><trkpt lat="43.929581737806934" lon="10.753374886899602"><ele>657.1666666666666</ele><time>2026-04-25T13:26:39Z</time></trkpt><trkpt lat="43.929538665966845" lon="10.753460820752792"><ele>656.0</ele><time>2026-04-25T13:26:40Z</time></trkpt><trkpt lat="43.929446053924266" lon="10.753539345951886"><ele>655.1999999999999</ele><time>2026-04-25T13:26:41Z</time></trkpt><trkpt lat="43.929372520058365" lon="10.75359586362464"><ele>654.4</ele><time>2026-04-25T13:26:42Z</time></trkpt><trkpt lat="43.929290258348395" lon="10.753649020982275"><ele>653.6</ele><time>2026-04-25T13:26:43Z</time></trkpt><trkpt lat="43.92920259081269" lon="10.753689800989111"><ele>652.8</ele><time>2026-04-25T13:26:44Z</time></trkpt><trkpt lat="43.92912219014957" lon="10.753743447081169"><ele>652.0</ele><time>2026-04-25T13:26:45Z</time></trkpt><trkpt lat="43.92903235487833" lon="10.753805859290361"><ele>652.0</ele><time>2026-04-25T13:26:46Z</time></trkpt><trkpt lat="43.928948302108125" lon="10.753861842536324"><ele>652.0</ele><time>2026-04-25T13:26:47Z</time></trkpt><trkpt lat="43.92886309983892" lon="10.753928978634667"><ele>652.0</ele><time>2026-04-25T13:26:48Z</time></trkpt><trkpt lat="43.92879054823079" lon="10.7539917679925"><ele>652.0</ele><time>2026-04-25T13:26:49Z</time></trkpt><trkpt lat="43.92871681011461" lon="10.754059435508506"><ele>652.0</ele><time>2026-04-25T13:26:50Z</time></trkpt><trkpt lat="43.92865350009828" lon="10.754115099141075"><ele>652.0</ele><time>2026-04-25T13:26:51Z</time></trkpt><trkpt lat="43.92858808166569" lon="10.754172690518702"><ele>652.0</ele><time>2026-04-25T13:26:52Z</time></trkpt><trkpt lat="43.92853948181013" lon="10.754254391800146"><ele>652.0</ele><time>2026-04-25T13:26:53Z</time></trkpt><trkpt lat="43.928473223008936" lon="10.754327182722397"><ele>652.0</ele><time>2026-04-25T13:26:54Z</time></trkpt><trkpt lat="43.928408632024755" lon="10.754376200862469"><ele>652.0</ele><time>2026-04-25T13:26:55Z</time></trkpt><trkpt lat="43.92833770363593" lon="10.754401723190373"><ele>652.0</ele><time>2026-04-25T13:26:56Z</time></trkpt><trkpt lat="43.928265501412405" lon="10.754421894851038"><ele>652.0</ele><time>2026-04-25T13:26:57Z</time></trkpt><trkpt lat="43.92819465236746" lon="10.754399961237434"><ele>651.0</ele><time>2026-04-25T13:26:58Z</time></trkpt><trkpt lat="43.928063977776056" lon="10.754343978180056"><ele>650.0</ele><time>2026-04-25T13:27:00Z</time></trkpt><trkpt lat="43.927987574811326" lon="10.754341298641432"><ele>649.0</ele><time>2026-04-25T13:27:01Z</time></trkpt><trkpt lat="43.92790366540863" lon="10.754353377721824"><ele>648.0</ele><time>2026-04-25T13:27:02Z</time></trkpt><trkpt lat="43.92782600558074" lon="10.754369135683145"><ele>647.0</ele><time>2026-04-25T13:27:03Z</time></trkpt><trkpt lat="43.927753950776825" lon="10.754413018928677"><ele>647.0</ele><time>2026-04-25T13:27:04Z</time></trkpt><trkpt lat="43.927682838855645" lon="10.754455554111763"><ele>647.0</ele><time>2026-04-25T13:27:05Z</time></trkpt><trkpt lat="43.92760876278058" lon="10.75451420256687"><ele>647.0</ele><time>2026-04-25T13:27:06Z</time></trkpt><trkpt lat="43.92752942681856" lon="10.754570108310439"><ele>647.0</ele><time>2026-04-25T13:27:07Z</time></trkpt><trkpt lat="43.92745187978475" lon="10.754625114782744"><ele>647.0</ele><time>2026-04-25T13:27:08Z</time></trkpt><trkpt lat="43.92737355436694" lon="10.754678531903137"><ele>647.0</ele><time>2026-04-25T13:27:09Z</time></trkpt><trkpt lat="43.927303092729765" lon="10.754726938593853"><ele>646.6666666666666</ele><time>2026-04-25T13:27:10Z</time></trkpt><trkpt lat="43.927233797646466" lon="10.754764413678542"><ele>646.3333333333333</ele><time>2026-04-25T13:27:11Z</time></trkpt><trkpt lat="43.927170364094266" lon="10.754804125584096"><ele>646.0</ele><time>2026-04-25T13:27:12Z</time></trkpt><trkpt lat="43.92705299208552" lon="10.754847195419497"><ele>645.6666666666666</ele><time>2026-04-25T13:27:14Z</time></trkpt><trkpt lat="43.926963323776626" lon="10.754861188017497"><ele>645.3333333333334</ele><time>2026-04-25T13:27:16Z</time></trkpt><trkpt lat="43.926914005115876" lon="10.75495778001939"><ele>645.0</ele><time>2026-04-25T13:27:18Z</time></trkpt><trkpt lat="43.92686383698489" lon="10.755096739452215"><ele>645.0</ele><time>2026-04-25T13:27:20Z</time></trkpt><trkpt lat="43.926771138472795" lon="10.755165953033192"><ele>645.0</ele><time>2026-04-25T13:27:22Z</time></trkpt><trkpt lat="43.926664828896634" lon="10.755174004661885"><ele>645.0</ele><time>2026-04-25T13:27:24Z</time></trkpt><trkpt lat="43.92655276625879" lon="10.755180090315493"><ele>645.0</ele><time>2026-04-25T13:27:26Z</time></trkpt><trkpt lat="43.92647448758552" lon="10.755201133985846"><ele>645.0</ele><time>2026-04-25T13:27:28Z</time></trkpt><trkpt lat="43.92640521176093" lon="10.755233429203543"><ele>644.2</ele><time>2026-04-25T13:27:30Z</time></trkpt><trkpt lat="43.92630877907182" lon="10.75522088782648"><ele>643.4</ele><time>2026-04-25T13:27:32Z</time></trkpt><trkpt lat="43.92620762158136" lon="10.755219366449557"><ele>642.5999999999999</ele><time>2026-04-25T13:27:34Z</time></trkpt><trkpt lat="43.926114612537056" lon="10.755203731057293"><ele>641.8</ele><time>2026-04-25T13:27:36Z</time></trkpt><trkpt lat="43.92604027325949" lon="10.755198094307334"><ele>641.0</ele><time>2026-04-25T13:27:38Z</time></trkpt><trkpt lat="43.92595972007693" lon="10.755237946966616"><ele>636.8333333333333</ele><time>2026-04-25T13:27:40Z</time></trkpt><trkpt lat="43.92588860128952" lon="10.755289185933066"><ele>632.6666666666666</ele><time>2026-04-25T13:27:42Z</time></trkpt><trkpt lat="43.9258504203882" lon="10.755417347304094"><ele>628.5</ele><time>2026-04-25T13:27:45Z</time></trkpt><trkpt lat="43.92583132993921" lon="10.755501906159235"><ele>624.3333333333334</ele><time>2026-04-25T13:27:47Z</time></trkpt><trkpt lat="43.925839437235545" lon="10.755635676212746"><ele>620.1666666666667</ele><time>2026-04-25T13:27:49Z</time></trkpt><trkpt lat="43.925814119069656" lon="10.75573329116794"><ele>616.0</ele><time>2026-04-25T13:27:51Z</time></trkpt><trkpt lat="43.925837953880645" lon="10.75587536644609"><ele>616.0</ele><time>2026-04-25T13:27:53Z</time></trkpt><trkpt lat="43.92586029887898" lon="10.755980251002706"><ele>616.0</ele><time>2026-04-25T13:27:55Z</time></trkpt><trkpt lat="43.9258938671479" lon="10.756092792988863"><ele>616.0</ele><time>2026-04-25T13:27:57Z</time></trkpt><trkpt lat="43.925929123783646" lon="10.756221565008511"><ele>616.0</ele><time>2026-04-25T13:27:59Z</time></trkpt><trkpt lat="43.92596537510824" lon="10.756357927396595"><ele>616.0</ele><time>2026-04-25T13:28:01Z</time></trkpt><trkpt lat="43.92602050188054" lon="10.75646318606857"><ele>614.8333333333334</ele><time>2026-04-25T13:28:03Z</time></trkpt><trkpt lat="43.92605353054821" lon="10.756562849267828"><ele>613.6666666666667</ele><time>2026-04-25T13:28:05Z</time></trkpt><trkpt lat="43.92599390521662" lon="10.75664319375615"><ele>612.5</ele><time>2026-04-25T13:28:08Z</time></trkpt><trkpt lat="43.9259337634032" lon="10.756594225592785"><ele>611.3333333333334</ele><time>2026-04-25T13:28:11Z</time></trkpt><trkpt lat="43.925846174993104" lon="10.756577761844751"><ele>610.1666666666666</ele><time>2026-04-25T13:28:13Z</time></trkpt><trkpt lat="43.92579022206617" lon="10.756493295634858"><ele>609.0</ele><time>2026-04-25T13:28:15Z</time></trkpt><trkpt lat="43.925745522761986" lon="10.756598920147216"><ele>607.3333333333334</ele><time>2026-04-25T13:28:18Z</time></trkpt><trkpt lat="43.92577082967122" lon="10.756698113192357"><ele>605.6666666666666</ele><time>2026-04-25T13:28:21Z</time></trkpt><trkpt lat="43.92580052146667" lon="10.756819107885214"><ele>604.0</ele><time>2026-04-25T13:28:23Z</time></trkpt><trkpt lat="43.92578985982904" lon="10.756941368921401"><ele>602.3333333333333</ele><time>2026-04-25T13:28:25Z</time></trkpt><trkpt lat="43.92575840360855" lon="10.757048343033285"><ele>600.6666666666666</ele><time>2026-04-25T13:28:27Z</time></trkpt><trkpt lat="43.92568869401721" lon="10.757139390528089"><ele>599.0</ele><time>2026-04-25T13:28:29Z</time></trkpt><trkpt lat="43.92561825053237" lon="10.757244925273499"><ele>595.6</ele><time>2026-04-25T13:28:31Z</time></trkpt><trkpt lat="43.925583802640666" lon="10.757349847504805"><ele>592.2</ele><time>2026-04-25T13:28:33Z</time></trkpt><trkpt lat="43.925512744093815" lon="10.757315067871335"><ele>588.8000000000001</ele><time>2026-04-25T13:28:36Z</time></trkpt><trkpt lat="43.92544369737504" lon="10.757210947983934"><ele>585.4</ele><time>2026-04-25T13:28:38Z</time></trkpt><trkpt lat="43.92541019957106" lon="10.757079644597145"><ele>582.0</ele><time>2026-04-25T13:28:40Z</time></trkpt><trkpt lat="43.925378888084325" lon="10.756951900331696"><ele>585.4</ele><time>2026-04-25T13:28:42Z</time></trkpt><trkpt lat="43.92537358670212" lon="10.756832346466826"><ele>588.8000000000001</ele><time>2026-04-25T13:28:44Z</time></trkpt><trkpt lat="43.92536928173289" lon="10.75668814639036"><ele>592.2</ele><time>2026-04-25T13:28:46Z</time></trkpt><trkpt lat="43.92535800642376" lon="10.756551748084998"><ele>595.6</ele><time>2026-04-25T13:28:48Z</time></trkpt><trkpt lat="43.92534068381441" lon="10.75641825781254"><ele>599.0</ele><time>2026-04-25T13:28:50Z</time></trkpt><trkpt lat="43.92531124229082" lon="10.756275332523858"><ele>599.0</ele><time>2026-04-25T13:28:52Z</time></trkpt><trkpt lat="43.92527690067312" lon="10.75615217003519"><ele>599.0</ele><time>2026-04-25T13:28:54Z</time></trkpt><trkpt lat="43.92518665277683" lon="10.756077319572267"><ele>599.0</ele><time>2026-04-25T13:28:56Z</time></trkpt><trkpt lat="43.925062553896055" lon="10.756056343568604"><ele>599.0</ele><time>2026-04-25T13:28:58Z</time></trkpt><trkpt lat="43.924987569780626" lon="10.756069386945857"><ele>599.0</ele><time>2026-04-25T13:28:59Z</time></trkpt><trkpt lat="43.924917871951436" lon="10.756077852165285"><ele>597.0</ele><time>2026-04-25T13:29:00Z</time></trkpt><trkpt lat="43.924853814158645" lon="10.756077418876904"><ele>595.0</ele><time>2026-04-25T13:29:01Z</time></trkpt><trkpt lat="43.92478994260722" lon="10.756057995712414"><ele>593.0</ele><time>2026-04-25T13:29:02Z</time></trkpt><trkpt lat="43.924719566985225" lon="10.756025296474906"><ele>591.0</ele><time>2026-04-25T13:29:04Z</time></trkpt><trkpt lat="43.92467132369126" lon="10.755964293900464"><ele>589.0</ele><time>2026-04-25T13:29:05Z</time></trkpt><trkpt lat="43.92461090074133" lon="10.755891655473752"><ele>587.0</ele><time>2026-04-25T13:29:06Z</time></trkpt><trkpt lat="43.92455703025194" lon="10.755838308012072"><ele>585.0</ele><time>2026-04-25T13:29:07Z</time></trkpt><trkpt lat="43.924496405793676" lon="10.755771547007585"><ele>585.0</ele><time>2026-04-25T13:29:09Z</time></trkpt><trkpt lat="43.9244270258737" lon="10.755794461220004"><ele>585.0</ele><time>2026-04-25T13:29:11Z</time></trkpt><trkpt lat="43.92434878741403" lon="10.755885255249058"><ele>585.0</ele><time>2026-04-25T13:29:13Z</time></trkpt><trkpt lat="43.924275675714604" lon="10.755966015803473"><ele>585.0</ele><time>2026-04-25T13:29:15Z</time></trkpt><trkpt lat="43.92420591814573" lon="10.756046783552057"><ele>585.0</ele><time>2026-04-25T13:29:17Z</time></trkpt><trkpt lat="43.92412841818662" lon="10.75610342543973"><ele>585.0</ele><time>2026-04-25T13:29:19Z</time></trkpt><trkpt lat="43.9240654125611" lon="10.75611315278114"><ele>580.4</ele><time>2026-04-25T13:29:20Z</time></trkpt><trkpt lat="43.9239717879335" lon="10.756132755175283"><ele>575.8</ele><time>2026-04-25T13:29:22Z</time></trkpt><trkpt lat="43.923886348871605" lon="10.756141253524028"><ele>571.2</ele><time>2026-04-25T13:29:24Z</time></trkpt><trkpt lat="43.92381482187911" lon="10.756216168323876"><ele>566.6</ele><time>2026-04-25T13:29:26Z</time></trkpt><trkpt lat="43.923836018873864" lon="10.756322605223678"><ele>562.0</ele><time>2026-04-25T13:29:28Z</time></trkpt><trkpt lat="43.92384685807826" lon="10.756463125768738"><ele>562.0</ele><time>2026-04-25T13:29:30Z</time></trkpt><trkpt lat="43.92385615156749" lon="10.75656745766775"><ele>562.0</ele><time>2026-04-25T13:29:32Z</time></trkpt><trkpt lat="43.923890319147155" lon="10.756668939954542"><ele>562.0</ele><time>2026-04-25T13:29:34Z</time></trkpt><trkpt lat="43.92395546125814" lon="10.756783655605076"><ele>562.0</ele><time>2026-04-25T13:29:36Z</time></trkpt><trkpt lat="43.92404428512849" lon="10.756792370368867"><ele>562.0</ele><time>2026-04-25T13:29:38Z</time></trkpt><trkpt lat="43.92414092794281" lon="10.756778153387737"><ele>562.0</ele><time>2026-04-25T13:29:40Z</time></trkpt><trkpt lat="43.924244795990376" lon="10.756768055205859"><ele>563.8000000000001</ele><time>2026-04-25T13:29:42Z</time></trkpt><trkpt lat="43.92433635142759" lon="10.756748881882636"><ele>565.6</ele><time>2026-04-25T13:29:44Z</time></trkpt><trkpt lat="43.924440023413354" lon="10.756729075602776"><ele>567.4000000000001</ele><time>2026-04-25T13:29:46Z</time></trkpt><trkpt lat="43.924536244163235" lon="10.756694937686852"><ele>569.2</ele><time>2026-04-25T13:29:48Z</time></trkpt><trkpt lat="43.92464094150236" lon="10.756658073895505"><ele>571.0</ele><time>2026-04-25T13:29:50Z</time></trkpt><trkpt lat="43.9247405968165" lon="10.756638915728896"><ele>571.0</ele><time>2026-04-25T13:29:52Z</time></trkpt><trkpt lat="43.92480847164217" lon="10.756681739845504"><ele>571.0</ele><time>2026-04-25T13:29:54Z</time></trkpt><trkpt lat="43.92481263440366" lon="10.75680110177248"><ele>571.0</ele><time>2026-04-25T13:29:56Z</time></trkpt><trkpt lat="43.92475181085056" lon="10.756823653600929"><ele>571.0</ele><time>2026-04-25T13:29:58Z</time></trkpt><trkpt lat="43.92465219889209" lon="10.75684555484591"><ele>571.0</ele><time>2026-04-25T13:30:00Z</time></trkpt><trkpt lat="43.92459239734097" lon="10.7568793940335"><ele>571.0</ele><time>2026-04-25T13:30:01Z</time></trkpt><trkpt lat="43.92453870830776" lon="10.756961486898557"><ele>570.0</ele><time>2026-04-25T13:30:03Z</time></trkpt><trkpt lat="43.92447733330521" lon="10.757042548509526"><ele>569.0</ele><time>2026-04-25T13:30:05Z</time></trkpt><trkpt lat="43.92437958578606" lon="10.757120717032302"><ele>568.0</ele><time>2026-04-25T13:30:07Z</time></trkpt><trkpt lat="43.924326320388225" lon="10.757176811954864"><ele>567.0</ele><time>2026-04-25T13:30:08Z</time></trkpt><trkpt lat="43.92423616013868" lon="10.757259359431773"><ele>566.0</ele><time>2026-04-25T13:30:10Z</time></trkpt><trkpt lat="43.92414520294825" lon="10.757357044300385"><ele>561.2</ele><time>2026-04-25T13:30:12Z</time></trkpt><trkpt lat="43.92405019058777" lon="10.757415550702168"><ele>556.4000000000001</ele><time>2026-04-25T13:30:14Z</time></trkpt><trkpt lat="43.92399855252039" lon="10.757468192182088"><ele>551.6</ele><time>2026-04-25T13:30:15Z</time></trkpt><trkpt lat="43.923902031597734" lon="10.757548254355921"><ele>546.8000000000001</ele><time>2026-04-25T13:30:17Z</time></trkpt><trkpt lat="43.923802520569936" lon="10.757621253182121"><ele>542.0</ele><time>2026-04-25T13:30:19Z</time></trkpt><trkpt lat="43.92370673679792" lon="10.757709444757799"><ele>541.0</ele><time>2026-04-25T13:30:21Z</time></trkpt><trkpt lat="43.92362162766492" lon="10.757812924311972"><ele>540.0</ele><time>2026-04-25T13:30:23Z</time></trkpt><trkpt lat="43.92352214123715" lon="10.757880507748602"><ele>539.0</ele><time>2026-04-25T13:30:25Z</time></trkpt><trkpt lat="43.923426094328164" lon="10.757961273338658"><ele>538.0</ele><time>2026-04-25T13:30:27Z</time></trkpt><trkpt lat="43.92335145555378" lon="10.75802670092097"><ele>537.0</ele><time>2026-04-25T13:30:29Z</time></trkpt><trkpt lat="43.92328909169055" lon="10.758140166354345"><ele>532.2</ele><time>2026-04-25T13:30:31Z</time></trkpt><trkpt lat="43.92319371758687" lon="10.75821289421239"><ele>527.4000000000001</ele><time>2026-04-25T13:30:33Z</time></trkpt><trkpt lat="43.923082766844004" lon="10.75821859457038"><ele>522.5999999999999</ele><time>2026-04-25T13:30:35Z</time></trkpt><trkpt lat="43.92299333131202" lon="10.758226427570877"><ele>517.8</ele><time>2026-04-25T13:30:37Z</time></trkpt><trkpt lat="43.922911442067004" lon="10.758254961503093"><ele>513.0</ele><time>2026-04-25T13:30:39Z</time></trkpt><trkpt lat="43.922845597444656" lon="10.758314058144842"><ele>513.0</ele><time>2026-04-25T13:30:42Z</time></trkpt><trkpt lat="43.92279107640937" lon="10.75839413665523"><ele>513.0</ele><time>2026-04-25T13:30:44Z</time></trkpt><trkpt lat="43.92276025125967" lon="10.758471157597185"><ele>513.0</ele><time>2026-04-25T13:30:45Z</time></trkpt><trkpt lat="43.92269376352709" lon="10.758605527746113"><ele>513.0</ele><time>2026-04-25T13:30:47Z</time></trkpt><trkpt lat="43.92263763905627" lon="10.758664536604526"><ele>513.0</ele><time>2026-04-25T13:30:48Z</time></trkpt><trkpt lat="43.92255452418601" lon="10.758769552222374"><ele>513.0</ele><time>2026-04-25T13:30:50Z</time></trkpt><trkpt lat="43.92244829943591" lon="10.758809679949483"><ele>507.75</ele><time>2026-04-25T13:30:52Z</time></trkpt><trkpt lat="43.92233344655674" lon="10.758812350630516"><ele>502.5</ele><time>2026-04-25T13:30:54Z</time></trkpt><trkpt lat="43.92222421456341" lon="10.758822758349524"><ele>497.25</ele><time>2026-04-25T13:30:56Z</time></trkpt><trkpt lat="43.922110570091945" lon="10.758803408004798"><ele>492.0</ele><time>2026-04-25T13:30:58Z</time></trkpt><trkpt lat="43.9220041069514" lon="10.758759388401515"><ele>492.0</ele><time>2026-04-25T13:31:00Z</time></trkpt><trkpt lat="43.921898844331665" lon="10.758772804562687"><ele>492.00000000000006</ele><time>2026-04-25T13:31:02Z</time></trkpt><trkpt lat="43.92178599668561" lon="10.758773010123825"><ele>492.00000000000006</ele><time>2026-04-25T13:31:04Z</time></trkpt><trkpt lat="43.921711980304295" lon="10.758700764697885"><ele>492.0</ele><time>2026-04-25T13:31:06Z</time></trkpt><trkpt lat="43.92168639875653" lon="10.75855403241144"><ele>492.0</ele><time>2026-04-25T13:31:08Z</time></trkpt><trkpt lat="43.921670194066195" lon="10.758463123517913"><ele>490.40000000000003</ele><time>2026-04-25T13:31:09Z</time></trkpt><trkpt lat="43.92163272607611" lon="10.758302549949716"><ele>488.80000000000007</ele><time>2026-04-25T13:31:11Z</time></trkpt><trkpt lat="43.92157071144896" lon="10.758161878444673"><ele>487.2</ele><time>2026-04-25T13:31:13Z</time></trkpt><trkpt lat="43.921528613800454" lon="10.758094171134525"><ele>485.6</ele><time>2026-04-25T13:31:14Z</time></trkpt><trkpt lat="43.921427946926165" lon="10.75798307713034"><ele>484.0</ele><time>2026-04-25T13:31:16Z</time></trkpt><trkpt lat="43.921378841806806" lon="10.757926434944869"><ele>484.00000000000006</ele><time>2026-04-25T13:31:17Z</time></trkpt><trkpt lat="43.921307186993445" lon="10.757811371447612"><ele>484.0</ele><time>2026-04-25T13:31:19Z</time></trkpt><trkpt lat="43.921236201530064" lon="10.757746738462142"><ele>484.0</ele><time>2026-04-25T13:31:21Z</time></trkpt><trkpt lat="43.9212215993163" lon="10.757844198454995"><ele>484.0</ele><time>2026-04-25T13:31:25Z</time></trkpt><trkpt lat="43.92124560130473" lon="10.757926435672902"><ele>484.00000000000006</ele><time>2026-04-25T13:31:26Z</time></trkpt><trkpt lat="43.92130285922454" lon="10.758070262564647"><ele>484.0</ele><time>2026-04-25T13:31:28Z</time></trkpt><trkpt lat="43.92131923713444" lon="10.758213126154228"><ele>484.00000000000006</ele><time>2026-04-25T13:31:30Z</time></trkpt><trkpt lat="43.92129811698318" lon="10.758364707601592"><ele>484.0</ele><time>2026-04-25T13:31:32Z</time></trkpt><trkpt lat="43.921243737261385" lon="10.758497499115741"><ele>484.0</ele><time>2026-04-25T13:31:34Z</time></trkpt><trkpt lat="43.92120515344918" lon="10.758574378457961"><ele>484.0</ele><time>2026-04-25T13:31:35Z</time></trkpt><trkpt lat="43.92116206974342" lon="10.758646072282215"><ele>484.00000000000006</ele><time>2026-04-25T13:31:36Z</time></trkpt><trkpt lat="43.92112485211683" lon="10.758720581028172"><ele>484.0</ele><time>2026-04-25T13:31:37Z</time></trkpt><trkpt lat="43.92108472237207" lon="10.758807674509391"><ele>484.4285714285714</ele><time>2026-04-25T13:31:38Z</time></trkpt><trkpt lat="43.9210435953686" lon="10.758907397520158"><ele>484.8571428571428</ele><time>2026-04-25T13:31:39Z</time></trkpt><trkpt lat="43.92099488505378" lon="10.758979972096656"><ele>485.2857142857143</ele><time>2026-04-25T13:31:40Z</time></trkpt><trkpt lat="43.920931966795294" lon="10.7590457426144"><ele>485.71428571428567</ele><time>2026-04-25T13:31:41Z</time></trkpt><trkpt lat="43.92087726234078" lon="10.759109099676682"><ele>486.1428571428571</ele><time>2026-04-25T13:31:42Z</time></trkpt><trkpt lat="43.92082987842881" lon="10.759177948999314"><ele>486.57142857142856</ele><time>2026-04-25T13:31:43Z</time></trkpt><trkpt lat="43.92078307162124" lon="10.75924626894737"><ele>487.0</ele><time>2026-04-25T13:31:44Z</time></trkpt><trkpt lat="43.92073571768603" lon="10.759306555769511"><ele>486.0</ele><time>2026-04-25T13:31:45Z</time></trkpt><trkpt lat="43.920665929018554" lon="10.759445912590603"><ele>485.0</ele><time>2026-04-25T13:31:47Z</time></trkpt><trkpt lat="43.920626451299825" lon="10.759598093431997"><ele>484.0</ele><time>2026-04-25T13:31:49Z</time></trkpt><trkpt lat="43.92057546054301" lon="10.759745698128254"><ele>483.0</ele><time>2026-04-25T13:31:51Z</time></trkpt><trkpt lat="43.920538076128906" lon="10.75991095662446"><ele>483.0</ele><time>2026-04-25T13:31:53Z</time></trkpt><trkpt lat="43.920504993968954" lon="10.760080012090485"><ele>483.0</ele><time>2026-04-25T13:31:55Z</time></trkpt><trkpt lat="43.92046577748822" lon="10.760231803573722"><ele>483.0</ele><time>2026-04-25T13:31:57Z</time></trkpt><trkpt lat="43.92042932406724" lon="10.760393874714545"><ele>483.0</ele><time>2026-04-25T13:31:59Z</time></trkpt><trkpt lat="43.92040700878852" lon="10.760557737693318"><ele>482.59999999999997</ele><time>2026-04-25T13:32:01Z</time></trkpt><trkpt lat="43.92041824182255" lon="10.760661530058591"><ele>482.19999999999993</ele><time>2026-04-25T13:32:02Z</time></trkpt><trkpt lat="43.920448307486716" lon="10.760835161767968"><ele>481.8</ele><time>2026-04-25T13:32:04Z</time></trkpt><trkpt lat="43.92048866907807" lon="10.76100342351016"><ele>481.4</ele><time>2026-04-25T13:32:06Z</time></trkpt><trkpt lat="43.92051515878365" lon="10.76108891367573"><ele>481.0</ele><time>2026-04-25T13:32:07Z</time></trkpt><trkpt lat="43.92054930065343" lon="10.761165772129004"><ele>476.0</ele><time>2026-04-25T13:32:08Z</time></trkpt><trkpt lat="43.92061189903242" lon="10.761300338261336"><ele>471.0</ele><time>2026-04-25T13:32:10Z</time></trkpt><trkpt lat="43.920673553054655" lon="10.761422584083652"><ele>466.0</ele><time>2026-04-25T13:32:12Z</time></trkpt><trkpt lat="43.9207451811985" lon="10.76154254724099"><ele>461.0</ele><time>2026-04-25T13:32:14Z</time></trkpt><trkpt lat="43.920833803049874" lon="10.761647339342739"><ele>462.8</ele><time>2026-04-25T13:32:16Z</time></trkpt><trkpt lat="43.920919531879015" lon="10.76174543967658"><ele>464.6</ele><time>2026-04-25T13:32:18Z</time></trkpt><trkpt lat="43.921008224007664" lon="10.761841641813621"><ele>466.4</ele><time>2026-04-25T13:32:20Z</time></trkpt><trkpt lat="43.921080557798014" lon="10.761932132557012"><ele>468.2</ele><time>2026-04-25T13:32:22Z</time></trkpt><trkpt lat="43.92117065057469" lon="10.762010083429432"><ele>470.0</ele><time>2026-04-25T13:32:24Z</time></trkpt><trkpt lat="43.92126377000979" lon="10.762059326693372"><ele>461.6</ele><time>2026-04-25T13:32:26Z</time></trkpt><trkpt lat="43.92137637532139" lon="10.762077696895615"><ele>453.2</ele><time>2026-04-25T13:32:28Z</time></trkpt><trkpt lat="43.92147719610783" lon="10.76203733841403"><ele>444.79999999999995</ele><time>2026-04-25T13:32:30Z</time></trkpt><trkpt lat="43.921571397772105" lon="10.761977677692725"><ele>436.4</ele><time>2026-04-25T13:32:32Z</time></trkpt><trkpt lat="43.92162934729805" lon="10.761939340320389"><ele>428.0</ele><time>2026-04-25T13:32:35Z</time></trkpt><trkpt lat="43.9216061598329" lon="10.762049645215237"><ele>427.99999999999994</ele><time>2026-04-25T13:32:39Z</time></trkpt><trkpt lat="43.92154381662252" lon="10.762116651823987"><ele>428.0</ele><time>2026-04-25T13:32:41Z</time></trkpt><trkpt lat="43.92147090800614" lon="10.762172245317796"><ele>428.0</ele><time>2026-04-25T13:32:43Z</time></trkpt><trkpt lat="43.921400898520034" lon="10.762221416613448"><ele>428.0</ele><time>2026-04-25T13:32:45Z</time></trkpt><trkpt lat="43.92132340566033" lon="10.762269299873305"><ele>427.99999999999994</ele><time>2026-04-25T13:32:47Z</time></trkpt><trkpt lat="43.921241532121414" lon="10.762315527056824"><ele>428.0</ele><time>2026-04-25T13:32:49Z</time></trkpt><trkpt lat="43.921160056973974" lon="10.762355833438171"><ele>427.99999999999994</ele><time>2026-04-25T13:32:51Z</time></trkpt><trkpt lat="43.9210764426184" lon="10.76238232307604"><ele>428.0</ele><time>2026-04-25T13:32:53Z</time></trkpt><trkpt lat="43.9209997905034" lon="10.762397005148046"><ele>428.0</ele><time>2026-04-25T13:32:55Z</time></trkpt><trkpt lat="43.9209182389215" lon="10.762410705936372"><ele>428.0</ele><time>2026-04-25T13:32:57Z</time></trkpt><trkpt lat="43.92082879283372" lon="10.762428578731209"><ele>427.99999999999994</ele><time>2026-04-25T13:32:59Z</time></trkpt><trkpt lat="43.920730228855575" lon="10.762428535693832"><ele>428.0</ele><time>2026-04-25T13:33:01Z</time></trkpt><trkpt lat="43.920649628270304" lon="10.762419523487264"><ele>427.99999999999994</ele><time>2026-04-25T13:33:03Z</time></trkpt><trkpt lat="43.92055873602821" lon="10.762401319843947"><ele>428.0</ele><time>2026-04-25T13:33:05Z</time></trkpt><trkpt lat="43.92047695038835" lon="10.762372848447754"><ele>428.0</ele><time>2026-04-25T13:33:07Z</time></trkpt><trkpt lat="43.92039531235523" lon="10.762366342868106"><ele>428.0</ele><time>2026-04-25T13:33:09Z</time></trkpt><trkpt lat="43.92035563497651" lon="10.76244363774643"><ele>427.99999999999994</ele><time>2026-04-25T13:33:12Z</time></trkpt><trkpt lat="43.920389375942364" lon="10.762523658141006"><ele>428.0</ele><time>2026-04-25T13:33:14Z</time></trkpt><trkpt lat="43.92043939661602" lon="10.762577572096689"><ele>428.0</ele><time>2026-04-25T13:33:16Z</time></trkpt><trkpt lat="43.92051941654808" lon="10.762662168545933"><ele>427.99999999999994</ele><time>2026-04-25T13:33:19Z</time></trkpt><trkpt lat="43.92060426532325" lon="10.762719026583344"><ele>427.99999999999994</ele><time>2026-04-25T13:33:21Z</time></trkpt><trkpt lat="43.92066111232956" lon="10.76278983738768"><ele>428.0</ele><time>2026-04-25T13:33:23Z</time></trkpt><trkpt lat="43.9205668753537" lon="10.762819256743319"><ele>428.0</ele><time>2026-04-25T13:33:26Z</time></trkpt><trkpt lat="43.92044753186092" lon="10.762809137442112"><ele>428.0</ele><time>2026-04-25T13:33:28Z</time></trkpt><trkpt lat="43.92032976395243" lon="10.762749423606133"><ele>427.99999999999994</ele><time>2026-04-25T13:33:30Z</time></trkpt><trkpt lat="43.920249725116584" lon="10.76267092391384"><ele>427.99999999999994</ele><time>2026-04-25T13:33:32Z</time></trkpt><trkpt lat="43.92017229177399" lon="10.762606692134673"><ele>428.0</ele><time>2026-04-25T13:33:34Z</time></trkpt><trkpt lat="43.920065586733344" lon="10.762525400620673"><ele>428.0</ele><time>2026-04-25T13:33:36Z</time></trkpt><trkpt lat="43.919977125750215" lon="10.762426789016192"><ele>423.66666666666663</ele><time>2026-04-25T13:33:38Z</time></trkpt><trkpt lat="43.91993598616809" lon="10.762359098045998"><ele>419.3333333333333</ele><time>2026-04-25T13:33:39Z</time></trkpt><trkpt lat="43.91987435805085" lon="10.762275508346034"><ele>415.0</ele><time>2026-04-25T13:33:40Z</time></trkpt><trkpt lat="43.919789925718085" lon="10.762164610528323"><ele>410.66666666666663</ele><time>2026-04-25T13:33:42Z</time></trkpt><trkpt lat="43.91974946694103" lon="10.762088685458263"><ele>406.3333333333333</ele><time>2026-04-25T13:33:43Z</time></trkpt><trkpt lat="43.91971007006878" lon="10.762011394324162"><ele>402.0</ele><time>2026-04-25T13:33:44Z</time></trkpt><trkpt lat="43.91966328619586" lon="10.76191675057339"><ele>406.8</ele><time>2026-04-25T13:33:45Z</time></trkpt><trkpt lat="43.91960638279271" lon="10.761790038145051"><ele>411.6</ele><time>2026-04-25T13:33:47Z</time></trkpt><trkpt lat="43.91957494986576" lon="10.76170281455788"><ele>416.40000000000003</ele><time>2026-04-25T13:33:48Z</time></trkpt><trkpt lat="43.91954791780469" lon="10.761531499881187"><ele>421.20000000000005</ele><time>2026-04-25T13:33:50Z</time></trkpt><trkpt lat="43.91952535400727" lon="10.761427572679581"><ele>426.0</ele><time>2026-04-25T13:33:51Z</time></trkpt><trkpt lat="43.91950618763064" lon="10.761331466065824"><ele>426.0</ele><time>2026-04-25T13:33:52Z</time></trkpt><trkpt lat="43.91947151798641" lon="10.761240649083867"><ele>426.0</ele><time>2026-04-25T13:33:53Z</time></trkpt><trkpt lat="43.91943536315061" lon="10.76115849322894"><ele>426.0</ele><time>2026-04-25T13:33:54Z</time></trkpt><trkpt lat="43.91934440725671" lon="10.761041161187553"><ele>426.0</ele><time>2026-04-25T13:33:56Z</time></trkpt><trkpt lat="43.91931418845051" lon="10.760960993832402"><ele>426.0</ele><time>2026-04-25T13:33:57Z</time></trkpt><trkpt lat="43.919302158140944" lon="10.760868031282602"><ele>426.0</ele><time>2026-04-25T13:33:58Z</time></trkpt><trkpt lat="43.91927718267018" lon="10.76078741297229"><ele>427.8</ele><time>2026-04-25T13:33:59Z</time></trkpt><trkpt lat="43.91925624355503" lon="10.760628809048173"><ele>429.6</ele><time>2026-04-25T13:34:01Z</time></trkpt><trkpt lat="43.919219138460086" lon="10.760478132563618"><ele>431.4</ele><time>2026-04-25T13:34:03Z</time></trkpt><trkpt lat="43.919185644771176" lon="10.760340445576102"><ele>433.2</ele><time>2026-04-25T13:34:05Z</time></trkpt><trkpt lat="43.91917769935394" lon="10.76019459665802"><ele>435.0</ele><time>2026-04-25T13:34:07Z</time></trkpt><trkpt lat="43.91919203060813" lon="10.760102664208311"><ele>434.4</ele><time>2026-04-25T13:34:08Z</time></trkpt><trkpt lat="43.91923065707699" lon="10.759931370649552"><ele>433.8</ele><time>2026-04-25T13:34:10Z</time></trkpt><trkpt lat="43.91923961678428" lon="10.759765695833927"><ele>433.20000000000005</ele><time>2026-04-25T13:34:12Z</time></trkpt><trkpt lat="43.919272349941586" lon="10.75967630479772"><ele>432.6</ele><time>2026-04-25T13:34:13Z</time></trkpt><trkpt lat="43.91928811938495" lon="10.759581431700893"><ele>432.0</ele><time>2026-04-25T13:34:14Z</time></trkpt><trkpt lat="43.919318786562414" lon="10.759485525621239"><ele>432.0</ele><time>2026-04-25T13:34:15Z</time></trkpt><trkpt lat="43.91934466923427" lon="10.759390456669662"><ele>432.0</ele><time>2026-04-25T13:34:16Z</time></trkpt><trkpt lat="43.91938139854752" lon="10.759212591843086"><ele>432.0</ele><time>2026-04-25T13:34:18Z</time></trkpt><trkpt lat="43.919388908974604" lon="10.75910742983263"><ele>432.0</ele><time>2026-04-25T13:34:19Z</time></trkpt><trkpt lat="43.9194067759336" lon="10.759011676077389"><ele>432.0</ele><time>2026-04-25T13:34:20Z</time></trkpt><trkpt lat="43.919425997007906" lon="10.758920774031878"><ele>432.0</ele><time>2026-04-25T13:34:21Z</time></trkpt><trkpt lat="43.91947655844279" lon="10.758739400983393"><ele>429.40000000000003</ele><time>2026-04-25T13:34:23Z</time></trkpt><trkpt lat="43.91950758376872" lon="10.758647579085522"><ele>426.80000000000007</ele><time>2026-04-25T13:34:24Z</time></trkpt><trkpt lat="43.91955636244165" lon="10.758481951420208"><ele>424.2</ele><time>2026-04-25T13:34:26Z</time></trkpt><trkpt lat="43.91959066640103" lon="10.758364760525467"><ele>421.6</ele><time>2026-04-25T13:34:27Z</time></trkpt><trkpt lat="43.91964428363886" lon="10.758284096150868"><ele>419.0</ele><time>2026-04-25T13:34:28Z</time></trkpt><trkpt lat="43.9196966303228" lon="10.758189754639453"><ele>416.6</ele><time>2026-04-25T13:34:29Z</time></trkpt><trkpt lat="43.91973199506911" lon="10.758113234333942"><ele>414.2</ele><time>2026-04-25T13:34:30Z</time></trkpt><trkpt lat="43.91976136455183" lon="10.757972892898357"><ele>411.8</ele><time>2026-04-25T13:34:32Z</time></trkpt><trkpt lat="43.91970646592431" lon="10.757877108136691"><ele>409.40000000000003</ele><time>2026-04-25T13:34:34Z</time></trkpt><trkpt lat="43.919600802875266" lon="10.757841651311919"><ele>407.0</ele><time>2026-04-25T13:34:36Z</time></trkpt><trkpt lat="43.9195499697117" lon="10.757740650056887"><ele>408.75</ele><time>2026-04-25T13:34:38Z</time></trkpt><trkpt lat="43.919538588659144" lon="10.757652783433969"><ele>410.5</ele><time>2026-04-25T13:34:39Z</time></trkpt><trkpt lat="43.91949735549776" lon="10.757543022109056"><ele>412.25</ele><time>2026-04-25T13:34:41Z</time></trkpt><trkpt lat="43.91932880043744" lon="10.757513498339733"><ele>414.0</ele><time>2026-04-25T13:34:43Z</time></trkpt><trkpt lat="43.91919571916124" lon="10.757535372264336"><ele>408.2</ele><time>2026-04-25T13:34:44Z</time></trkpt><trkpt lat="43.91907205967269" lon="10.75750090884453"><ele>402.4</ele><time>2026-04-25T13:34:45Z</time></trkpt><trkpt lat="43.918972235889605" lon="10.757492415022089"><ele>396.6</ele><time>2026-04-25T13:34:46Z</time></trkpt><trkpt lat="43.91887002430611" lon="10.757476066524934"><ele>390.8</ele><time>2026-04-25T13:34:47Z</time></trkpt><trkpt lat="43.918781108058916" lon="10.757462296255358"><ele>385.0</ele><time>2026-04-25T13:34:48Z</time></trkpt><trkpt lat="43.918708725911706" lon="10.7574392221959"><ele>385.0</ele><time>2026-04-25T13:34:49Z</time></trkpt><trkpt lat="43.918626988418694" lon="10.757325173679634"><ele>385.0</ele><time>2026-04-25T13:34:51Z</time></trkpt><trkpt lat="43.918564611270206" lon="10.757179562577816"><ele>385.0</ele><time>2026-04-25T13:34:53Z</time></trkpt><trkpt lat="43.91851691621898" lon="10.757112031389314"><ele>385.0</ele><time>2026-04-25T13:34:54Z</time></trkpt><trkpt lat="43.91846523119779" lon="10.757056422502865"><ele>385.0</ele><time>2026-04-25T13:34:55Z</time></trkpt><trkpt lat="43.9183325950275" lon="10.757028284620372"><ele>382.2</ele><time>2026-04-25T13:34:57Z</time></trkpt><trkpt lat="43.91823268255207" lon="10.757045708215385"><ele>379.4</ele><time>2026-04-25T13:34:58Z</time></trkpt><trkpt lat="43.91812495115086" lon="10.757037380039268"><ele>376.6</ele><time>2026-04-25T13:34:59Z</time></trkpt><trkpt lat="43.918014519031416" lon="10.757000242735408"><ele>373.8</ele><time>2026-04-25T13:35:00Z</time></trkpt><trkpt lat="43.91791312437457" lon="10.756963065873265"><ele>371.0</ele><time>2026-04-25T13:35:01Z</time></trkpt><trkpt lat="43.91784075661575" lon="10.756945867088668"><ele>371.0</ele><time>2026-04-25T13:35:02Z</time></trkpt><trkpt lat="43.91777672671106" lon="10.756922430590222"><ele>371.0</ele><time>2026-04-25T13:35:03Z</time></trkpt><trkpt lat="43.91770192884255" lon="10.75683176550708"><ele>371.0</ele><time>2026-04-25T13:35:05Z</time></trkpt><trkpt lat="43.917674034957024" lon="10.756673533844273"><ele>371.0</ele><time>2026-04-25T13:35:07Z</time></trkpt><trkpt lat="43.917671399770114" lon="10.756576332228855"><ele>371.0</ele><time>2026-04-25T13:35:08Z</time></trkpt><trkpt lat="43.91766453152409" lon="10.756465861233934"><ele>371.0</ele><time>2026-04-25T13:35:09Z</time></trkpt><trkpt lat="43.91765096865725" lon="10.756336569206589"><ele>373.20000000000005</ele><time>2026-04-25T13:35:10Z</time></trkpt><trkpt lat="43.91762893792266" lon="10.756206731464314"><ele>375.40000000000003</ele><time>2026-04-25T13:35:11Z</time></trkpt><trkpt lat="43.917612096049865" lon="10.756081369747301"><ele>377.6</ele><time>2026-04-25T13:35:12Z</time></trkpt><trkpt lat="43.917591201742084" lon="10.755957695841824"><ele>379.8</ele><time>2026-04-25T13:35:13Z</time></trkpt><trkpt lat="43.917563246374236" lon="10.755843560322356"><ele>382.0</ele><time>2026-04-25T13:35:14Z</time></trkpt><trkpt lat="43.9175331750722" lon="10.755723950724768"><ele>382.0</ele><time>2026-04-25T13:35:15Z</time></trkpt><trkpt lat="43.91751461449651" lon="10.755612507103846"><ele>382.0</ele><time>2026-04-25T13:35:16Z</time></trkpt><trkpt lat="43.917506591297666" lon="10.755491837452574"><ele>382.0</ele><time>2026-04-25T13:35:17Z</time></trkpt><trkpt lat="43.91749602688095" lon="10.755367794891175"><ele>382.0</ele><time>2026-04-25T13:35:18Z</time></trkpt><trkpt lat="43.91748989659889" lon="10.755260314950634"><ele>382.0</ele><time>2026-04-25T13:35:19Z</time></trkpt><trkpt lat="43.91748234458357" lon="10.755162817681093"><ele>382.0</ele><time>2026-04-25T13:35:20Z</time></trkpt><trkpt lat="43.917456396794115" lon="10.755070590440841"><ele>383.2857142857143</ele><time>2026-04-25T13:35:21Z</time></trkpt><trkpt lat="43.91740075233473" lon="10.754991167929413"><ele>384.57142857142856</ele><time>2026-04-25T13:35:22Z</time></trkpt><trkpt lat="43.91734032061121" lon="10.754933828246152"><ele>385.85714285714283</ele><time>2026-04-25T13:35:23Z</time></trkpt><trkpt lat="43.91728182349955" lon="10.754868276223124"><ele>387.1428571428571</ele><time>2026-04-25T13:35:24Z</time></trkpt><trkpt lat="43.917215558715824" lon="10.754808650014695"><ele>388.42857142857144</ele><time>2026-04-25T13:35:25Z</time></trkpt><trkpt lat="43.9171581110436" lon="10.7547550738388"><ele>389.71428571428567</ele><time>2026-04-25T13:35:26Z</time></trkpt><trkpt lat="43.91711479479307" lon="10.754680172621157"><ele>391.0</ele><time>2026-04-25T13:35:27Z</time></trkpt><trkpt lat="43.91708567431456" lon="10.754597424962638"><ele>391.0</ele><time>2026-04-25T13:35:28Z</time></trkpt><trkpt lat="43.917054146457325" lon="10.754426690174823"><ele>391.0</ele><time>2026-04-25T13:35:30Z</time></trkpt><trkpt lat="43.9170250149712" lon="10.754333618411257"><ele>391.0</ele><time>2026-04-25T13:35:31Z</time></trkpt><trkpt lat="43.91699762713761" lon="10.754240823683915"><ele>391.0</ele><time>2026-04-25T13:35:32Z</time></trkpt><trkpt lat="43.91696670580871" lon="10.754157373457916"><ele>391.0</ele><time>2026-04-25T13:35:33Z</time></trkpt><trkpt lat="43.91691133447103" lon="10.754005874191638"><ele>390.8</ele><time>2026-04-25T13:35:35Z</time></trkpt><trkpt lat="43.91685457766032" lon="10.753860757912285"><ele>390.6</ele><time>2026-04-25T13:35:37Z</time></trkpt><trkpt lat="43.91678895093095" lon="10.75373641723486"><ele>390.4</ele><time>2026-04-25T13:35:39Z</time></trkpt><trkpt lat="43.916719105104555" lon="10.753625836126503"><ele>390.2</ele><time>2026-04-25T13:35:41Z</time></trkpt><trkpt lat="43.91669698823525" lon="10.753492201000014"><ele>390.0</ele><time>2026-04-25T13:35:43Z</time></trkpt><trkpt lat="43.916731012180094" lon="10.75340881502688"><ele>387.4</ele><time>2026-04-25T13:35:45Z</time></trkpt><trkpt lat="43.91680069584335" lon="10.753333556406467"><ele>384.8</ele><time>2026-04-25T13:35:48Z</time></trkpt><trkpt lat="43.91685723493578" lon="10.75325381120034"><ele>382.20000000000005</ele><time>2026-04-25T13:35:51Z</time></trkpt><trkpt lat="43.91679139240728" lon="10.753186263931552"><ele>379.6</ele><time>2026-04-25T13:35:53Z</time></trkpt><trkpt lat="43.91671721409453" lon="10.75309074161543"><ele>377.0</ele><time>2026-04-25T13:35:55Z</time></trkpt><trkpt lat="43.91665938489372" lon="10.75296420906788"><ele>375.20000000000005</ele><time>2026-04-25T13:35:57Z</time></trkpt><trkpt lat="43.91662975217558" lon="10.752821455004995"><ele>373.4</ele><time>2026-04-25T13:35:59Z</time></trkpt><trkpt lat="43.91661514888049" lon="10.75269002818463"><ele>371.6</ele><time>2026-04-25T13:36:01Z</time></trkpt><trkpt lat="43.91661580346387" lon="10.752588835067977"><ele>369.79999999999995</ele><time>2026-04-25T13:36:03Z</time></trkpt><trkpt lat="43.916635213185096" lon="10.75246833429217"><ele>368.0</ele><time>2026-04-25T13:36:07Z</time></trkpt><trkpt lat="43.916662462708906" lon="10.752338366861972"><ele>367.0</ele><time>2026-04-25T13:36:09Z</time></trkpt><trkpt lat="43.91669131824922" lon="10.752160886926946"><ele>366.0</ele><time>2026-04-25T13:36:11Z</time></trkpt><trkpt lat="43.91672986638676" lon="10.751985762988957"><ele>365.0</ele><time>2026-04-25T13:36:13Z</time></trkpt><trkpt lat="43.916752563207446" lon="10.751899125795399"><ele>364.0</ele><time>2026-04-25T13:36:14Z</time></trkpt><trkpt lat="43.91677442133166" lon="10.751803487609214"><ele>363.0</ele><time>2026-04-25T13:36:15Z</time></trkpt><trkpt lat="43.91676974146439" lon="10.75161946396099"><ele>361.2</ele><time>2026-04-25T13:36:17Z</time></trkpt><trkpt lat="43.916744277322444" lon="10.751536512888187"><ele>359.4</ele><time>2026-04-25T13:36:18Z</time></trkpt><trkpt lat="43.91672087018671" lon="10.751368200194515"><ele>357.59999999999997</ele><time>2026-04-25T13:36:20Z</time></trkpt><trkpt lat="43.916689220666605" lon="10.751204092410553"><ele>355.79999999999995</ele><time>2026-04-25T13:36:22Z</time></trkpt><trkpt lat="43.91665593725472" lon="10.75104512046803"><ele>354.0</ele><time>2026-04-25T13:36:24Z</time></trkpt><trkpt lat="43.91666445471179" lon="10.75090297095585"><ele>351.5</ele><time>2026-04-25T13:36:26Z</time></trkpt><trkpt lat="43.91666384341626" lon="10.7507793294229"><ele>349.0</ele><time>2026-04-25T13:36:28Z</time></trkpt><trkpt lat="43.91664192580843" lon="10.750672206289535"><ele>346.5</ele><time>2026-04-25T13:36:29Z</time></trkpt><trkpt lat="43.91658850403556" lon="10.750589265879123"><ele>344.0</ele><time>2026-04-25T13:36:31Z</time></trkpt><trkpt lat="43.91656346892152" lon="10.7504861088273"><ele>341.5</ele><time>2026-04-25T13:36:45Z</time></trkpt><trkpt lat="43.91652780958083" lon="10.750390416828642"><ele>339.0</ele><time>2026-04-25T13:36:50Z</time></trkpt><trkpt lat="43.91647092221691" lon="10.750289715817939"><ele>335.4</ele><time>2026-04-25T13:36:52Z</time></trkpt><trkpt lat="43.91642860078077" lon="10.75018284324374"><ele>331.79999999999995</ele><time>2026-04-25T13:36:55Z</time></trkpt><trkpt lat="43.91643010102172" lon="10.750015533964865"><ele>328.20000000000005</ele><time>2026-04-25T13:37:14Z</time></trkpt><trkpt lat="43.91644899421391" lon="10.749895654141442"><ele>324.6</ele><time>2026-04-25T13:37:17Z</time></trkpt><trkpt lat="43.91646865315498" lon="10.749782093185607"><ele>321.0</ele><time>2026-04-25T13:37:19Z</time></trkpt><trkpt lat="43.916466373722514" lon="10.749676382437407"><ele>321.0</ele><time>2026-04-25T13:37:21Z</time></trkpt><trkpt lat="43.916454579643144" lon="10.749587496701698"><ele>321.0</ele><time>2026-04-25T13:37:23Z</time></trkpt><trkpt lat="43.91644853236354" lon="10.749489379926711"><ele>321.0</ele><time>2026-04-25T13:37:25Z</time></trkpt><trkpt lat="43.91643328704811" lon="10.749382536824122"><ele>321.0</ele><time>2026-04-25T13:37:27Z</time></trkpt><trkpt lat="43.91636032169493" lon="10.749259237066068"><ele>321.0</ele><time>2026-04-25T13:37:29Z</time></trkpt><trkpt lat="43.91630340452954" lon="10.749110040945352"><ele>316.40000000000003</ele><time>2026-04-25T13:37:31Z</time></trkpt><trkpt lat="43.91624748042582" lon="10.749005405599139"><ele>311.8</ele><time>2026-04-25T13:37:33Z</time></trkpt><trkpt lat="43.91616906826818" lon="10.748906068409697"><ele>307.20000000000005</ele><time>2026-04-25T13:37:35Z</time></trkpt><trkpt lat="43.9161090809706" lon="10.748782273030388"><ele>302.6</ele><time>2026-04-25T13:37:37Z</time></trkpt><trkpt lat="43.91606387297848" lon="10.74870271353356"><ele>298.0</ele><time>2026-04-25T13:37:39Z</time></trkpt><trkpt lat="43.91599692499646" lon="10.748666987440782"><ele>298.0</ele><time>2026-04-25T13:37:41Z</time></trkpt><trkpt lat="43.91591313399133" lon="10.748636297366867"><ele>298.0</ele><time>2026-04-25T13:37:43Z</time></trkpt><trkpt lat="43.9158292023379" lon="10.748618594692164"><ele>298.0</ele><time>2026-04-25T13:37:45Z</time></trkpt><trkpt lat="43.915740760379165" lon="10.748608117695833"><ele>298.0</ele><time>2026-04-25T13:37:47Z</time></trkpt><trkpt lat="43.91564392164484" lon="10.748641974082002"><ele>298.0</ele><time>2026-04-25T13:37:49Z</time></trkpt><trkpt lat="43.91559076812102" lon="10.74869733807151"><ele>298.0</ele><time>2026-04-25T13:37:51Z</time></trkpt><trkpt lat="43.915517059539525" lon="10.748709522744075"><ele>299.0</ele><time>2026-04-25T13:37:55Z</time></trkpt><trkpt lat="43.9154556124269" lon="10.748741228657648"><ele>300.0</ele><time>2026-04-25T13:38:24Z</time></trkpt><trkpt lat="43.915417480503585" lon="10.748629409900774"><ele>301.0</ele><time>2026-04-25T13:38:36Z</time></trkpt><trkpt lat="43.915333022781546" lon="10.74852559265463"><ele>302.0</ele><time>2026-04-25T13:38:38Z</time></trkpt><trkpt lat="43.91528146827718" lon="10.748403189335788"><ele>303.0</ele><time>2026-04-25T13:38:40Z</time></trkpt><trkpt lat="43.915210008649225" lon="10.748328217974999"><ele>299.8333333333333</ele><time>2026-04-25T13:38:42Z</time></trkpt><trkpt lat="43.91524526464776" lon="10.748242125969186"><ele>296.6666666666667</ele><time>2026-04-25T13:38:45Z</time></trkpt><trkpt lat="43.91517913735852" lon="10.74818328202435"><ele>293.5</ele><time>2026-04-25T13:38:48Z</time></trkpt><trkpt lat="43.91513418951912" lon="10.74808733175385"><ele>290.33333333333337</ele><time>2026-04-25T13:38:54Z</time></trkpt><trkpt lat="43.9151106244753" lon="10.747978810204"><ele>287.1666666666667</ele><time>2026-04-25T13:38:57Z</time></trkpt><trkpt lat="43.91509467173337" lon="10.747849577785466"><ele>284.0</ele><time>2026-04-25T13:39:00Z</time></trkpt><trkpt lat="43.915117053452576" lon="10.74775478379293"><ele>284.0</ele><time>2026-04-25T13:39:04Z</time></trkpt><trkpt lat="43.91520544105312" lon="10.747713889358344"><ele>284.0</ele><time>2026-04-25T13:39:07Z</time></trkpt><trkpt lat="43.91522981308861" lon="10.747630025530935"><ele>284.0</ele><time>2026-04-25T13:39:10Z</time></trkpt><trkpt lat="43.91519109429025" lon="10.747519755973068"><ele>284.0</ele><time>2026-04-25T13:39:13Z</time></trkpt><trkpt lat="43.915183065942934" lon="10.7474212186572"><ele>284.0</ele><time>2026-04-25T13:39:15Z</time></trkpt><trkpt lat="43.915130179224285" lon="10.747336331694582"><ele>284.0</ele><time>2026-04-25T13:39:17Z</time></trkpt><trkpt lat="43.915030194931965" lon="10.747288992854164"><ele>278.33333333333337</ele><time>2026-04-25T13:39:20Z</time></trkpt><trkpt lat="43.914934991794645" lon="10.747249160762028"><ele>272.6666666666667</ele><time>2026-04-25T13:39:22Z</time></trkpt><trkpt lat="43.91486750785651" lon="10.747235898832745"><ele>267.0</ele><time>2026-04-25T13:39:24Z</time></trkpt><trkpt lat="43.914827635029205" lon="10.747142979215221"><ele>261.3333333333333</ele><time>2026-04-25T13:39:30Z</time></trkpt><trkpt lat="43.91486659729355" lon="10.747062919221795"><ele>255.66666666666666</ele><time>2026-04-25T13:39:32Z</time></trkpt><trkpt lat="43.914920053539" lon="10.747010007921856"><ele>250.0</ele><time>2026-04-25T13:39:36Z</time></trkpt><trkpt lat="43.91499404594644" lon="10.746980854060961"><ele>249.99999999999997</ele><time>2026-04-25T13:39:39Z</time></trkpt><trkpt lat="43.9150606767464" lon="10.747001430986215"><ele>250.0</ele><time>2026-04-25T13:39:41Z</time></trkpt><trkpt lat="43.91513917079654" lon="10.746994506819368"><ele>250.0</ele><time>2026-04-25T13:39:43Z</time></trkpt><trkpt lat="43.91522408897676" lon="10.747009880581672"><ele>250.0</ele><time>2026-04-25T13:39:45Z</time></trkpt><trkpt lat="43.915310592436086" lon="10.747036406593155"><ele>249.99999999999997</ele><time>2026-04-25T13:39:47Z</time></trkpt><trkpt lat="43.915409814472675" lon="10.747029404532602"><ele>250.0</ele><time>2026-04-25T13:39:50Z</time></trkpt><trkpt lat="43.91548478934449" lon="10.747053179999158"><ele>250.42857142857142</ele><time>2026-04-25T13:39:55Z</time></trkpt><trkpt lat="43.91552571486399" lon="10.74697705385983"><ele>250.8571428571429</ele><time>2026-04-25T13:39:59Z</time></trkpt><trkpt lat="43.91549142628299" lon="10.746895487489564"><ele>251.2857142857143</ele><time>2026-04-25T13:40:02Z</time></trkpt><trkpt lat="43.91543438770856" lon="10.746849465310127"><ele>251.71428571428572</ele><time>2026-04-25T13:40:04Z</time></trkpt><trkpt lat="43.91539449452422" lon="10.74677949927852"><ele>252.14285714285717</ele><time>2026-04-25T13:40:06Z</time></trkpt><trkpt lat="43.91536653989983" lon="10.746694100385453"><ele>252.5714285714286</ele><time>2026-04-25T13:40:08Z</time></trkpt><trkpt lat="43.91531040553916" lon="10.746624016653321"><ele>253.00000000000003</ele><time>2026-04-25T13:40:10Z</time></trkpt><trkpt lat="43.91525150057395" lon="10.746547936070481"><ele>251.33333333333331</ele><time>2026-04-25T13:40:12Z</time></trkpt><trkpt lat="43.91518168695101" lon="10.746491807210885"><ele>249.66666666666666</ele><time>2026-04-25T13:40:14Z</time></trkpt><trkpt lat="43.9151383607418" lon="10.746404582525896"><ele>248.0</ele><time>2026-04-25T13:40:16Z</time></trkpt><trkpt lat="43.91508581032666" lon="10.746288372652955"><ele>246.33333333333331</ele><time>2026-04-25T13:40:18Z</time></trkpt><trkpt lat="43.915071694059485" lon="10.746160928771474"><ele>244.66666666666666</ele><time>2026-04-25T13:40:20Z</time></trkpt><trkpt lat="43.91506737362675" lon="10.746040674765148"><ele>243.0</ele><time>2026-04-25T13:40:22Z</time></trkpt><trkpt lat="43.91498759175564" lon="10.74600937954251"><ele>234.0</ele><time>2026-04-25T13:40:25Z</time></trkpt><trkpt lat="43.91489216828086" lon="10.745959029222798"><ele>234.0</ele><time>2026-04-25T13:40:27Z</time></trkpt><trkpt lat="43.914803143981274" lon="10.745934835531033"><ele>234.0</ele><time>2026-04-25T13:40:29Z</time></trkpt><trkpt lat="43.91471935515499" lon="10.745811110269523"><ele>234.0</ele><time>2026-04-25T13:40:31Z</time></trkpt><trkpt lat="43.91463354480545" lon="10.745783860239612"><ele>234.0</ele><time>2026-04-25T13:40:33Z</time></trkpt></trkseg></trk></gpx>